[[{"header":{"parameterUnit":"m.s-1","parameterCategory":1,"la1":30.6,"la2":29.2853,"lo1":-89.7004,"lo2":-87.6739,"dy":0.0162,"dx":0.0183,"nx":112,"ny":82,"refTime":"2023-09-21T00:00:00:Z","depth":0,"parameterNumber":2,"parameterNumberName":"U-component_of_WINDS"},"data":[0.0,0.0,0.0,0.0,0.0,0.0,0.0,0.0,0.0,0.0,0.0,0.0,0.0,0.0,0.0,0.0,0.0,0.0,0.0,0.0,0.0,0.0,0.0,0.0,0.0,0.0,0.0,0.0,0.0,0.0,0.0,0.0,0.0,0.0,0.0,0.0,0.0,0.0,0.0,0.0,0.0,0.0,0.0,0.0,0.0,0.0,0.0,0.0,0.0,0.0,0.0,0.0,0.0,0.0,0.0,0.0,0.0,0.0,0.0,0.0,0.0,0.0,0.0,0.0,0.0,0.0,0.0,0.0,0.0,0.0,0.0,0.0,0.0,0.0,0.0,0.0,0.0,0.0,0.0,0.0,0.0,0.0,0.0,0.0,0.0,0.0,0.0,0.0,0.0,0.0,-3.5412,-3.5412,-3.546,-3.55,-3.55,-3.5453,-3.5211,-3.4774,0.0,0.0,0.0,0.0,0.0,0.0,0.0,0.0,0.0,0.0,0.0,0.0,0.0,0.0,0.0,0.0,0.0,0.0,0.0,0.0,0.0,0.0,0.0,0.0,0.0,0.0,0.0,0.0,0.0,0.0,0.0,0.0,0.0,0.0,0.0,0.0,0.0,0.0,0.0,0.0,0.0,0.0,0.0,0.0,0.0,0.0,0.0,0.0,0.0,0.0,0.0,0.0,0.0,0.0,0.0,0.0,0.0,0.0,0.0,0.0,0.0,0.0,0.0,0.0,0.0,0.0,0.0,0.0,0.0,0.0,0.0,0.0,0.0,0.0,0.0,0.0,0.0,0.0,0.0,0.0,0.0,0.0,0.0,0.0,0.0,0.0,0.0,0.0,0.0,0.0,0.0,0.0,0.0,0.0,0.0,0.0,0.0,0.0,0.0,0.0,0.0,0.0,0.0,0.0,-3.5474,-3.5474,-3.5493,-3.55,-3.55,-3.5493,-3.5327,-3.499,0.0,0.0,0.0,0.0,0.0,0.0,0.0,0.0,0.0,0.0,0.0,0.0,0.0,0.0,0.0,0.0,0.0,0.0,0.0,0.0,0.0,0.0,0.0,0.0,0.0,0.0,0.0,0.0,0.0,0.0,0.0,0.0,0.0,0.0,0.0,0.0,0.0,0.0,0.0,0.0,0.0,0.0,0.0,0.0,0.0,0.0,0.0,0.0,0.0,0.0,0.0,0.0,0.0,0.0,0.0,0.0,0.0,0.0,0.0,0.0,0.0,0.0,0.0,0.0,0.0,0.0,0.0,0.0,0.0,0.0,0.0,0.0,0.0,0.0,0.0,0.0,0.0,0.0,0.0,0.0,0.0,0.0,0.0,0.0,0.0,0.0,0.0,0.0,0.0,0.0,0.0,0.0,0.0,0.0,0.0,0.0,0.0,0.0,0.0,0.0,0.0,0.0,0.0,-3.546,-3.55,-3.55,-3.55,-3.55,-3.55,-3.55,-3.5312,-3.486,-3.4724,0.0,0.0,0.0,0.0,0.0,0.0,0.0,0.0,0.0,0.0,0.0,0.0,0.0,0.0,0.0,0.0,0.0,0.0,0.0,0.0,0.0,0.0,0.0,0.0,0.0,0.0,0.0,0.0,0.0,0.0,0.0,0.0,0.0,0.0,0.0,0.0,0.0,0.0,0.0,0.0,0.0,0.0,0.0,0.0,0.0,0.0,0.0,0.0,0.0,0.0,0.0,0.0,0.0,0.0,0.0,0.0,0.0,0.0,0.0,0.0,0.0,0.0,0.0,0.0,0.0,0.0,0.0,0.0,0.0,0.0,0.0,0.0,0.0,0.0,0.0,0.0,0.0,0.0,0.0,0.0,0.0,0.0,0.0,0.0,0.0,0.0,0.0,0.0,0.0,0.0,0.0,0.0,0.0,0.0,0.0,0.0,0.0,0.0,0.0,0.0,0.0,0.0,-3.55,-3.55,-3.55,-3.55,-3.55,-3.55,-3.55,-3.5297,-3.4793,-3.4734,0.0,0.0,0.0,0.0,0.0,0.0,0.0,0.0,0.0,0.0,0.0,0.0,0.0,0.0,0.0,0.0,0.0,0.0,0.0,0.0,0.0,0.0,0.0,0.0,0.0,0.0,0.0,0.0,0.0,0.0,0.0,0.0,0.0,0.0,0.0,0.0,0.0,0.0,0.0,0.0,0.0,0.0,0.0,0.0,0.0,0.0,0.0,0.0,0.0,0.0,0.0,0.0,0.0,0.0,0.0,0.0,0.0,0.0,0.0,0.0,0.0,0.0,0.0,0.0,0.0,0.0,0.0,0.0,0.0,0.0,0.0,0.0,0.0,0.0,0.0,0.0,0.0,0.0,0.0,0.0,0.0,0.0,0.0,0.0,0.0,0.0,0.0,0.0,0.0,0.0,0.0,0.0,0.0,0.0,0.0,0.0,0.0,0.0,0.0,0.0,0.0,0.0,-3.55,-3.55,-3.55,-3.55,-3.55,-3.55,-3.55,-3.5342,-3.4988,-3.487,0.0,0.0,0.0,0.0,0.0,0.0,0.0,0.0,0.0,0.0,0.0,0.0,0.0,0.0,0.0,0.0,0.0,0.0,0.0,0.0,0.0,0.0,0.0,0.0,0.0,0.0,0.0,0.0,0.0,0.0,0.0,0.0,0.0,0.0,0.0,0.0,0.0,0.0,0.0,0.0,0.0,0.0,0.0,0.0,0.0,0.0,0.0,0.0,0.0,0.0,0.0,0.0,0.0,0.0,0.0,0.0,0.0,0.0,0.0,0.0,0.0,0.0,0.0,0.0,0.0,0.0,0.0,0.0,0.0,0.0,0.0,0.0,0.0,0.0,0.0,0.0,0.0,0.0,0.0,0.0,0.0,0.0,0.0,0.0,0.0,0.0,0.0,0.0,0.0,0.0,0.0,0.0,0.0,0.0,0.0,0.0,0.0,0.0,0.0,0.0,0.0,0.0,-3.7065,-3.7065,0.0,-3.7065,-3.7065,-3.7065,-3.6558,-3.6124,-3.5821,0.0,0.0,0.0,0.0,0.0,0.0,0.0,0.0,0.0,0.0,0.0,0.0,0.0,0.0,0.0,0.0,0.0,0.0,0.0,0.0,0.0,0.0,0.0,0.0,0.0,0.0,0.0,0.0,0.0,0.0,0.0,0.0,0.0,0.0,0.0,0.0,0.0,0.0,0.0,0.0,0.0,0.0,0.0,0.0,0.0,0.0,0.0,0.0,0.0,0.0,0.0,0.0,0.0,0.0,0.0,0.0,0.0,0.0,0.0,0.0,0.0,0.0,0.0,0.0,0.0,0.0,0.0,0.0,0.0,0.0,0.0,0.0,0.0,0.0,0.0,0.0,0.0,0.0,0.0,0.0,0.0,0.0,0.0,0.0,0.0,0.0,0.0,0.0,0.0,0.0,0.0,0.0,0.0,0.0,0.0,0.0,0.0,0.0,0.0,0.0,0.0,0.0,-3.7911,-3.8007,-3.8007,0.0,-3.8007,-3.8007,-3.8007,-3.745,-3.7003,-3.6733,0.0,0.0,0.0,0.0,0.0,0.0,0.0,0.0,0.0,0.0,0.0,0.0,0.0,0.0,0.0,0.0,0.0,0.0,0.0,0.0,0.0,0.0,0.0,0.0,0.0,0.0,0.0,0.0,0.0,0.0,0.0,0.0,0.0,0.0,0.0,0.0,0.0,0.0,0.0,0.0,0.0,0.0,0.0,0.0,0.0,0.0,0.0,0.0,0.0,0.0,0.0,0.0,0.0,0.0,0.0,0.0,0.0,0.0,0.0,0.0,0.0,0.0,0.0,0.0,0.0,0.0,0.0,0.0,0.0,0.0,0.0,0.0,0.0,0.0,0.0,0.0,0.0,0.0,0.0,0.0,0.0,0.0,0.0,0.0,0.0,0.0,0.0,0.0,0.0,0.0,0.0,0.0,0.0,0.0,0.0,0.0,0.0,0.0,0.0,0.0,0.0,0.0,-3.8027,-3.8027,-3.8027,-3.8027,-3.8027,-3.8027,-3.8027,-3.8027,-3.7894,0.0,0.0,0.0,0.0,0.0,0.0,0.0,0.0,0.0,0.0,0.0,0.0,0.0,0.0,0.0,0.0,0.0,0.0,0.0,0.0,0.0,0.0,0.0,0.0,0.0,0.0,0.0,0.0,0.0,0.0,0.0,0.0,0.0,0.0,0.0,0.0,0.0,0.0,0.0,0.0,0.0,0.0,0.0,0.0,0.0,0.0,0.0,0.0,0.0,0.0,0.0,0.0,0.0,0.0,0.0,0.0,0.0,0.0,0.0,0.0,0.0,0.0,0.0,0.0,0.0,0.0,0.0,0.0,0.0,0.0,0.0,0.0,0.0,0.0,0.0,0.0,0.0,0.0,0.0,0.0,0.0,0.0,0.0,0.0,0.0,0.0,0.0,0.0,0.0,0.0,0.0,0.0,0.0,0.0,0.0,0.0,0.0,0.0,0.0,0.0,0.0,0.0,0.0,-3.976,-3.9876,-3.9889,-3.9837,-3.9841,-3.9807,-3.9765,-3.9242,-3.888,-3.8804,0.0,0.0,0.0,0.0,0.0,0.0,0.0,0.0,0.0,0.0,0.0,0.0,0.0,0.0,0.0,0.0,0.0,0.0,0.0,0.0,0.0,0.0,0.0,0.0,0.0,0.0,0.0,0.0,0.0,0.0,0.0,0.0,0.0,0.0,0.0,0.0,0.0,0.0,0.0,0.0,0.0,0.0,0.0,0.0,0.0,0.0,0.0,0.0,0.0,0.0,0.0,0.0,0.0,0.0,0.0,0.0,0.0,0.0,0.0,0.0,0.0,0.0,0.0,0.0,0.0,0.0,0.0,0.0,0.0,0.0,0.0,0.0,0.0,0.0,0.0,0.0,0.0,0.0,0.0,0.0,0.0,0.0,0.0,0.0,0.0,0.0,0.0,0.0,0.0,0.0,0.0,0.0,0.0,0.0,0.0,0.0,0.0,0.0,0.0,0.0,0.0,0.0,-4.0571,-4.068,-4.0676,-4.0636,-4.0626,-4.0583,-4.0542,-4.0102,-3.9813,-3.981,0.0,0.0,0.0,0.0,0.0,0.0,0.0,0.0,0.0,0.0,0.0,0.0,0.0,0.0,0.0,0.0,0.0,0.0,0.0,0.0,0.0,0.0,0.0,0.0,0.0,0.0,0.0,0.0,0.0,0.0,0.0,0.0,0.0,0.0,0.0,0.0,0.0,0.0,0.0,0.0,0.0,0.0,0.0,0.0,0.0,0.0,0.0,0.0,0.0,0.0,0.0,0.0,0.0,0.0,0.0,0.0,0.0,0.0,0.0,0.0,0.0,0.0,0.0,0.0,0.0,0.0,0.0,0.0,0.0,0.0,0.0,0.0,0.0,0.0,0.0,0.0,0.0,0.0,0.0,0.0,0.0,0.0,0.0,0.0,0.0,0.0,0.0,0.0,0.0,0.0,0.0,0.0,0.0,0.0,0.0,0.0,0.0,0.0,0.0,0.0,0.0,0.0,-4.0703,-4.0715,-4.0722,-4.0715,-4.0655,-4.0609,-4.0595,-4.0609,-4.0615,-4.0615,0.0,0.0,0.0,0.0,0.0,0.0,0.0,0.0,0.0,0.0,0.0,0.0,0.0,0.0,0.0,0.0,0.0,0.0,0.0,0.0,0.0,0.0,0.0,0.0,0.0,0.0,0.0,0.0,0.0,0.0,0.0,0.0,0.0,0.0,0.0,0.0,0.0,0.0,0.0,0.0,0.0,0.0,0.0,0.0,0.0,0.0,0.0,0.0,0.0,0.0,0.0,0.0,0.0,0.0,0.0,0.0,0.0,0.0,0.0,0.0,-3.6302,0.0,0.0,0.0,0.0,0.0,0.0,0.0,0.0,0.0,0.0,0.0,0.0,0.0,0.0,0.0,0.0,0.0,0.0,0.0,0.0,0.0,0.0,0.0,0.0,0.0,0.0,0.0,0.0,0.0,0.0,0.0,0.0,0.0,0.0,0.0,0.0,0.0,0.0,0.0,0.0,0.0,-4.071,-4.0875,-4.0958,-4.0801,-4.0773,-4.0717,-4.0602,-4.0693,-4.0724,-4.0671,-4.061,0.0,0.0,0.0,0.0,0.0,0.0,0.0,0.0,0.0,0.0,0.0,0.0,0.0,0.0,0.0,0.0,0.0,0.0,0.0,0.0,0.0,0.0,0.0,0.0,0.0,0.0,0.0,0.0,0.0,0.0,0.0,0.0,0.0,0.0,0.0,0.0,0.0,0.0,0.0,0.0,0.0,0.0,0.0,0.0,0.0,0.0,0.0,0.0,0.0,0.0,0.0,0.0,0.0,0.0,0.0,0.0,0.0,0.0,0.0,0.0,-3.7177,0.0,0.0,0.0,0.0,0.0,0.0,0.0,0.0,0.0,0.0,0.0,0.0,0.0,0.0,0.0,0.0,0.0,0.0,0.0,0.0,0.0,0.0,0.0,0.0,0.0,0.0,0.0,0.0,0.0,0.0,0.0,0.0,0.0,0.0,0.0,0.0,0.0,0.0,0.0,0.0,-4.0844,-4.0989,-4.1053,-4.0964,-4.0922,-4.0872,-4.081,-4.0863,-4.0878,-4.0839,-4.0909,0.0,0.0,0.0,0.0,0.0,0.0,0.0,0.0,0.0,0.0,0.0,0.0,0.0,0.0,0.0,0.0,0.0,0.0,0.0,0.0,0.0,0.0,0.0,0.0,0.0,0.0,0.0,0.0,0.0,0.0,0.0,0.0,0.0,0.0,0.0,0.0,0.0,0.0,0.0,0.0,0.0,0.0,0.0,0.0,0.0,0.0,0.0,0.0,0.0,0.0,0.0,0.0,0.0,-3.8957,-3.9034,-3.9171,-3.9188,-3.9178,-3.9179,-3.9173,-3.8902,-3.85,-3.85,0.0,0.0,0.0,0.0,0.0,0.0,0.0,0.0,0.0,0.0,0.0,0.0,0.0,0.0,0.0,0.0,0.0,0.0,0.0,0.0,0.0,0.0,0.0,0.0,-3.9289,-3.9657,-3.9041,0.0,0.0,0.0,0.0,0.0,0.0,0.0,0.0,0.0,0.0,0.0,-4.1003,-4.1065,-4.1115,-4.1109,-4.1057,-4.1006,-4.0994,-4.1003,-4.1009,-4.0992,-4.1005,-4.0994,0.0,0.0,0.0,0.0,0.0,0.0,0.0,0.0,0.0,0.0,0.0,0.0,0.0,0.0,0.0,0.0,0.0,0.0,0.0,0.0,0.0,0.0,0.0,0.0,0.0,0.0,0.0,0.0,0.0,0.0,0.0,0.0,-3.797,-3.7974,0.0,0.0,0.0,0.0,0.0,0.0,0.0,0.0,0.0,0.0,0.0,0.0,0.0,-3.9575,-3.9624,-4.0384,-4.0755,-4.0755,-4.0755,-4.1145,-4.1886,-4.1888,-4.1896,-4.187,-4.1816,0.0,-3.85,-3.85,0.0,0.0,0.0,0.0,0.0,0.0,0.0,0.0,0.0,0.0,0.0,0.0,0.0,0.0,0.0,0.0,0.0,0.0,0.0,0.0,0.0,0.0,-4.0448,-4.0473,-4.0595,-4.0707,0.0,-4.065,-4.0722,-4.0914,-4.0931,0.0,0.0,0.0,0.0,0.0,0.0,0.0,-4.0994,-4.1104,-4.1169,-4.1112,-4.1085,-4.1066,-4.0997,-4.1059,-4.1065,-4.0994,-4.1053,-4.1054,-4.0986,-4.089,0.0,0.0,0.0,0.0,0.0,0.0,0.0,0.0,0.0,0.0,0.0,0.0,0.0,0.0,0.0,0.0,0.0,0.0,0.0,0.0,0.0,0.0,0.0,0.0,0.0,0.0,0.0,0.0,0.0,-3.8035,-3.8309,-3.8358,-3.8718,-3.8995,0.0,0.0,0.0,0.0,0.0,0.0,0.0,0.0,0.0,-4.0564,-4.092,-4.1379,-4.1929,-4.2281,-4.2473,-4.2509,-4.2509,-4.2705,-4.3073,-4.3075,-4.3067,-4.3067,-4.3046,-4.2393,-4.1283,-4.0351,-3.9948,-3.9905,0.0,0.0,0.0,0.0,-3.9669,-3.9643,-3.958,-3.9567,-3.9547,-3.9369,0.0,0.0,0.0,0.0,0.0,0.0,0.0,0.0,0.0,0.0,-4.0797,-4.0797,-4.082,-4.0992,-4.1476,-4.1603,-4.1515,0.0,-4.1094,-4.1244,-4.1704,0.0,0.0,0.0,0.0,-4.2527,-4.2527,-4.2576,-4.2597,-4.2555,-4.2125,-4.1829,-4.1798,-4.1397,-4.113,-4.1054,-4.1074,-4.1091,-4.1053,-4.1054,-4.0873,0.0,0.0,0.0,0.0,0.0,0.0,0.0,0.0,0.0,0.0,0.0,0.0,0.0,0.0,0.0,0.0,0.0,0.0,0.0,0.0,0.0,0.0,0.0,0.0,0.0,0.0,0.0,0.0,-3.8775,-3.8957,-3.9017,-3.9495,-3.9858,0.0,0.0,0.0,0.0,0.0,0.0,-4.1494,-4.1528,-4.1848,-4.2509,-4.2513,-4.2848,-4.3568,-4.3525,-4.3536,-4.3569,-4.3569,-4.3689,-4.3884,-4.3884,-4.3884,-4.3884,-4.3884,-4.3767,-4.3475,-4.224,-4.168,-4.163,-4.1573,-4.1504,-4.146,-4.1454,-4.1416,-4.1383,-4.1356,-4.1309,-4.1219,-4.1056,-4.1115,-4.1227,-4.1069,0.0,0.0,0.0,0.0,-4.1429,-4.1429,-4.1429,-4.1429,-4.1429,-4.1429,-4.1615,-4.2277,-4.2412,-4.2298,0.0,-4.1732,-4.1953,-4.2616,0.0,0.0,0.0,0.0,-4.369,-4.369,-4.3691,-4.3691,-4.3691,-4.3125,-4.2734,-4.2734,-4.1973,-4.1484,-4.1443,-4.1227,-4.1107,-4.1099,-4.1091,-4.1094,-4.1094,0.0,0.0,0.0,0.0,0.0,0.0,0.0,0.0,0.0,0.0,0.0,0.0,0.0,0.0,0.0,0.0,0.0,0.0,0.0,0.0,0.0,0.0,0.0,0.0,0.0,0.0,0.0,0.0,0.0,-4.0674,-4.0706,0.0,0.0,0.0,0.0,-4.2123,-4.2909,-4.3373,-4.3357,-4.3305,-4.3316,-4.3424,-4.3368,-4.3394,-4.3505,-4.3505,-4.35,-4.3505,-4.3505,-4.3918,-4.4642,-4.4642,-4.4642,-4.4642,-4.4642,-4.4215,-4.351,-4.3402,-4.3385,-4.3372,-4.3289,-4.3263,-4.3251,-4.3189,-4.3093,-4.298,-4.2844,-4.2661,-4.2484,-4.2351,-4.2398,-4.2504,-4.2494,-4.2726,0.0,0.0,-4.3079,-4.3169,-4.3169,-4.3169,-4.3169,-4.3169,-4.3169,-4.3189,-4.3234,-4.3288,-4.3363,0.0,-4.3469,-4.3519,-4.3613,0.0,-4.3652,-4.3691,-4.3691,-4.3691,-4.3691,-4.3691,-4.3691,-4.3691,-4.3652,-4.3633,-4.3633,-4.2831,-4.2342,-4.2322,-4.1554,-4.1099,-4.1098,-4.1094,-4.1103,-4.1094,-4.1094,0.0,0.0,0.0,0.0,0.0,0.0,0.0,0.0,0.0,0.0,0.0,0.0,0.0,0.0,0.0,0.0,0.0,0.0,0.0,0.0,0.0,0.0,0.0,0.0,0.0,0.0,0.0,0.0,-4.1632,-4.2098,0.0,-4.25,-4.2737,-4.2889,-4.2909,-4.3206,-4.3375,-4.3375,-4.3354,-4.3846,-4.4955,-4.4951,-4.5519,-4.6705,-4.6725,-4.6742,-4.6782,-4.6782,-4.6937,-4.7215,-4.7215,-4.7215,-4.7215,-4.7215,-4.6729,-4.5928,-4.5892,-4.4916,-4.3435,-4.341,-4.3375,-4.3337,-4.3311,-4.3278,-4.3217,-4.318,-4.3115,-4.3033,-4.2887,-4.2747,-4.2628,-4.2699,-4.2823,-4.294,-4.3052,-4.3135,-4.3188,-4.3285,-4.3305,-4.3305,-4.3305,-4.3305,-4.346,-4.402,-4.417,-4.4372,-4.5023,-4.4301,-4.3783,-4.4361,-4.4509,-4.4726,-4.5293,-4.5371,-4.5371,-4.5371,-4.5371,-4.5371,-4.5371,-4.4863,-4.4531,-4.453,-4.3749,-4.3238,-4.3233,-4.2429,-4.1936,-4.1932,-4.1402,-4.1094,-4.1103,-4.1099,-4.1089,0.0,0.0,0.0,0.0,0.0,0.0,0.0,0.0,0.0,0.0,0.0,0.0,0.0,0.0,0.0,0.0,0.0,0.0,0.0,0.0,0.0,0.0,0.0,0.0,0.0,0.0,-4.2466,-4.2505,-4.2988,-4.3318,-4.3358,-4.3582,-4.375,-4.375,-4.4253,-4.4581,-4.4581,-4.4852,-4.5529,-4.6631,-4.667,-4.726,-4.8443,-4.8463,-4.8483,-4.8528,-4.8528,-4.8528,-4.8528,-4.8528,-4.8528,-4.8528,-4.8528,-4.8199,-4.7675,-4.7611,-4.6603,-4.5028,-4.4434,-4.4176,-4.4136,-4.4136,-4.4088,-4.3987,-4.3871,-4.3838,-4.382,-4.3741,-4.3558,-4.3412,-4.3568,-4.3647,-4.3703,-4.3891,-4.3983,-4.4037,-4.4116,-4.4136,-4.4136,-4.4136,-4.4136,-4.4291,-4.4871,-4.5007,-4.5189,-4.5807,-4.5105,-4.4593,-4.5199,-4.5354,-4.5602,-4.6188,-4.6288,-4.6308,-4.6308,-4.6308,-4.6308,-4.6308,-4.578,-4.5448,-4.5446,-4.4644,-4.4133,-4.4145,-4.3322,-4.2831,-4.2845,-4.2279,-4.1988,-4.1988,-4.1681,-4.1397,-4.1106,0.0,0.0,0.0,0.0,0.0,0.0,0.0,0.0,0.0,0.0,0.0,0.0,0.0,0.0,0.0,0.0,0.0,0.0,0.0,0.0,0.0,0.0,0.0,-4.3305,-4.3324,-4.3343,-4.3343,-4.3363,-4.3382,-4.3421,-4.4175,-4.469,-4.471,-4.6225,-4.7134,-4.7134,-4.7947,-4.8411,-4.843,-4.843,-4.845,-4.8488,-4.8488,-4.8488,-4.8488,-4.8488,-4.8488,-4.8488,-4.8488,-4.8488,-4.8488,-4.8488,-4.8469,-4.843,-4.843,-4.8411,-4.8237,-4.6542,-4.5858,-4.5838,-4.5838,-4.5648,-4.5342,-4.5019,-4.4907,-4.4907,-4.4907,-4.4914,-4.4931,-4.5136,-4.529,-4.541,-4.5554,-4.5685,-4.58,-4.58,-4.58,-4.58,-4.58,-4.58,-4.58,-4.58,-4.58,-4.58,-4.58,-4.5892,-4.6008,-4.6084,-4.615,-4.6181,-4.6181,-4.6244,0.0,-4.6287,-4.6306,-4.6306,-4.6302,-4.6301,-4.6301,-4.6301,-4.5535,-4.5043,-4.5042,-4.4216,-4.3744,-4.3744,-4.3705,-4.3684,-4.3665,-4.2807,-4.1935,-4.1093,0.0,0.0,0.0,0.0,0.0,0.0,0.0,0.0,0.0,0.0,0.0,0.0,0.0,0.0,0.0,0.0,0.0,0.0,0.0,0.0,0.0,0.0,-4.402,-4.3401,-4.3846,-4.4246,-4.4246,-4.4755,-4.5355,-4.5993,-4.6264,-4.667,-4.7308,-4.7773,-4.8043,-4.8043,-4.8275,-4.8682,-4.932,-4.9339,-4.9629,-5.0202,-5.0202,-5.0202,-5.0202,-5.0202,-5.0202,-5.0202,-5.0202,-5.0202,-5.0202,-5.0202,-4.9881,-4.9339,-4.9339,-4.8972,-4.8353,-4.7869,-4.7237,-4.6598,-4.6598,-4.6084,-4.539,-4.5282,-4.5186,-4.5125,-4.5125,-4.5014,-4.4907,-4.4974,-4.5106,-4.5279,-4.5429,-4.5547,-4.5687,-4.5761,-4.5803,-4.5795,-4.5746,-4.5761,-4.5795,-4.5746,-4.5719,-4.5719,-4.5719,-4.5757,-4.5822,-4.5933,-4.6017,-4.6047,-4.5994,-4.6089,0.0,-4.6154,-4.6235,-4.6303,-4.6301,-4.6305,-4.6304,-4.6296,-4.6084,-4.5945,-4.5934,-4.5111,-4.4641,-4.4641,-4.4036,-4.3406,-4.2765,-4.1909,-4.1349,0.0,0.0,0.0,0.0,0.0,0.0,0.0,0.0,0.0,0.0,0.0,0.0,0.0,0.0,0.0,0.0,0.0,0.0,0.0,0.0,0.0,0.0,-4.5104,-4.5045,-4.491,-4.5007,-4.5239,-4.5606,-4.6051,-4.6689,-4.756,-4.7637,-4.785,-4.8353,-4.874,-4.8933,-4.8933,-4.9262,-4.9687,-5.019,-5.0202,-5.0434,-5.0898,-5.0898,-5.0898,-5.0898,-5.0898,-5.0898,-5.0898,-5.0898,-5.0898,-5.0898,-5.0898,-5.0627,-5.0202,-5.0202,-4.9869,0.0,0.0,0.0,0.0,0.0,-4.6685,-4.5807,-4.5753,-4.5456,-4.5061,-4.5061,-4.501,-4.4926,-4.4991,-4.5114,-4.5246,-4.5438,-4.5538,-4.5635,-4.5761,-4.5791,-4.5783,-4.5739,-4.5773,-4.5773,-4.5715,-4.5708,-4.5708,-4.5708,-4.5708,0.0,-4.5794,-4.5875,-4.5896,-4.5857,-4.5939,-4.6027,-4.602,-4.6072,-4.616,-4.6212,-4.622,-4.6245,-4.6308,-4.6293,0.0,0.0,0.0,-4.5531,-4.5531,-4.5022,0.0,0.0,0.0,-4.1791,-4.11,0.0,0.0,0.0,-4.0855,-4.0827,0.0,0.0,0.0,0.0,0.0,0.0,0.0,0.0,0.0,0.0,0.0,0.0,0.0,0.0,0.0,0.0,-4.5884,-4.6213,-4.698,-4.6523,-4.6387,-4.7154,-4.725,-4.7579,-4.8469,-4.8546,-4.8585,-4.8682,-4.9397,-4.9842,-4.9842,0.0,0.0,0.0,0.0,-5.0898,-5.0898,-5.0898,-5.0898,-5.0898,-5.0898,-5.0898,-5.0898,-5.0898,-5.0898,-5.0898,-5.0898,-5.089,-5.0882,-5.0882,-5.078,-5.0509,-4.9024,-4.8466,-4.8414,-4.7991,-4.7286,-4.6508,-4.6379,0.0,0.0,-4.5047,-4.499,-4.4931,-4.5114,-4.5181,-4.5237,-4.5484,-4.5571,-4.5621,-4.5749,-4.5786,-4.5812,-4.5788,-4.5781,-4.5765,-4.5708,-4.5692,-4.5692,-4.5692,-4.5692,-4.5695,-4.5701,-4.5733,-4.5783,-4.5777,-4.5845,-4.5886,-4.5886,-4.5891,-4.5944,-4.6061,0.0,0.0,-4.6245,-4.6277,-4.63,-4.6273,-4.6286,-4.6284,-4.6284,-4.6136,-4.5353,-4.386,-4.3685,-4.2813,-4.1248,-4.1234,-4.1185,-4.1107,-4.1107,-4.1107,0.0,0.0,0.0,0.0,0.0,0.0,0.0,0.0,0.0,0.0,0.0,0.0,0.0,0.0,0.0,-4.5807,-4.6387,-4.6902,-4.7076,-4.756,-4.7966,-4.8121,-4.814,-4.8488,-4.9359,-4.9455,-4.9726,-5.0376,-5.0569,-5.0666,-5.0666,-5.0821,-5.0898,-5.0898,-5.0898,-5.0898,-5.0898,-5.0898,-5.0898,-5.0898,0.0,0.0,-5.0898,-5.0898,-5.0898,-5.0898,-5.0898,-5.0841,-5.0738,-5.0738,-5.0635,-5.035,-4.9248,-4.8802,-4.8704,-4.7817,-4.7371,-4.7201,-4.7182,-4.662,-4.5937,-4.5937,-4.5464,-4.4907,-4.4962,-4.5061,0.0,-4.5258,-4.5429,-4.5612,-4.5637,-4.5727,-4.5788,-4.5731,-4.5715,-4.5727,-4.5706,-4.5665,-4.562,-4.562,-4.562,-4.562,-4.5631,-4.5671,-4.5692,-4.566,-4.5733,-4.5829,-4.5815,-4.5869,-4.5915,-4.593,-4.6037,-4.6079,-4.5987,-4.6187,-4.6253,-4.6144,-4.6192,-4.6211,-4.6211,-4.5523,-4.4991,-4.4674,-4.3964,-4.3094,-4.2068,-4.2065,-4.1731,-4.1107,-4.1107,-4.1107,0.0,0.0,0.0,0.0,0.0,0.0,0.0,0.0,0.0,0.0,0.0,-4.5765,0.0,0.0,-4.594,-4.638,-4.6825,-4.7405,-4.8275,-4.8778,-4.9049,-4.9049,-4.9049,-4.9378,-5.0221,-5.0299,-5.0473,-5.0859,-5.0898,-5.0898,-5.0898,-5.0898,-5.0898,-5.0898,-5.0898,-5.0898,-5.0898,-5.0898,-5.0898,-5.0898,-5.0898,-5.0898,-5.0898,-5.0898,-5.0866,-5.0799,-5.0799,-5.07,-5.0537,-5.0474,-5.0637,-5.0803,-4.9802,-4.9466,-4.9501,-4.8985,-4.8485,-4.8054,-4.8054,-4.7491,-4.6733,-4.6316,-4.5899,-4.5464,-4.5028,-4.4967,-4.508,-4.517,-4.5298,-4.5419,-4.5575,-4.566,-4.5708,-4.5731,-4.5723,-4.5692,-4.569,-4.5648,-4.5594,-4.5594,-4.5594,-4.5594,-4.5594,-4.5631,-4.564,-4.5614,-4.5651,-4.5708,-4.5708,-4.5737,-4.5776,-4.5841,-4.5903,-4.5934,-4.5905,-4.6025,-4.6064,-4.6008,-4.6007,-4.5996,-4.5996,-4.5647,-4.5251,-4.4807,-4.4442,-4.3825,-4.2958,-4.251,-4.2081,-4.1692,-4.1283,-4.1107,0.0,0.0,0.0,0.0,0.0,0.0,0.0,0.0,-4.5722,-4.5723,-4.5712,-4.5796,-4.6008,-4.6047,-4.6351,-4.7212,-4.7482,-4.8101,-4.9494,-4.9842,-4.9939,-4.9939,-4.9939,-5.019,-5.084,-5.0898,-5.0898,-5.0898,-5.0898,-5.0898,-5.0898,-5.0898,-5.0898,-5.0898,-5.0898,-5.0898,-5.0898,-5.1072,-5.1149,-5.1149,-5.1323,-5.1296,-5.1117,-5.1117,-5.0945,-5.0635,-5.0606,-5.0593,-5.0588,-5.0441,-5.0869,-5.1504,-5.0516,-5.0252,-5.0367,-5.0196,-4.9638,-4.8926,-4.8926,-4.8376,-4.7548,-4.6904,-4.6468,-4.607,-4.5369,-4.5034,-4.4883,-4.5068,-4.5095,-4.5154,-4.5362,-4.5445,-4.5498,-4.5665,-4.5657,-4.5643,-4.5682,-4.5648,-4.5594,-4.5594,-4.5594,-4.5594,-4.5594,-4.5594,-4.5594,-4.5594,-4.5594,-4.5594,-4.5594,-4.5594,-4.5646,-4.5749,-4.5786,-4.5822,-4.5883,-4.5886,-4.5869,-4.5883,-4.5808,-4.577,-4.577,-4.5883,-4.5606,-4.4909,-4.4991,-4.4627,-4.3767,-4.3066,-4.2646,-4.2489,-4.1691,-4.1211,-4.5631,-4.5657,0.0,-4.5692,-4.57,-4.5727,0.0,0.0,-4.5788,-4.5786,-4.5793,-4.6025,-4.6798,-4.696,-4.725,-4.8101,-4.8894,-4.9475,-4.9668,-5.0318,-5.0763,-5.0763,-5.0763,-5.0801,-5.0898,-5.0898,-5.0898,-5.0898,-5.0898,-5.0898,-5.0898,-5.0898,-5.0898,-5.0898,-5.0898,-5.0898,-5.0898,-5.166,-5.2047,-5.2047,-5.284,-5.2743,-5.1885,-5.1885,-5.1356,-5.0425,-5.031,-5.0636,-5.1268,-5.1139,-5.1556,-5.2219,-5.1376,-5.1068,-5.0987,-5.0223,-4.9849,-4.9779,-4.9779,-4.9229,-4.8547,-4.8452,-4.7409,-4.6184,-4.607,-4.5432,-4.4738,-4.4764,-4.4758,-4.477,-4.4788,-4.4893,-4.5033,-4.5304,-4.5352,-4.54,-4.5648,-4.5648,-4.5594,-4.5594,-4.5594,-4.5594,-4.5594,-4.5594,-4.5594,-4.5594,-4.5594,-4.5594,-4.5594,-4.5594,-4.5603,-4.562,-4.5719,-4.5828,-4.5894,-4.5789,-4.5752,-4.5809,-4.5757,-4.5717,-4.5717,-4.5724,-4.5692,-4.5583,-4.5596,-4.5209,-4.4408,-4.4292,-4.3928,-4.3253,-4.2388,-4.1676,-4.5662,0.0,0.0,0.0,-4.5758,-4.5765,-4.5781,-4.5807,-4.5795,-4.58,-4.6194,-4.6663,-4.7028,-4.7506,-4.8125,0.0,-4.9397,-4.9846,-5.0281,-5.0662,-5.089,-5.0905,-5.0909,-5.0898,-5.0898,-5.0898,-5.0898,-5.0898,-5.0898,-5.0898,-5.0898,-5.0898,-5.113,-5.1641,-5.166,-5.1892,-5.2414,-5.2763,-5.2956,-5.2956,-5.32,-5.3108,-5.2676,-5.2086,-5.1259,-5.0275,-5.0114,-5.07,-5.1774,-5.1239,-5.1722,-5.2724,-5.1914,-5.1292,-5.076,-5.0052,-4.9774,-4.9759,-4.9655,-4.9476,-4.9192,-4.8603,-4.7989,-4.727,-4.6232,-4.5617,-4.5166,-4.4729,-4.4587,-4.4589,-4.4682,-4.4732,-4.4834,-4.5031,-4.5194,-4.5332,-4.5438,-4.555,-4.5594,-4.5594,-4.5594,-4.5594,-4.5594,-4.5594,-4.5594,-4.5594,-4.5594,-4.5594,-4.5594,-4.5594,-4.5586,-4.555,-4.5582,-4.5621,-4.5607,-4.5563,-4.5537,-4.5577,-4.5535,-4.5528,-4.5528,-4.5566,-4.5587,-4.5587,-4.566,-4.5529,-4.52,-4.4729,-4.4337,-4.402,-4.3142,-4.2584,-4.5687,0.0,0.0,-4.5765,-4.5788,-4.5803,-4.5807,-4.5807,-4.5795,-4.5805,-4.6281,-4.6866,-4.7349,-4.7952,-4.8705,-4.9702,-4.9937,-5.0193,-5.0713,-5.0833,-5.0877,-5.0872,-5.0869,-5.0866,-5.0866,-5.089,-5.0898,-5.0898,-5.0898,-5.0995,-5.1254,-5.1254,-5.166,-5.2539,-5.2558,-5.2859,-5.3478,-5.373,-5.3865,-5.3865,-5.3935,-5.3793,-5.3433,-5.2089,-5.104,-5.029,-4.9919,-5.0642,-5.1992,-5.1427,-5.2083,-5.3378,-5.2552,-5.171,-5.0863,-5.0149,-4.9777,-4.9585,-4.9446,-4.951,-4.9491,-4.8769,-4.8442,-4.8045,-4.6519,-4.5861,-4.5479,-4.4669,-4.4397,-4.4378,-4.449,-4.4511,-4.4546,-4.4719,-4.4905,-4.5074,-4.5159,-4.5332,-4.5495,-4.5495,-4.5559,-4.5594,-4.5594,-4.5594,-4.5594,-4.5594,-4.5594,-4.5594,-4.5594,-4.5577,-4.555,-4.5485,-4.5457,-4.5457,-4.541,-4.54,-4.54,-4.5361,-4.537,-4.5359,-4.5359,-4.5419,-4.5437,-4.5437,-4.5549,-4.5595,-4.5595,-4.5009,-4.4743,-4.4742,-4.3885,-4.352,0.0,0.0,-4.5708,-4.5708,-4.5749,-4.5793,-4.5795,-4.5807,-4.5807,-4.5807,-4.5777,-4.6267,-4.7946,-4.8293,-4.8833,-5.0493,-5.0763,-5.0763,-5.0801,-5.0801,-5.0801,-5.0801,-5.0801,-5.0801,0.0,-5.0858,-5.0898,-5.0898,-5.0898,-5.1273,-5.2132,-5.2171,-5.2558,-5.342,-5.3459,-5.3459,-5.3498,-5.4329,-5.4755,-5.4774,-5.5539,-5.5297,-5.4104,-5.1915,-5.0802,-5.0541,-4.9753,-5.0353,-5.1893,-5.1874,-5.285,-5.4277,-5.3397,-5.2571,-5.1729,-5.0757,-4.9966,-4.9415,-4.9415,-4.9415,-4.9396,-4.9362,-4.8836,-4.8048,-4.7203,-4.6289,-4.5346,-4.4524,-4.4162,-4.402,-4.4036,-4.4036,-4.4094,-4.436,-4.4411,-4.4493,-4.4751,-4.503,-4.5211,-4.5211,-4.5419,-4.5594,-4.5594,-4.5594,-4.5594,-4.5594,-4.5594,-4.5594,-4.5594,-4.5531,-4.5485,-4.541,-4.541,-4.541,-4.5389,-4.5408,-4.5369,-4.5307,-4.5307,-4.5307,-4.5307,-4.5288,-4.5317,-4.5317,-4.5317,-4.5298,-4.5298,-4.5279,-4.5333,-4.5441,-4.4586,-4.4264,0.0,0.0,-4.6508,-4.656,-4.7008,-4.7314,-4.6727,-4.6603,-4.6429,-4.5839,-4.6179,-4.6733,-4.7259,-4.8326,-4.9271,-4.9787,-5.0391,-5.0775,-5.073,-5.0776,-5.0784,-5.0729,-5.0775,0.0,0.0,0.0,0.0,-5.0825,-5.1376,-5.182,-5.2129,-5.2631,-5.3326,-5.4195,-5.4234,-5.4504,-5.5083,-5.5373,-5.5527,-5.5527,-5.5448,-5.4728,-5.3448,-5.2689,-5.2019,-5.1448,-5.1166,-5.1605,-5.2515,-5.2515,-5.3082,-5.3981,-5.3683,-5.3068,-5.2267,-5.1393,-5.0537,-4.9787,-4.9247,-4.9162,-4.9244,-4.911,-4.8975,-4.8683,-4.7748,-4.6866,-4.6015,-4.5196,-4.4498,-4.4005,-4.4005,-4.4005,-4.4017,-4.4106,-4.4279,-4.4411,-4.4506,-4.4751,-4.4919,-4.4919,-4.514,-4.5292,-4.5096,-4.5222,-4.5263,-4.5096,-4.5362,-4.5594,-4.5594,-4.5531,-4.5466,-4.541,-4.539,-4.537,-4.5338,-4.5328,-4.5317,-4.5307,-4.5307,-4.5307,-4.5307,-4.5307,-4.5307,-4.5307,-4.5307,-4.5307,-4.5307,-4.5307,-4.5319,-4.5351,-4.5083,-4.4959,-4.6033,-4.6504,-4.6975,-4.7319,-4.7615,-4.7678,-4.7103,-4.6728,-4.637,-4.5819,-4.613,-4.6576,-4.6842,-4.7812,-4.8756,-4.9307,-4.9912,-5.0402,-5.0664,-5.075,-5.0758,-5.0721,-5.0749,-5.0767,0.0,0.0,0.0,-5.1236,-5.1776,-5.2365,-5.2963,-5.3484,-5.4159,-5.5046,-5.5066,-5.5287,-5.5726,-5.5726,-5.5665,-5.5538,-5.5128,-5.4436,-5.356,-5.3178,-5.2699,-5.2125,-5.1845,-5.2094,-5.2733,-5.2733,-5.3163,-5.3813,-5.3813,-5.3311,-5.2512,-5.1695,-5.0859,-4.9986,-4.9187,-4.8978,-4.9062,-4.8943,-4.8995,-4.8913,-4.7977,-4.7144,-4.6327,-4.5528,-4.4674,-4.4005,-4.4005,-4.4005,-4.4005,-4.4005,-4.4136,-4.4265,-4.4265,-4.4484,-4.465,-4.465,-4.4872,-4.5007,-4.4825,-4.4931,-4.4996,-4.4788,-4.5063,-4.5312,-4.541,-4.5381,-4.537,-4.539,-4.5389,-4.5338,-4.5307,-4.5307,-4.5307,-4.5307,-4.5307,-4.5307,-4.5307,-4.5307,-4.5307,-4.5307,-4.5307,-4.5307,-4.5307,-4.5307,-4.5307,-4.5307,-4.5307,-4.5307,-4.6682,-4.6959,-4.7208,-4.798,-4.7649,-4.7083,-4.6983,-4.6348,-4.575,-4.5693,-4.564,-4.5845,0.0,0.0,-4.7432,-4.9009,-4.9336,-4.9683,-5.0519,-5.0673,-5.0683,0.0,0.0,0.0,0.0,0.0,0.0,-5.2086,0.0,-5.2858,-5.4497,-5.4622,-5.5008,-5.5837,-5.5846,-5.5675,-5.5373,-5.5373,-5.5199,-5.4862,-5.4682,-5.45,-5.4343,-5.3373,-5.2844,-5.2624,-5.1844,-5.1955,-5.2661,-5.2661,-5.3107,-5.3813,-5.3813,-5.333,-5.2568,-5.1769,-5.0915,-5.006,-4.9243,-4.8927,-4.8909,-4.8909,-4.8909,-4.876,-4.7999,-4.7163,-4.6345,-4.5565,-4.4692,-4.4005,-4.4005,-4.4005,-4.4005,-4.4005,-4.4005,-4.4005,-4.4005,-4.4192,-4.4388,-4.4388,-4.4572,-4.4751,-4.4763,-4.4751,-4.4733,-4.465,-4.465,-4.4751,-4.5041,-4.5057,-4.5129,-4.5338,-4.5288,-4.5246,-4.5246,-4.5275,-4.5267,-4.5267,-4.5297,-4.5307,-4.5307,-4.5307,-4.5307,-4.5307,-4.5307,-4.5307,-4.5307,-4.5307,-4.5307,-4.5307,-4.5307,-4.5307,-4.6827,-4.7807,-4.8817,-4.9009,-4.8932,-4.8614,-4.7951,-4.7181,-4.6411,-4.5766,-4.5603,-4.5671,0.0,0.0,0.0,-4.7471,-4.8586,0.0,-4.9702,-5.0289,0.0,0.0,0.0,-5.0604,-5.0358,-5.1101,0.0,0.0,-5.2916,-5.3397,-5.4475,-5.4909,-5.5219,-5.5449,-5.5198,-5.5031,-5.4962,-5.4962,-5.4783,-5.4458,-5.4411,-5.4228,-5.3944,-5.3702,-5.3535,-5.3478,-5.3292,-5.3311,-5.3497,-5.3497,-5.3608,-5.3813,-5.3813,-5.3683,-5.3404,-5.2587,-5.1769,-5.0952,-5.0098,-4.941,-4.8909,-4.8909,-4.8909,-4.8872,-4.8667,-4.7608,-4.6457,-4.6252,-4.5138,-4.4005,-4.4005,-4.4005,-4.4005,-4.4005,-4.4005,-4.4005,-4.4005,-4.4048,-4.4094,-4.4033,-4.4033,-4.4124,-4.4322,-4.4196,-4.4051,-4.4036,-4.4036,-4.421,-4.4676,-4.4676,-4.4669,-4.4733,-4.4669,-4.463,-4.463,-4.4807,-4.4934,-4.4934,-4.5162,-4.5307,-4.5307,-4.5307,-4.5307,-4.5307,-4.5307,-4.5307,-4.5307,-4.5307,-4.5307,-4.5307,-4.5307,-4.5307,-4.7336,-4.8394,-4.9394,-4.9394,-4.9106,-4.8606,-4.7778,-4.6932,-4.6182,-4.571,-4.5893,0.0,0.0,0.0,0.0,0.0,0.0,0.0,-4.9298,-4.972,-5.007,0.0,-5.0462,0.0,-5.0218,-5.1124,-5.202,0.0,-5.3273,-5.3935,-5.4799,-5.4995,-5.5083,-5.5083,-5.4895,-5.4731,-5.4576,-5.443,-5.4264,-5.4089,-5.4089,-5.3981,-5.3813,-5.3813,-5.3813,-5.3813,0.0,-5.3813,-5.3813,-5.3813,-5.3813,-5.3813,-5.3813,-5.3813,-5.3701,-5.2902,-5.2085,-5.1286,-5.0395,-4.9577,-4.8909,-4.8909,-4.8909,-4.8909,-4.8909,-4.8017,-4.694,-4.6605,-4.5565,-4.4488,-4.4098,-4.3974,-4.3961,-4.3961,-4.3929,-4.3913,-4.3913,-4.3913,-4.3897,-4.3867,-4.3837,-4.3851,-4.4005,-4.3897,-4.3788,-4.3719,-4.3719,-4.3814,-4.408,-4.4227,-4.4374,-4.4493,-4.4438,-4.4397,-4.4397,-4.4533,-4.4624,-4.4624,-4.4795,-4.4917,-4.4917,-4.4917,-4.4917,-4.4917,-4.4917,-4.4965,-4.5087,-4.5087,-4.5162,-4.5307,-4.5307,-4.5286,-4.7913,-4.8817,-4.9529,-4.9433,-4.874,-4.7894,-4.7077,-4.622,-4.5633,-4.5748,0.0,-4.6923,-4.7038,0.0,-4.725,-4.7836,0.0,-4.7567,-4.9029,-4.9107,-4.9414,-5.0508,-5.0369,-5.0183,-5.0159,-5.0973,-5.1726,-5.2257,-5.3272,-5.4281,-5.5179,-5.4909,-5.4716,-5.467,-5.467,-5.4528,-5.4246,-5.3944,-5.3813,-5.3813,-5.3813,-5.3813,-5.3813,-5.3813,-5.3813,-5.3813,-5.3813,-5.3813,-5.3813,-5.3813,-5.3813,-5.3813,-5.3813,-5.3813,-5.372,-5.3032,-5.2178,-5.1286,-5.0525,-4.967,-4.8909,-4.8909,-4.8909,-4.8909,-4.8909,-4.8316,-4.7517,-4.67,-4.5902,-4.505,-4.4196,-4.3929,-4.3899,-4.3899,-4.3835,-4.3804,-4.3804,-4.3788,-4.3769,-4.3769,-4.3771,-4.3771,-4.3771,-4.3771,-4.3719,-4.3599,-4.3582,-4.3565,-4.3515,-4.3812,-4.4102,-4.4341,-4.4313,-4.427,-4.427,-4.4332,-4.4346,-4.4346,-4.4388,-4.4397,-4.4397,-4.4397,-4.4397,-4.4397,-4.4397,-4.4506,-4.4739,-4.4739,-4.4898,-4.5173,-4.5173,-4.514,-4.8067,-4.926,-5.0308,-4.9586,-4.874,-4.7894,-4.7077,-4.622,0.0,0.0,0.0,-4.7096,-4.7778,-4.7894,0.0,-4.7192,0.0,0.0,0.0,0.0,-4.9308,0.0,0.0,0.0,0.0,0.0,0.0,0.0,0.0,-5.3739,-5.4828,-5.4576,-5.4264,-5.3981,-5.3981,-5.3944,-5.3889,-5.3832,-5.3813,-5.3813,-5.3813,-5.3813,-5.3813,-5.3813,-5.3813,-5.3813,-5.3813,0.0,-5.3813,-5.3813,-5.3813,-5.3813,-5.3813,-5.3813,-5.3775,-5.3645,-5.2661,-5.1379,-5.1231,-5.019,-4.8909,-4.8909,-4.8909,-4.8909,-4.8909,-4.83,-4.7451,-4.6581,-4.5716,-4.487,-4.4056,-4.3837,-4.382,-4.382,-4.3804,-4.3804,-4.3804,-4.3719,-4.3615,-4.3615,-4.36,-4.3549,-4.3549,-4.3549,-4.3549,-4.3513,-4.3532,-4.3496,-4.3515,-4.3565,-4.3614,-4.3681,-4.3646,-4.3664,-4.3664,-4.3923,-4.4079,-4.4079,-4.4294,-4.4397,-4.4397,-4.4397,-4.4397,-4.4397,-4.4397,-4.4411,-4.4465,-4.4465,-4.4493,-4.4565,-4.4565,-4.4552,-4.749,-4.8394,-4.9144,-4.8317,-4.7778,-4.7259,-4.6413,0.0,0.0,0.0,-4.7127,-4.7566,-4.8409,0.0,0.0,0.0,0.0,0.0,0.0,0.0,0.0,0.0,0.0,0.0,0.0,0.0,0.0,0.0,0.0,-5.3351,-5.449,-5.4212,-5.3963,-5.3813,-5.3813,-5.3813,-5.3813,-5.3813,-5.3813,-5.3813,-5.3813,-5.3813,-5.3813,-5.3813,-5.3813,-5.3813,-5.3813,-5.3813,-5.3813,-5.3813,-5.3813,-5.3813,-5.3813,-5.3774,-5.3735,-5.3735,-5.2696,-5.125,-5.125,-5.0157,-4.875,-4.875,-4.8785,-4.8839,-4.8767,-4.8455,-4.7846,-4.6607,-4.5944,-4.5337,-4.4118,-4.3736,-4.3703,-4.3703,-4.3669,-4.3634,-4.3634,-4.3583,-4.3566,-4.3566,-4.3513,-4.3515,-4.3515,-4.3515,-4.3515,-4.3515,-4.3515,-4.3515,-4.3515,-4.3515,-4.3515,-4.3515,-4.3515,-4.3515,-4.3515,-4.3649,-4.3749,-4.3749,-4.3857,-4.3934,-4.3934,-4.3934,-4.3934,-4.3934,-4.3934,-4.4026,-4.4192,-4.4192,-4.4246,-4.4397,-4.4397,-4.4369,-4.6904,-4.749,-4.7913,-4.7096,-4.6904,-4.6682,-4.5806,-4.5594,0.0,0.0,-4.742,-4.7995,-4.8998,0.0,0.0,0.0,0.0,0.0,0.0,0.0,0.0,0.0,0.0,0.0,0.0,0.0,0.0,0.0,0.0,0.0,-5.4139,-5.3944,-5.3813,-5.3813,-5.3813,-5.3813,-5.3813,-5.3813,-5.3813,-5.3813,-5.3813,-5.3813,-5.3813,-5.3813,-5.3813,-5.3813,-5.3813,-5.3813,-5.3813,-5.3813,-5.3813,-5.3813,-5.3813,-5.3754,-5.3695,-5.3491,-5.2432,-5.108,-5.0895,-4.9843,-4.8587,-4.8569,-4.866,-4.8732,-4.8642,-4.8587,-4.8255,-4.663,-4.617,-4.5765,-4.416,-4.3669,-4.3582,-4.3582,-4.3531,-4.3515,-4.3515,-4.3515,-4.3515,-4.3515,-4.3515,-4.3515,-4.3515,-4.3515,-4.3515,-4.3515,-4.3515,-4.3515,-4.3515,-4.3515,-4.3515,-4.3515,-4.3515,-4.3515,-4.3515,-4.3515,-4.3515,-4.3515,-4.3515,-4.3515,-4.3515,-4.3515,-4.3515,-4.3515,-4.3515,-4.3632,-4.3894,-4.3878,-4.3968,-4.4188,-4.4154,-4.411,-4.6904,-4.749,-4.7913,-4.7096,-4.6904,-4.6682,-4.5806,0.0,0.0,-4.7348,-4.7665,-4.8121,-4.9485,-4.973,-4.9483,0.0,0.0,0.0,0.0,0.0,0.0,0.0,0.0,0.0,0.0,0.0,0.0,0.0,0.0,0.0,-5.3795,-5.3832,-5.3813,-5.3813,-5.3813,-5.3813,-5.3813,-5.3813,-5.3813,-5.3813,-5.3813,-5.3813,-5.3813,-5.3813,-5.3813,-5.3813,-5.3813,-5.3813,0.0,-5.3813,-5.3813,-5.3813,-5.3813,-5.3754,-5.3602,-5.2806,-5.1915,-5.1006,-5.0268,-4.94,-4.8587,-4.8532,-4.855,-4.8624,-4.8605,-4.8569,-4.8163,-4.6561,-4.6011,-4.5571,-4.3954,-4.3532,-4.3515,-4.3515,-4.3496,-4.3515,-4.3515,-4.3515,-4.3515,-4.3515,-4.3515,-4.3515,-4.3515,-4.3515,-4.3515,-4.3515,-4.3515,-4.3515,-4.3515,-4.3515,-4.3515,-4.3515,-4.3515,-4.3515,-4.3515,-4.3515,-4.3515,-4.3515,-4.3515,-4.3515,-4.3515,-4.3515,-4.3515,-4.3515,-4.3515,-4.3532,-4.3566,-4.3481,-4.3464,-4.348,-4.3375,-4.3303,-4.6124,-4.6355,-4.6509,-4.6201,-4.6124,-4.5982,-4.5477,0.0,0.0,-4.6553,-4.6986,-4.7529,-4.857,-4.9215,-4.9445,-4.9106,0.0,0.0,0.0,0.0,0.0,0.0,0.0,0.0,0.0,0.0,0.0,0.0,0.0,0.0,-5.2308,-5.3274,-5.3813,-5.3813,-5.3813,-5.3813,-5.3813,-5.3813,-5.3813,-5.3813,-5.3754,-5.3735,-5.3754,-5.3658,-5.3619,-5.3619,-5.3619,-5.3619,0.0,-5.3619,-5.3619,-5.3619,-5.3619,-5.3559,-5.3367,-5.2538,-5.1665,-5.0793,-5.0003,-4.9157,-4.8364,-4.8055,-4.7977,-4.8056,-4.8345,-4.821,-4.7687,-4.6361,-4.5938,-4.5535,-4.392,-4.3322,-4.3124,-4.3124,-4.292,-4.2865,-4.3392,-4.3304,-4.3214,-4.3444,-4.3515,-4.3515,-4.3515,-4.3515,-4.3515,-4.3515,-4.3515,-4.3515,-4.3515,-4.3515,-4.3515,-4.3515,-4.3515,-4.3515,-4.3515,-4.3515,-4.3515,-4.3515,-4.3515,-4.3515,-4.3515,-4.3515,-4.3515,-4.3515,-4.3515,-4.348,-4.3446,-4.3394,-4.3358,-4.3269,-4.3233,-4.3214,-4.5586,-4.5594,-4.5594,-4.5594,-4.5541,-4.541,0.0,0.0,-4.5201,-4.5792,-4.621,-4.6697,-4.7476,-4.8084,-4.8445,-4.8477,-4.7635,-4.683,0.0,0.0,0.0,0.0,0.0,0.0,0.0,0.0,0.0,0.0,0.0,0.0,-5.0971,-5.2289,-5.305,-5.3088,-5.333,-5.3422,-5.3384,-5.3644,-5.3755,-5.3716,-5.3657,-5.3636,-5.3636,-5.3539,-5.3499,-5.3499,-5.3499,-5.3499,0.0,-5.3499,-5.342,-5.3242,-5.3023,-5.2747,-5.2389,-5.135,-5.0553,-4.9883,-4.9081,-4.8407,-4.7816,-4.7506,-4.7313,-4.727,-4.7733,-4.7671,-4.7196,-4.6296,-4.5717,-4.5022,-4.3506,-4.2902,-4.2692,-4.2692,-4.2438,-4.236,-4.2977,-4.2902,-4.2769,-4.3069,-4.3105,-4.3105,-4.3105,-4.3105,-4.3105,-4.3105,-4.3105,-4.3105,-4.3105,-4.3105,-4.3105,-4.3105,-4.3105,-4.3232,-4.3479,-4.348,-4.3463,-4.3463,-4.3303,-4.3286,-4.3463,-4.3339,-4.3339,-4.3463,-4.3463,-4.3429,-4.334,-4.3323,-4.3251,-4.316,-4.3123,-4.3105,-4.5577,-4.5594,-4.5594,-4.5594,-4.5342,-4.5096,0.0,0.0,-4.4785,-4.5382,-4.5466,-4.564,-4.6378,-4.636,-4.6239,-4.6306,-4.6255,0.0,0.0,0.0,0.0,0.0,0.0,0.0,0.0,0.0,0.0,0.0,0.0,0.0,-5.0027,-5.0806,-5.1287,-5.1416,-5.2197,-5.2549,-5.2416,-5.3268,-5.3636,-5.3499,-5.3499,-5.3499,-5.3499,-5.3499,-5.3499,-5.3499,-5.3499,-5.3499,0.0,-5.3499,-5.3198,-5.2645,-5.1904,-5.1225,-5.0432,-4.8895,-4.8253,-4.8007,-4.7217,-4.6908,-4.6908,-4.6908,-4.6584,-4.6308,-4.6771,-4.6908,-4.6838,-4.6486,-4.5291,-4.3818,-4.2553,-4.2198,-4.2198,-4.2198,-4.2198,-4.2198,-4.2198,-4.2198,-4.2198,-4.2198,-4.2198,-4.2198,-4.2198,-4.2198,-4.2198,-4.2198,-4.2198,-4.2198,-4.2198,-4.2198,-4.2198,-4.2198,-4.2198,-4.2559,-4.3427,-4.3446,-4.3394,-4.3394,-4.2846,-4.2771,-4.3376,-4.2957,-4.292,-4.3394,-4.3394,-4.334,-4.3214,-4.3123,-4.3104,-4.3104,-4.2957,-4.2901,-4.4966,-4.4919,-4.4919,-4.4919,-4.4849,-4.4714,-4.4519,0.0,-4.434,-4.4336,-4.4761,-4.5191,-4.5438,-4.587,-4.6222,-4.6221,-4.5742,0.0,0.0,0.0,0.0,0.0,0.0,0.0,0.0,0.0,0.0,0.0,0.0,0.0,-4.903,-4.927,-4.9973,-5.1157,-5.1435,-5.1545,-5.1507,-5.1784,-5.1914,-5.1857,-5.1779,-5.1562,-5.124,-5.1155,-5.1113,-5.1092,-5.0768,-5.0812,-5.1092,-5.0768,-5.0543,-5.0345,-5.0117,-4.9911,-4.9597,-4.856,-4.8143,-4.799,-4.7176,-4.6908,-4.684,-4.6531,-4.6315,-4.6161,-4.5938,-4.6119,-4.6248,-4.5354,-4.4334,-4.3263,-4.2037,-4.1713,-4.1713,-4.1713,-4.1512,-4.1485,-4.2053,-4.1948,-4.1821,-4.2136,-4.2198,-4.2177,-4.2098,-4.2139,-4.2177,-4.2098,-4.2139,-4.2177,-4.2077,-4.2059,-4.2018,-4.1934,-4.2018,-4.2183,-4.2444,-4.2462,-4.2402,-4.2304,-4.2424,-4.2444,-4.2304,-4.2482,-4.2482,-4.2304,-4.2304,-4.2262,-4.2157,-4.2154,-4.2257,-4.2496,-4.2768,-4.2901,0.0,-4.4593,-4.4593,-4.4593,-4.4487,0.0,0.0,0.0,-4.3908,-4.3751,-4.409,-4.4458,-4.4526,-4.4898,-4.5196,-4.5212,-4.4772,0.0,0.0,0.0,0.0,0.0,0.0,0.0,0.0,0.0,0.0,0.0,0.0,0.0,-4.855,-4.855,-4.9011,-5.0006,-5.0433,-5.0618,-5.058,-5.0875,-5.1004,-5.0983,-5.069,-5.0407,-5.0115,-4.9852,-4.974,-4.9717,-4.9435,-4.9482,0.0,-4.9435,-4.9174,-4.8968,-4.8684,-4.8455,-4.8169,-4.7375,-4.7075,-4.7022,-4.6522,-4.6321,-4.6291,-4.5988,-4.5905,-4.5829,-4.5485,-4.5778,-4.5877,-4.4418,-4.3784,-4.3165,-4.1658,-4.1283,-4.126,-4.1214,-4.1018,-4.0971,-4.1529,-4.1356,-4.122,-4.1578,-4.1583,-4.1539,-4.1455,-4.1499,-4.1539,-4.1455,-4.1499,-4.1539,-4.1437,-4.1415,-4.1393,-4.1303,-4.137,-4.1415,-4.1348,-4.1721,-4.1909,-4.1764,-4.181,-4.1832,-4.1764,-4.1853,-4.1856,-4.1764,-4.1764,-4.1717,-4.1609,-4.1609,-4.1717,-4.1931,-4.2239,-4.2478,0.0,-4.4514,0.0,0.0,0.0,0.0,0.0,0.0,0.0,-4.3582,-4.3531,-4.3549,-4.3736,-4.3635,-4.3513,-4.3582,-4.3531,0.0,0.0,0.0,0.0,0.0,0.0,0.0,0.0,0.0,0.0,0.0,0.0,0.0,-4.8476,-4.8457,-4.8363,-4.8267,-4.9193,-4.9656,-4.9541,-5.0296,-5.0622,-5.0517,-5.001,-4.9756,-4.9693,-4.9279,-4.9085,0.0,-4.9037,-4.9043,-4.9085,-4.9037,-4.8721,-4.8214,-4.753,-4.6934,-4.6424,-4.5673,-4.5397,-4.5397,-4.5397,-4.5397,-4.5397,-4.5397,-4.5397,-4.5397,-4.5371,-4.5727,-4.5723,-4.3771,-4.3506,-4.3384,-4.1393,-4.0894,-4.0847,-4.0721,-4.0697,-4.0697,-4.0697,-4.06,-4.0558,-4.0673,-4.0583,-4.051,-4.0485,-4.0493,-4.051,-4.0485,-4.0493,-4.051,-4.0485,-4.0485,-4.0468,-4.0485,-4.0485,-4.0436,-4.0305,-4.1197,-4.1731,-4.1583,-4.1088,-4.1036,-4.1561,-4.1145,-4.1105,-4.1561,-4.16,-4.1539,-4.1393,-4.1437,-4.1437,-4.1459,-4.1481,-4.1721,-4.3728,0.0,-4.3758,-4.3758,-4.3695,0.0,0.0,0.0,0.0,0.0,0.0,0.0,0.0,-4.3532,-4.3515,-4.3513,-4.3515,0.0,0.0,0.0,0.0,0.0,0.0,0.0,0.0,0.0,0.0,0.0,0.0,-4.8363,-4.8363,-4.7995,-4.7795,-4.7775,-4.7644,-4.7774,-4.8088,-4.827,-4.8191,-4.7819,-4.7689,-4.7444,-4.7085,-4.6983,-4.6934,-4.691,-4.6504,-4.6555,-4.691,-4.6479,-4.6239,-4.6109,-4.5935,-4.5788,-4.5656,-4.5466,-4.5397,-4.5397,-4.5397,-4.5397,-4.5371,-4.5274,-4.5247,-4.522,-4.5113,-4.5327,-4.5252,-4.3646,-4.3289,-4.2999,-4.1315,-4.0817,-4.0745,-4.0697,-4.0697,-4.0673,-4.0558,-4.0583,-4.0648,-4.0558,-4.0534,-4.0461,-4.0362,-4.0436,-4.0461,-4.0362,-4.0436,-4.0461,-4.0362,-4.0355,-4.0313,-4.0196,-4.0288,-4.0288,-4.0163,-4.0468,-4.0621,-4.0483,-4.0683,-4.0707,-4.0483,-4.0707,-4.0713,-4.0483,-4.0483,-4.0458,-4.0434,-4.0802,-4.0972,-4.0972,-4.1326,-4.1547,-4.3515,-4.3515,-4.3515,-4.3515,-4.3515,-4.3515,0.0,0.0,0.0,0.0,0.0,0.0,0.0,0.0,0.0,0.0,0.0,0.0,0.0,0.0,0.0,0.0,0.0,0.0,0.0,0.0,0.0,0.0,0.0,-4.821,-4.7995,-4.7736,-4.7506,-4.7291,-4.7026,-4.7004,-4.727,-4.727,-4.7138,-4.6908,-4.6678,-4.6435,-4.6186,-4.5955,-4.5829,-4.5829,-4.5528,-4.5563,-4.5803,-4.5528,-4.5397,-4.5397,-4.5397,-4.5397,-4.5397,-4.5397,-4.5371,-4.53,-4.53,-4.5264,-4.5194,-4.514,-4.5113,-4.5086,-4.5005,-4.5086,-4.4885,-4.3383,-4.2971,-4.261,-4.1099,-4.0655,-4.0583,-4.0527,-4.0527,-4.0502,-4.0412,-4.0412,-4.0412,-4.0412,-4.0362,-4.0271,-4.0213,-4.0263,-4.0271,-4.0213,-4.0288,-4.0271,-4.0213,-4.0213,-4.0188,-4.0113,-4.0163,-4.0188,-4.0113,-4.0163,-4.0188,-4.0096,-4.0353,-4.0377,-4.0096,-4.0353,-4.0353,-4.0096,-4.0096,-4.0096,-4.0096,-4.0353,-4.0483,-4.0483,-4.0737,-4.0955,-4.3497,-4.3515,-4.3515,-4.3515,-4.3515,-4.3515,-4.3515,0.0,0.0,0.0,0.0,0.0,0.0,0.0,0.0,0.0,0.0,0.0,0.0,0.0,0.0,0.0,0.0,0.0,0.0,0.0,0.0,0.0,0.0,-4.7915,-4.7506,-4.7442,-4.7204,-4.6817,-4.6724,-4.6678,-4.6678,-4.6747,-4.6747,-4.6678,-4.6266,-4.6062,-4.6062,-4.5615,-4.5397,-4.5397,0.0,0.0,-4.5397,-4.5371,-4.5371,-4.5371,-4.5344,-4.5344,-4.5344,-4.5344,-4.5274,-4.515,-4.515,-4.5113,-4.5005,-4.4995,-4.4951,-4.4968,-4.4968,-4.4838,-4.4463,-4.3037,-4.2671,-4.2364,-4.0886,-4.0468,-4.0436,-4.033,-4.0305,-4.0288,-4.0263,-4.0188,-4.0163,-4.0238,-4.0188,-4.0096,-4.0096,-4.0096,-4.0096,-4.0096,-4.0096,-4.0096,-4.0096,-4.0096,-4.0096,-4.0096,-4.0096,-4.0096,-4.0096,-4.0096,-4.0096,-4.0096,-4.0096,-4.0096,-4.0096,-4.0096,-4.0096,-4.0096,-4.0096,-4.0096,-4.0096,-4.0096,-4.0096,-4.0096,-4.0096,-4.0303,-4.348,-4.3515,-4.3515,-4.3515,-4.3515,-4.3515,-4.3515,0.0,0.0,0.0,0.0,0.0,0.0,0.0,0.0,0.0,0.0,0.0,0.0,0.0,0.0,0.0,0.0,0.0,0.0,0.0,0.0,0.0,0.0,-4.7071,-4.7004,-4.6631,-4.6387,-4.6308,-4.5879,-4.5624,-4.5624,-4.6087,-4.6087,-4.5641,-4.5563,-4.5511,-4.5511,-4.545,-4.5397,-4.5397,0.0,-4.5397,-4.5397,-4.5274,-4.523,-4.522,-4.5113,-4.5059,-4.5059,-4.5059,-4.5059,-4.5032,-4.5032,-4.5005,-4.4978,-4.4886,-4.4831,-4.4803,-4.4709,-4.4196,-4.3457,-4.262,-4.2524,-4.2364,-4.0886,-4.0412,-4.033,-4.0288,-4.0305,-4.028,-4.0163,-4.0213,-4.0238,-4.0163,-4.0096,-4.0096,-4.0096,-4.0096,-4.0096,-4.0096,-4.0096,-4.0096,-4.0096,-4.0096,-4.0096,-4.0096,-4.0096,-4.0096,-4.0096,-4.0096,-4.0096,-4.0096,-4.0096,-4.0096,-4.0096,-4.0096,-4.0096,-4.0096,-4.0096,-4.0096,-4.0096,-4.0096,-4.0096,-4.0096,-4.0096,-4.0146,-4.3446,-4.3463,-4.3515,-4.3515,-4.3515,-4.3515,-4.3515,0.0,0.0,0.0,0.0,0.0,0.0,0.0,0.0,0.0,0.0,0.0,0.0,0.0,0.0,0.0,0.0,0.0,0.0,0.0,0.0,0.0,0.0,0.0,-4.6554,-4.6332,-4.6062,-4.5778,-4.5528,-4.5397,-4.5397,-4.5641,-4.5641,-4.5397,-4.5397,-4.5397,-4.5397,-4.5397,-4.5371,-4.53,0.0,-4.5247,-4.5184,-4.5113,-4.5086,-4.5086,-4.5032,-4.5005,-4.4978,-4.4913,-4.4886,-4.4886,-4.4803,-4.4776,-4.4776,-4.4709,-4.4682,-4.4682,-4.4626,-4.4045,-4.3267,-4.2506,-4.2104,-4.1639,-4.056,-4.0238,-4.0188,-4.0188,-4.0188,-4.0188,-4.0096,-4.0163,-4.0163,-4.0096,-4.0096,-4.0096,-4.0096,-4.0096,-4.0096,-4.0096,-3.9825,-3.9618,-3.9618,-3.9322,-3.9119,-3.9119,-3.9119,-3.9119,-3.9119,-3.9119,-3.9401,-4.0045,-4.0096,-4.0096,-4.0096,-4.0096,-4.0096,-4.0096,-4.0096,-4.0096,-4.0096,-4.0096,-4.0096,-4.0096,-4.0096,-4.0096,-4.3394,-4.3446,-4.348,-4.348,0.0,-4.3515,-4.3515,0.0,0.0,0.0,0.0,0.0,0.0,0.0,0.0,0.0,0.0,0.0,0.0,0.0,0.0,0.0,0.0,0.0,0.0,0.0,0.0,0.0,0.0,0.0,-4.6038,-4.6013,-4.5829,-4.5423,-4.5397,-4.5397,-4.5371,-4.5371,-4.5371,-4.5397,-4.5397,-4.5397,-4.5371,-4.5371,-4.5274,-4.515,-4.515,-4.5086,-4.5005,-4.4968,-4.4951,-4.4951,-4.4913,-4.4913,-4.4886,-4.4776,-4.4748,-4.4737,-4.4626,-4.4615,-4.4615,-4.4615,-4.4615,-4.4615,-4.4615,-4.391,-4.3031,-4.2455,-4.1548,-4.0643,-4.0197,-4.0096,-4.0096,-4.0096,-4.0096,-4.0096,-4.0096,-4.0096,-4.0045,-3.9918,-3.9893,-3.985,-3.9705,-3.9679,-3.9679,-3.9679,-3.9295,-3.9001,-3.9001,-3.8601,-3.8306,-3.8306,-3.8306,-3.8306,-3.8306,-3.8306,-3.8695,-3.9627,-3.9679,-3.9679,-3.9679,-3.9799,-3.9893,-3.9893,-3.9893,-3.9876,-3.9808,-3.9825,-3.9825,-3.9782,-3.9944,-4.0011,-4.3376,-4.3412,-4.3412,-4.3412,-4.3445,0.0,-4.3515,-4.3214,0.0,-4.3427,0.0,0.0,0.0,0.0,0.0,0.0,0.0,0.0,0.0,0.0,0.0,0.0,0.0,0.0,0.0,0.0,0.0,0.0,0.0,0.0,-4.5476,-4.545,-4.545,-4.5397,-4.5397,-4.5344,-4.522,-4.5203,-4.5274,-4.5397,-4.5397,-4.5327,-4.5203,-4.5203,-4.514,-4.5005,-4.5005,-4.5005,-4.4978,-4.4858,-4.4803,-4.4803,-4.4682,-4.4626,-4.4626,-4.4626,-4.4598,-4.4598,-4.4598,-4.4615,-4.4615,-4.4615,-4.4615,-4.4615,-4.4615,-4.3565,-4.2354,-4.2303,-4.0869,-3.9458,-3.9986,-4.0096,-4.0096,-4.0096,-4.0096,-4.0096,-4.0096,-4.0096,-3.9944,-3.9365,-3.9259,-3.9082,-3.8546,-3.8418,-3.8418,-3.8418,-3.839,-3.8362,-3.8362,-3.8351,-3.8306,-3.8306,-3.8306,-3.8306,-3.8306,-3.8306,-3.8334,-3.8418,-3.8418,-3.8418,-3.8418,-3.8974,-3.9259,-3.9259,-3.9259,-3.9172,-3.9005,-3.9038,-3.8984,-3.8799,-3.9444,-3.9729,-4.2768,-4.2863,-4.2939,-4.2846,-4.277,0.0,0.0,-4.2957,-4.2863,-4.2713,0.0,0.0,0.0,0.0,0.0,0.0,0.0,0.0,0.0,0.0,0.0,0.0,0.0,0.0,0.0,0.0,0.0,0.0,0.0,0.0,-4.5397,-4.5397,-4.5371,-4.5274,-4.5274,-4.5247,-4.5203,-4.5113,-4.514,-4.5274,-4.5194,-4.5113,-4.5086,-4.5086,-4.5005,-4.4886,-4.4886,-4.4831,-4.4765,-4.4709,-4.4682,-4.4682,-4.4626,-4.4615,-4.4615,-4.4615,-4.4615,-4.4615,-4.4615,-4.4615,-4.4615,-4.4615,-4.4615,-4.4513,-4.4012,-4.2852,-4.1638,-4.1186,-3.9896,-3.8876,-3.985,-3.9825,-3.9627,-4.002,-4.0096,-3.9995,-3.9601,-3.9523,-3.9365,-3.8767,-3.8629,-3.8574,-3.8334,-3.8306,-3.8306,-3.8306,-3.7982,-3.7738,-3.7738,-3.7415,-3.7193,-3.7193,-3.7193,-3.7193,-3.7193,-3.7193,-3.7193,-3.7193,-3.7895,-3.8306,-3.8306,-3.8518,-3.8629,-3.8629,-3.8629,-3.8557,-3.8342,-3.8358,-3.8302,-3.8149,-3.839,-3.8739,-4.2175,-4.2277,-4.236,0.0,0.0,0.0,-4.2139,-4.2279,-4.234,-4.216,0.0,0.0,0.0,0.0,0.0,0.0,0.0,0.0,0.0,0.0,0.0,0.0,0.0,0.0,0.0,0.0,0.0,0.0,0.0,0.0,0.0,-4.4941,-4.5009,-4.4913,-4.511,-4.5177,-4.514,-4.5005,-4.4951,-4.5005,-4.4913,-4.4913,-4.494,-4.494,-4.4858,-4.4737,-4.4737,-4.4682,-4.457,-4.4338,-4.4121,-4.3931,-4.3931,-4.3931,-4.396,-4.4179,-4.4236,-4.4236,-4.4236,-4.4236,-4.4207,-4.4018,-4.3931,-4.3781,-4.3029,-4.1996,-4.091,-4.0214,-3.9044,-3.8266,-3.9269,-3.9216,-3.9028,-3.9428,-3.9532,-3.9401,-3.9001,-3.892,-3.8739,-3.8124,-3.801,-3.7953,-3.7751,-3.7722,-3.7722,-3.7722,-3.7371,-3.7134,-3.7134,-3.6754,-3.6492,-3.6492,-3.6492,-3.6492,-3.6492,-3.6445,-3.6414,-3.6414,-3.7147,-3.7589,-3.7648,-3.7793,-3.7851,-3.7851,-3.7851,-3.7777,-3.7555,-3.7571,-3.7499,-3.7354,-3.7589,-3.7892,-4.1687,-4.1687,0.0,0.0,0.0,0.0,-4.1105,-4.1162,-4.1437,0.0,0.0,0.0,0.0,0.0,0.0,0.0,0.0,0.0,0.0,0.0,0.0,0.0,0.0,0.0,0.0,0.0,0.0,0.0,0.0,0.0,0.0,-4.3897,-4.4294,-4.4294,-4.4861,-4.5106,-4.5005,-4.4841,-4.472,-4.4615,-4.4615,-4.4682,-4.4803,-4.4803,-4.472,-4.4598,-4.4598,-4.4587,-4.4514,-4.381,-4.3106,-4.252,-4.252,-4.252,-4.2583,-4.3257,-4.3482,-4.3482,-4.3482,-4.3482,-4.3376,-4.2707,-4.252,-4.2375,-4.1693,-4.0966,-4.024,-3.9557,-3.8427,-3.7519,-3.8124,-3.8278,-3.8294,-3.8306,-3.8306,-3.8306,-3.8278,-3.8278,-3.8124,-3.7519,-3.7387,-3.7208,-3.66,-3.6492,-3.6492,-3.6492,-3.6492,-3.6492,-3.6492,-3.6492,-3.6492,-3.6492,-3.6492,-3.6492,-3.6492,-3.6305,-3.6196,-3.6196,-3.6053,-3.6068,-3.6196,-3.6631,-3.689,-3.689,-3.689,-3.6783,-3.6569,-3.6646,-3.6585,-3.6399,-3.7071,-3.7399,-4.1082,0.0,0.0,0.0,0.0,0.0,0.0,-4.1162,0.0,0.0,0.0,0.0,0.0,0.0,0.0,0.0,0.0,0.0,0.0,0.0,0.0,0.0,0.0,0.0,0.0,0.0,0.0,0.0,0.0,0.0,0.0,-4.3126,-4.3186,-4.3031,-4.3226,-4.3549,-4.4092,-4.3912,-4.4139,-4.4737,-4.4654,-4.4626,-4.4654,-4.4654,-4.435,-4.3839,-4.3839,-4.3558,-4.3092,-4.2892,-4.2676,-4.252,-4.252,-4.252,-4.2504,-4.2738,-4.28,-4.28,-4.28,-4.28,-4.2753,-4.2567,-4.218,-4.1661,-4.0934,-3.9939,-3.8904,-3.8205,-3.7395,-3.6816,-3.6997,-3.7028,-3.7252,-3.8096,-3.8306,-3.8165,-3.7767,-3.765,-3.749,-3.6892,-3.6646,-3.6507,-3.6305,-3.6226,-3.6195,-3.6274,-3.6226,-3.6132,-3.6132,-3.6132,-3.6132,-3.6132,-3.6132,-3.6132,-3.6132,-3.61,-3.6068,-3.6068,-3.5894,-3.5863,-3.6053,-3.6179,-3.6258,-3.6258,-3.6258,-3.6164,-3.5976,-3.5991,-3.5926,-3.5765,-3.5973,-3.629,-4.0507,0.0,0.0,0.0,0.0,0.0,0.0,0.0,0.0,0.0,0.0,0.0,0.0,0.0,0.0,0.0,0.0,0.0,0.0,0.0,0.0,0.0,0.0,0.0,0.0,0.0,0.0,0.0,0.0,0.0,0.0,-4.2142,-4.227,-4.2142,-4.238,-4.2745,-4.3238,-4.3061,-4.3145,-4.3429,-4.3636,-4.3583,-4.3381,-4.3913,-4.3914,-4.3482,-4.3227,-4.2738,-4.2109,-4.2109,-4.1965,-4.1706,-4.1706,-4.1706,-4.1739,-4.2013,-4.2109,-4.2109,-4.2109,-4.2109,-4.1997,-4.1469,-4.1039,-4.0515,-3.9562,-3.8699,-3.7965,-3.7261,-3.6785,-3.6492,-3.6492,-3.6492,-3.6693,-3.7415,-3.7517,-3.737,-3.7012,-3.6876,-3.6739,-3.6352,-3.6258,-3.6179,-3.6116,-3.6085,-3.6085,-3.6116,-3.6053,-3.6005,-3.6005,-3.6005,-3.6005,-3.6005,-3.6005,-3.6005,-3.6005,-3.5941,-3.5863,-3.5863,-3.5718,-3.5686,-3.5797,-3.5797,-3.5797,-3.5797,-3.5797,-3.5733,-3.5621,-3.5621,-3.5572,-3.5504,-3.5504,-3.5668,-4.0096,0.0,0.0,0.0,0.0,0.0,0.0,0.0,0.0,0.0,0.0,0.0,0.0,0.0,0.0,0.0,0.0,0.0,0.0,0.0,0.0,0.0,0.0,0.0,0.0,0.0,0.0,0.0,0.0,0.0,-4.0444,-4.1117,-4.1476,-4.1476,-4.1946,-4.2215,-4.23,-4.2115,-4.1781,-4.1319,-4.1952,-4.194,-4.1448,-4.2805,-4.3393,-4.3287,-4.2614,-4.1981,-4.1393,-4.1393,-4.1057,-4.0489,-4.0489,-4.0489,-4.0593,-4.1176,-4.1393,-4.1393,-4.1393,-4.1362,-4.1105,-3.9895,-3.9431,-3.9075,-3.7844,-3.7414,-3.7245,-3.663,-3.646,-3.646,-3.646,-3.646,-3.646,-3.646,-3.6305,-3.6211,-3.6164,-3.6085,-3.6005,-3.6005,-3.6085,-3.6116,-3.6005,-3.6053,-3.6085,-3.5973,-3.5973,-3.5973,-3.5941,-3.5941,-3.5941,-3.5941,-3.5941,-3.5941,-3.5941,-3.5799,-3.5688,-3.5688,-3.5587,-3.5504,-3.5504,-3.5504,-3.5504,-3.5504,-3.5504,-3.5504,-3.5504,-3.5504,-3.5504,-3.5504,-3.5504,-3.5504,0.0,-4.0096,0.0,0.0,0.0,0.0,0.0,0.0,0.0,0.0,0.0,0.0,0.0,0.0,0.0,0.0,0.0,0.0,0.0,0.0,0.0,0.0,0.0,0.0,0.0,0.0,0.0,0.0,0.0,0.0,-4.0188,-4.0324,-4.0408,-4.0408,-4.0091,-4.0177,-4.0771,-4.0275,-4.0242,-4.071,-4.0828,-4.0834,-4.0764,-4.2091,-4.2426,-4.1885,-4.1209,-4.0836,-4.0715,-4.0715,-4.0612,-4.0489,-4.0489,-4.0489,-4.0524,-4.0646,-4.0715,-4.0715,-4.0715,-4.0359,-3.9895,-3.9588,-3.88,-3.7844,-3.7408,-3.6917,-3.6457,-3.632,-3.6195,-3.6132,-3.6242,-3.6195,-3.61,-3.61,-3.6148,-3.6179,-3.6068,-3.6037,-3.6005,-3.6005,-3.5894,-3.5816,-3.5752,-3.5686,-3.5651,-3.5619,-3.5686,-3.5735,-3.5619,-3.5587,-3.5587,-3.5587,-3.5587,-3.5587,-3.5587,-3.5554,-3.5554,-3.5554,-3.5537,-3.5504,-3.5504,-3.5504,-3.5504,-3.5504,-3.5504,-3.5504,-3.5504,-3.5504,-3.5504,-3.5504,-3.5504,-3.5504,0.0,0.0,0.0,0.0,0.0,0.0,0.0,0.0,0.0,0.0,0.0,0.0,0.0,0.0,0.0,0.0,0.0,0.0,0.0,0.0,0.0,0.0,0.0,0.0,0.0,0.0,0.0,0.0,0.0,-4.0096,-4.0096,-3.9841,-3.967,-3.967,-3.9082,-3.8947,-3.9335,-3.9044,-3.8924,-3.9031,-3.9338,-3.9523,-3.9581,-4.0943,-4.1182,-4.0556,-4.0507,-4.0489,-4.0489,-4.0489,-4.0489,-4.0489,-4.0489,-4.0489,-4.0489,-4.0489,-4.0255,-3.9925,-3.9925,-3.9431,-3.8736,-3.8415,-3.7833,-3.7174,-3.6741,-3.6359,-3.6116,-3.6116,-3.6053,-3.6005,-3.6085,-3.6053,-3.5973,-3.5863,-3.5911,-3.5943,-3.5863,-3.5814,-3.578,-3.578,-3.575,-3.5688,-3.5621,-3.5554,-3.5504,-3.5504,-3.5554,-3.5572,-3.5504,-3.5504,-3.5504,-3.5504,-3.5504,-3.5504,-3.5504,-3.5504,-3.5504,-3.5504,-3.5504,-3.5504,-3.5504,-3.5504,-3.5504,-3.5504,-3.5504,-3.5504,-3.5504,-3.5504,-3.5504,-3.5504,-3.5504,-3.5504,0.0,0.0,0.0,0.0,0.0,0.0,0.0,0.0,0.0,0.0,0.0,0.0,0.0,0.0,0.0,0.0,0.0,0.0,0.0,0.0,0.0,0.0,0.0,0.0,0.0,0.0,0.0,0.0,0.0,-3.9927,-3.9927,-3.9365,-3.9055,-3.9055,-3.8463,-3.8137,-3.8137,-3.8039,-3.7738,-3.7254,-3.782,-3.8091,-3.8217,-3.9388,-3.9713,-3.9351,-3.9994,-4.0286,-4.0286,-4.0374,-4.042,-4.042,-4.042,-4.042,-4.042,-4.0282,-3.983,-3.9219,-3.913,-3.854,-3.7737,-3.7175,-3.6932,-3.6734,-3.614,-3.5941,-3.5941,-3.5941,-3.5941,-3.591,-3.5941,-3.5941,-3.5878,-3.5703,-3.5671,-3.5671,-3.5671,-3.5572,-3.5504,-3.5504,-3.5604,-3.5621,-3.5537,-3.5504,-3.5504,-3.5504,-3.5392,-3.5279,-3.5279,-3.518,-3.5115,-3.5115,-3.5115,-3.5115,-3.5115,-3.5115,-3.5115,-3.5115,-3.5115,-3.5115,-3.5115,-3.5115,-3.5115,-3.5115,-3.5359,-3.5504,-3.5504,-3.5504,-3.5504,-3.5504,-3.5504,-3.5504,0.0,0.0,0.0,0.0,0.0,0.0,0.0,0.0,0.0,0.0,0.0,0.0,0.0,0.0,0.0,0.0,0.0,0.0,0.0,0.0,0.0,0.0,0.0,0.0,0.0,0.0,0.0,0.0,-3.9618,-3.9312,-3.9312,-3.8739,-3.8435,-3.8435,-3.7825,-3.7519,-3.7519,-3.6997,-3.6693,-3.6616,-3.6693,-3.6754,-3.6784,-3.7367,-3.7996,-3.8644,-3.9171,-3.9378,-3.939,-3.9893,-4.0066,-4.0066,-4.0066,-4.0066,-3.999,-3.9417,-3.9143,-3.8956,-3.8378,-3.7725,-3.7129,-3.7023,-3.6613,-3.608,-3.5814,-3.5752,-3.5752,-3.5752,-3.5668,-3.5587,-3.5703,-3.5653,-3.5554,-3.5522,-3.5537,-3.5537,-3.5537,-3.5504,-3.5504,-3.5504,-3.5504,-3.5537,-3.5504,-3.5504,-3.5504,-3.5504,-3.4905,-3.4461,-3.4461,-3.3905,-3.3506,-3.3506,-3.3506,-3.3506,-3.3506,-3.3506,-3.3506,-3.3506,-3.3506,-3.3506,-3.3506,-3.3506,-3.3506,-3.3506,-3.482,-3.5504,-3.5504,-3.5504,-3.5504,-3.5504,-3.5504,-3.5504,0.0,0.0,0.0,0.0,0.0,0.0,0.0,0.0,0.0,0.0,0.0,0.0,0.0,0.0,0.0,0.0,0.0,0.0,0.0,0.0,0.0,0.0,0.0,0.0,0.0,0.0,0.0,0.0,-3.9055,-3.8684,-3.8684,-3.8124,-3.7796,-3.7796,-3.7208,-3.6892,-3.6892,-3.6631,-3.6492,-3.6492,-3.6383,-3.6352,-3.6352,-3.6453,-3.6989,-3.7791,-3.8299,-3.8522,-3.8552,-3.877,-3.8857,-3.8857,-3.8857,-3.8857,-3.8827,-3.8557,-3.8125,-3.7679,-3.7358,-3.6778,-3.617,-3.617,-3.5942,-3.5701,-3.5604,-3.5604,-3.5604,-3.5604,-3.5554,-3.5504,-3.5572,-3.5554,-3.5504,-3.5504,-3.5504,-3.5504,-3.5504,-3.5504,-3.5504,-3.5504,-3.5504,-3.5504,-3.5504,-3.5133,-3.4839,-3.4839,-3.4158,-3.3699,-3.3699,-3.3388,-3.3178,-3.3178,-3.3178,-3.3178,-3.3178,-3.3178,-3.3178,-3.3178,-3.3178,-3.3178,-3.3178,-3.3178,-3.3178,-3.3178,-3.3865,-3.4221,-3.4221,-3.4624,-3.4839,-3.4839,-3.5279,-3.5504,0.0,0.0,0.0,0.0,0.0,0.0,0.0,0.0,0.0,0.0,0.0,0.0,0.0,0.0,0.0,0.0,0.0,0.0,0.0,0.0,0.0,0.0,0.0,0.0,0.0,0.0,0.0,0.0,-3.8407,-3.8067,-3.8067,-3.749,-3.7178,-3.7178,-3.6723,-3.6492,-3.6492,-3.6492,-3.646,-3.6414,-3.6274,-3.6179,-3.6148,-3.599,-3.6263,-3.6862,-3.7415,-3.7685,-3.7701,-3.7785,-3.7861,-3.7861,-3.7861,-3.7861,-3.7846,-3.7679,-3.7201,-3.6634,-3.6436,-3.6009,-3.5504,-3.5504,-3.5504,-3.5504,-3.5504,-3.5504,-3.5504,-3.5504,-3.5504,-3.5504,-3.5504,-3.5359,-3.5213,-3.5213,-3.5034,-3.5001,-3.5439,-3.5504,-3.5439,-3.5231,-3.5213,-3.5133,-3.4935,-3.4409,-3.4027,-3.4027,-3.3388,-3.2932,-3.2932,-3.2769,-3.2627,-3.2627,-3.2627,-3.2627,-3.2627,-3.2627,-3.2627,-3.2627,-3.2627,-3.2627,-3.2627,-3.2627,-3.2627,-3.2627,-3.2627,-3.284,-3.3178,-3.3768,-3.4027,-3.4041,-3.4839,-3.5213,0.0,0.0,0.0,0.0,0.0,0.0,0.0,0.0,0.0,0.0,0.0,0.0,0.0,0.0,0.0,0.0,0.0,0.0,0.0,0.0,0.0,0.0,0.0,0.0,0.0,0.0,0.0,0.0,-3.7796,-3.7447,-3.7447,-3.6861,-3.6554,-3.6554,-3.6523,-3.6492,-3.6492,-3.6492,-3.6383,-3.6211,-3.6196,-3.6148,-3.6005,-3.5831,-3.5735,-3.581,-3.6471,-3.6773,-3.6785,-3.7267,-3.7439,-3.7439,-3.7439,-3.7439,-3.7364,-3.678,-3.654,-3.6435,-3.5774,-3.5534,-3.5504,-3.5504,-3.5504,-3.5504,-3.5504,-3.5504,-3.5504,-3.5504,-3.5504,-3.5504,-3.5504,-3.4938,-3.4346,-3.4346,-3.3837,-3.3713,-3.518,-3.5504,-3.5279,-3.4495,-3.4346,-3.4143,-3.3422,-3.3283,-3.3262,-3.3262,-3.2613,-3.2146,-3.2146,-3.1542,-3.1123,-3.1123,-3.1123,-3.1123,-3.1123,-3.1123,-3.1123,-3.1123,-3.1123,-3.1123,-3.1123,-3.1123,-3.1123,-3.1123,-3.1123,-3.1786,-3.3178,-3.3248,-3.3262,-3.3297,-3.4007,-3.4346,0.0,0.0,0.0,0.0,0.0,0.0,0.0,0.0,0.0,0.0,0.0,0.0,0.0,0.0,0.0,0.0,0.0,0.0,0.0,0.0,0.0,0.0,0.0,0.0,0.0,0.0,0.0,0.0,0.0,-3.6831,-3.6831,-3.6616,-3.6492,-3.6492,-3.6492,-3.6492,-3.6492,-3.6383,-3.6274,-3.6196,-3.5975,-3.5847,-3.5799,-3.5621,-3.5572,-3.5587,-3.5842,-3.5947,-3.5929,-3.6121,-3.6193,-3.6193,-3.6193,-3.6193,-3.6163,-3.5938,-3.5863,-3.5818,-3.5594,-3.5504,-3.5392,-3.4905,-3.4725,-3.4643,-3.4172,-3.4002,-3.4002,-3.4002,-3.4002,-3.4002,-3.4002,-3.3817,-3.3596,-3.3596,-3.3388,-3.3367,-3.3899,-3.4002,-3.3934,-3.3665,-3.3596,-3.3526,-3.3262,-3.2791,-3.2506,-3.2506,-3.1882,-3.1394,-3.1394,-3.1161,-3.0986,-3.0986,-3.0986,-3.0986,-3.0986,-3.0986,-3.0986,-3.0986,-3.0986,-3.0986,-3.0986,-3.0986,-3.0986,-3.0986,-3.0986,-3.1272,-3.18,-3.2268,-3.2506,-3.2506,-3.3115,-3.338,0.0,0.0,0.0,0.0,0.0,0.0,0.0,0.0,0.0,0.0,0.0,0.0,0.0,0.0,0.0,0.0,0.0,0.0,0.0,0.0,0.0,0.0,0.0,0.0,0.0,0.0,0.0,0.0,0.0,0.0,-3.6492,-3.6492,-3.6492,-3.6492,-3.6414,-3.6383,-3.6383,-3.6211,-3.6116,-3.6038,-3.5816,-3.5671,-3.5621,-3.5554,-3.5359,-3.51,-3.51,-3.5246,-3.5472,-3.5213,-3.51,-3.5067,-3.482,-3.4721,-3.4721,-3.4721,-3.4721,-3.4721,-3.4721,-3.4721,-3.4639,-3.4109,-3.3925,-3.3837,-3.3353,-3.3178,-3.3178,-3.3178,-3.3178,-3.3178,-3.3178,-3.3003,-3.2755,-3.2519,-3.2448,-3.2448,-3.2448,-3.284,-3.3108,-3.2861,-3.2826,-3.2755,-3.2484,-3.2064,-3.1736,-3.1736,-3.1296,-3.0986,-3.0986,-3.0986,-3.0986,-3.0986,-3.0986,-3.0986,-3.0986,-3.0986,-3.0986,-3.0986,-3.0986,-3.0986,-3.0986,-3.0949,-3.0911,-3.0911,-3.0823,-3.0798,-3.0798,-3.1357,-3.1626,-3.1626,-3.2169,-3.2571,0.0,0.0,0.0,0.0,0.0,0.0,0.0,0.0,0.0,0.0,0.0,0.0,0.0,0.0,0.0,0.0,0.0,0.0,0.0,0.0,0.0,0.0,0.0,0.0,0.0,0.0,0.0,0.0,-3.6492,-3.6492,-3.6492,-3.6492,-3.6492,-3.6492,-3.6305,-3.6196,-3.6196,-3.6068,-3.5894,-3.5688,-3.5688,-3.5574,-3.5472,-3.5439,-3.5019,-3.4279,-3.4279,-3.4725,-3.5359,-3.4576,-3.4279,-3.4211,-3.3492,-3.3178,-3.3178,-3.3178,-3.3178,-3.3178,-3.3178,-3.3178,-3.3178,-3.3178,-3.3178,-3.3143,-3.3143,-3.3157,-3.3157,-3.3157,-3.3157,-3.3157,-3.3157,-3.2613,-3.1869,-3.1161,-3.0986,-3.0986,-3.0986,-3.2137,-3.2932,-3.2232,-3.2087,-3.1846,-3.1123,-3.0986,-3.0986,-3.0986,-3.0986,-3.0986,-3.0986,-3.0986,-3.0986,-3.0986,-3.0986,-3.0986,-3.0986,-3.0986,-3.0986,-3.0986,-3.0986,-3.0986,-3.0986,-3.0811,-3.0698,-3.0698,-3.0482,-3.0406,-3.0406,-3.0609,-3.0698,-3.0698,-3.1209,-3.1856,-3.5619,0.0,0.0,0.0,0.0,0.0,0.0,0.0,0.0,0.0,0.0,0.0,0.0,0.0,0.0,0.0,0.0,0.0,0.0,0.0,0.0,0.0,0.0,0.0,0.0,0.0,0.0,0.0,-3.6414,-3.6445,-3.6274,-3.6274,-3.6274,-3.6274,-3.6116,-3.6068,-3.6068,-3.5863,-3.5752,-3.5688,-3.4993,-3.4662,-3.461,-3.407,-3.3713,-3.3492,-3.3492,-3.363,-3.3831,-3.3596,-3.3492,-3.3492,-3.3283,-3.3178,-3.3178,-3.3178,-3.3178,-3.3178,-3.3178,-3.3178,-3.3108,-3.2577,-3.2398,-3.229,-3.175,-3.1616,-3.1616,-3.1616,-3.1616,-3.1616,-3.1616,-3.1482,-3.1259,-3.1061,-3.0986,-3.0986,-3.0986,-3.1334,-3.1542,-3.1334,-3.1296,-3.1222,-3.1061,-3.0986,-3.0986,-3.0986,-3.0986,-3.0986,-3.0986,-3.0986,-3.0986,-3.0986,-3.0986,-3.0986,-3.0986,-3.0986,-3.0986,-3.0986,-3.0986,-3.0986,-3.0986,-3.0811,-3.0698,-3.0698,-3.0482,-3.0406,-3.0406,-3.0444,-3.0482,-3.0482,-3.0482,-3.0508,0.0,0.0,0.0,0.0,0.0,0.0,-3.5941,-3.6005,0.0,0.0,0.0,0.0,0.0,0.0,0.0,0.0,0.0,0.0,0.0,0.0,0.0,0.0,0.0,0.0,0.0,-3.632,-3.6226,-3.6116,-3.6226,-3.6226,-3.6116,-3.6116,-3.6116,-3.6116,-3.5958,-3.5863,-3.5863,-3.5718,-3.5444,-3.5091,-3.4547,-3.4143,-3.3837,-3.3388,-3.3038,-3.2755,-3.2755,-3.2555,-3.2282,-3.2282,-3.2448,-3.272,-3.2412,-3.2282,-3.2282,-3.2282,-3.2282,-3.2282,-3.2282,-3.2282,-3.2209,-3.1773,-3.164,-3.1566,-3.1123,-3.0986,-3.0986,-3.0986,-3.0986,-3.0986,-3.0986,-3.0986,-3.0986,-3.0986,-3.0986,-3.0986,-3.0986,-3.0986,-3.0986,-3.0986,-3.0986,-3.0986,-3.0986,-3.0986,-3.0986,-3.0986,-3.0986,-3.0986,-3.0986,-3.0986,-3.0986,-3.0986,-3.0986,-3.0986,-3.0986,-3.0911,-3.0911,-3.0986,-3.0823,-3.0798,-3.0874,-3.0609,-3.047,-3.047,-3.0228,-3.0152,-3.0152,-3.0228,-3.0228,-3.0152,-3.0049,-2.9895,0.0,0.0,0.0,0.0,0.0,0.0,-3.591,-3.5941,-3.5941,0.0,0.0,0.0,0.0,0.0,0.0,0.0,0.0,0.0,0.0,0.0,0.0,0.0,0.0,0.0,-3.6179,-3.6068,-3.6005,-3.5973,-3.5973,-3.5973,-3.6005,-3.5973,-3.5973,-3.5973,-3.5767,-3.5688,-3.5688,-3.5474,-3.5019,-3.4312,-3.4129,-3.3719,-3.3087,-3.3003,-3.2577,-3.1978,-3.1978,-3.1603,-3.0986,-3.0986,-3.1408,-3.1905,-3.1259,-3.0986,-3.0986,-3.0986,-3.0986,-3.0986,-3.0986,-3.0986,-3.0986,-3.0986,-3.0986,-3.0986,-3.0986,-3.0986,-3.0986,-3.0986,-3.0986,-3.0986,-3.0986,-3.0986,-3.0986,-3.0986,-3.0986,-3.0986,-3.0986,-3.0986,-3.0986,-3.0986,-3.0986,-3.0986,-3.0986,-3.0986,-3.0986,-3.0986,-3.0986,-3.0986,-3.0986,-3.0986,-3.0949,-3.0949,-3.0949,-3.0949,-3.0949,-3.0761,-3.0736,-3.0911,-3.0596,-3.0482,-3.066,-3.0305,-3.0113,-3.0113,-2.9895,-2.9792,-2.9792,-2.9972,-2.9972,-2.9792,-2.9792,-2.9792,0.0,0.0,0.0,0.0,0.0,0.0,-3.5587,-3.5587,-3.5651,0.0,0.0,0.0,0.0,0.0,0.0,0.0,0.0,0.0,0.0,0.0,0.0,0.0,0.0,0.0,-3.6037,-3.6005,-3.5941,-3.5752,-3.5752,-3.5831,-3.6005,-3.5863,-3.5752,-3.5752,-3.5636,-3.5554,-3.5554,-3.4857,-3.4461,-3.4279,-3.3094,-3.2456,-3.229,-3.1713,-3.1334,-3.1222,-3.1222,-3.1123,-3.0986,-3.0986,-3.1086,-3.1185,-3.1061,-3.0986,-3.0986,-3.0986,-3.0986,-3.0986,-3.0986,-3.0986,-3.0986,-3.0986,-3.0986,-3.0986,-3.0986,-3.0986,-3.0986,-3.0986,-3.0986,-3.0986,-3.0986,-3.0986,-3.0986,-3.0986,-3.0986,-3.0986,-3.0986,-3.0986,-3.0986,-3.0986,-3.0986,-3.0986,-3.0986,-3.0986,-3.0986,-3.0986,-3.0986,-3.0949,-3.0773,-3.0773,-3.0685,-3.052,-3.052,-3.052,-3.052,-3.0482,-3.0482,-3.052,-3.0444,-3.0406,-3.0444,-3.0228,-3.0113,-3.0113,-2.9895,-2.9792,-2.9792,-2.983,-2.983,-2.9792,-2.9792,-2.9792,0.0,0.0,0.0,-3.5504,0.0,0.0,0.0,-3.5504,-3.5537,-3.5604,0.0,0.0,0.0,0.0,0.0,0.0,0.0,0.0,0.0,0.0,0.0,0.0,0.0,0.0,-3.5863,-3.5782,-3.5701,-3.5604,-3.5589,-3.5636,-3.5733,-3.5285,-3.5187,-3.5589,-3.4773,-3.4524,-3.4905,-3.4158,-3.3581,-3.3199,-3.2456,-3.1905,-3.1529,-3.1161,-3.0986,-3.0986,-3.0986,-3.0986,-3.0986,-3.0986,-3.0986,-3.0986,-3.0986,-3.0986,-3.0986,-3.0986,-3.0986,-3.0986,-3.0986,-3.0986,-3.0986,-3.0986,-3.0986,-3.0986,-3.0986,-3.0986,-3.0986,-3.0986,-3.0986,-3.0986,-3.0986,-3.0986,-3.0986,-3.0986,-3.0986,-3.0986,-3.0986,-3.0986,-3.0911,-3.0558,-3.0508,-3.0621,-3.0949,-3.0986,-3.0986,-3.0986,-3.071,-3.047,-3.0368,-2.9883,-2.951,-2.9394,-2.9225,-2.9096,-2.9096,-2.903,-2.8991,-2.9096,-2.8873,-2.9003,-2.9574,-2.9431,-2.9521,-2.9934,-2.9869,-2.9792,-2.9792,-2.9792,-2.9792,-2.9792,-2.9792,-2.9792,0.0,0.0,0.0,0.0,0.0,-3.5504,0.0,0.0,0.0,-3.5504,0.0,0.0,0.0,0.0,0.0,0.0,0.0,0.0,0.0,0.0,0.0,0.0,0.0,0.0,-3.5671,-3.5572,-3.5504,-3.5504,-3.5359,-3.5279,-3.5279,-3.4509,-3.4409,-3.5034,-3.3865,-3.3492,-3.4075,-3.3353,-3.2684,-3.211,-3.1942,-3.1566,-3.0986,-3.0986,-3.0986,-3.0986,-3.0986,-3.0986,-3.0986,-3.0986,-3.0986,-3.0986,-3.0986,-3.0986,-3.0986,-3.0986,-3.0986,-3.0986,-3.0986,-3.0986,-3.0986,-3.0986,-3.0986,-3.0949,-3.0986,-3.0949,-3.0911,-3.0911,-3.0949,-3.0949,-3.0949,-3.0823,-3.0697,-3.0697,-3.0533,-3.0381,-3.0381,-3.0381,-3.0216,-2.9665,-2.9588,-2.9781,-3.0508,-3.0545,-3.0508,-3.0508,-2.9986,-2.9549,-2.951,-2.8743,-2.8227,-2.8148,-2.7855,-2.7683,-2.7683,-2.7533,-2.7504,-2.7643,-2.7302,-2.7516,-2.8422,-2.8303,-2.8542,-2.926,-2.93,-2.93,-2.93,-2.93,-2.9456,-2.9792,-2.9792,-2.9792,0.0,0.0,0.0,0.0,-3.5504,0.0,0.0,0.0,-3.5504,-3.5504,0.0,0.0,0.0,0.0,0.0,0.0,0.0,0.0,0.0,0.0,0.0,0.0,0.0,0.0,0.0,-3.5504,-3.5504,-3.5504,-3.4839,-3.4428,-3.4428,-3.3734,-3.3367,-3.3471,-3.3297,-3.3248,-3.3318,-3.2577,-3.2182,-3.2074,-3.1431,-3.1086,-3.0986,-3.0986,-3.0986,-3.0986,-3.0986,-3.0986,-3.0986,-3.0986,-3.0986,-3.0986,-3.0986,-3.0986,-3.0986,-3.0986,-3.0986,-3.0986,-3.0986,-3.0986,-3.0986,-3.0986,-3.0874,-3.0773,-3.0949,-3.0748,-3.052,-3.0685,-3.0736,-3.0736,-3.0736,-3.0152,-2.9563,-2.9563,-2.8848,-2.8164,-2.8164,-2.8164,-2.8124,-2.8044,-2.8044,-2.8335,-2.916,-2.8951,-2.8703,-2.8703,-2.8335,-2.8004,-2.7827,-2.7666,-2.7504,-2.7261,-2.7221,-2.718,-2.718,-2.7139,-2.7151,-2.718,-2.7139,-2.7151,-2.7273,-2.7273,-2.7313,-2.7395,-2.7395,-2.7395,-2.7395,-2.7395,-2.8223,-2.9792,-2.9792,-2.9792,0.0,0.0,0.0,0.0,0.0,0.0,-3.5392,0.0,-3.4953,0.0,0.0,0.0,0.0,0.0,0.0,0.0,-3.4187,0.0,0.0,0.0,0.0,0.0,0.0,0.0,0.0,0.0,0.0,-3.4791,-3.409,-3.3665,-3.3665,-3.2967,-3.2755,-3.3178,-3.239,-3.2137,-3.2541,-3.1809,-3.1468,-3.1468,-3.1161,-3.0986,-3.0986,-3.0986,-3.0986,-3.0986,-3.0874,-3.0849,-3.0811,-3.0723,-3.0634,-3.0634,-3.0634,-3.0723,-3.0798,-3.0672,-3.0634,-3.0634,-3.0634,-3.0634,-3.0634,-3.0634,-3.0596,-3.0444,-3.0037,-2.9793,-2.9561,-2.9147,-2.9018,-2.9018,-2.9018,-2.873,-2.8481,-2.8481,-2.8112,-2.7792,-2.7792,-2.7792,-2.7671,-2.7279,-2.7209,-2.7209,-2.7244,-2.7706,-2.8044,-2.8044,-2.7562,-2.7209,-2.7098,-2.6535,-2.6133,-2.6008,-2.5768,-2.56,-2.56,-2.56,-2.56,-2.56,-2.608,-2.6359,-2.6359,-2.6823,-2.711,-2.711,-2.711,-2.711,-2.711,-2.711,-2.7476,-2.8263,-2.8791,-2.904,-3.4868,0.0,0.0,0.0,0.0,0.0,0.0,0.0,0.0,0.0,0.0,0.0,0.0,0.0,0.0,0.0,0.0,-3.3178,0.0,0.0,0.0,0.0,0.0,0.0,0.0,0.0,0.0,-3.4007,-3.3318,-3.2897,-3.2897,-3.2196,-3.2051,-3.2591,-3.1542,-3.1259,-3.1809,-3.1259,-3.0986,-3.0986,-3.0986,-3.0986,-3.0986,-3.0949,-3.0911,-3.0911,-3.0698,-3.0609,-3.0609,-3.0444,-3.0241,-3.005,-2.996,-2.9896,-2.9883,-3.0241,-3.0406,-3.0406,-3.0406,-3.0241,-2.9999,-2.9755,-2.9639,-2.951,-2.8912,-2.8664,-2.8438,-2.7896,-2.7723,-2.7723,-2.7723,-2.7522,-2.7319,-2.7319,-2.7116,-2.6912,-2.6912,-2.6912,-2.676,-2.6246,-2.6163,-2.6008,-2.5591,-2.637,-2.7075,-2.7075,-2.6565,-2.6163,-2.6163,-2.5474,-2.4999,-2.4999,-2.47,-2.4497,-2.4497,-2.4497,-2.4497,-2.4497,-2.5094,-2.5463,-2.5463,-2.6038,-2.637,-2.637,-2.637,-2.637,-2.637,-2.637,-2.637,-2.6412,-2.7597,-2.8131,0.0,0.0,0.0,-3.3262,0.0,0.0,0.0,0.0,-3.3248,0.0,0.0,0.0,0.0,0.0,0.0,-3.3178,0.0,0.0,0.0,0.0,0.0,0.0,0.0,0.0,0.0,0.0,-3.3248,-3.3248,-3.2541,-3.2146,-3.2146,-3.1431,-3.1061,-3.1061,-3.1011,-3.1024,-3.1061,-3.1024,-3.0986,-3.0986,-3.0986,-3.0986,-3.0986,-3.0811,-3.0698,-3.0698,-3.0482,-3.0406,-3.0406,-3.0406,-2.9922,-2.9121,-2.8949,-2.8331,-2.7827,-2.9716,-3.0406,-3.0406,-3.0406,-2.9845,-2.8991,-2.8164,-2.7735,-2.7626,-2.7804,-2.7533,-2.7232,-2.7424,-2.7504,-2.7504,-2.7504,-2.6853,-2.6152,-2.6152,-2.5348,-2.4625,-2.4625,-2.4625,-2.4615,-2.4583,-2.4583,-2.4583,-2.454,-2.4946,-2.5274,-2.5274,-2.4871,-2.4583,-2.4583,-2.454,-2.454,-2.454,-2.4497,-2.4497,-2.4497,-2.4497,-2.4497,-2.4497,-2.454,-2.454,-2.454,-2.4583,-2.4583,-2.4583,-2.4583,-2.4583,-2.4583,-2.4583,-2.4583,-2.4615,-2.6329,-2.7151,0.0,0.0,-3.2577,-3.3073,0.0,0.0,0.0,0.0,0.0,0.0,0.0,0.0,0.0,0.0,-3.2304,-3.1823,-3.175,0.0,0.0,0.0,0.0,0.0,0.0,0.0,0.0,0.0,0.0,-3.247,-3.1773,-3.1357,-3.1357,-3.1123,-3.0986,-3.0986,-3.0986,-3.0986,-3.0986,-3.0986,-3.0986,-3.0986,-3.0874,-3.0811,-3.0798,-3.0609,-3.0482,-3.0457,-2.9664,-2.9341,-2.9263,-2.8518,-2.8028,-2.7758,-2.7678,-2.7476,-2.7302,-2.7988,-2.8227,-2.8227,-2.8227,-2.8028,-2.7718,-2.7424,-2.7302,-2.7139,-2.6637,-2.6359,-2.6152,-2.5631,-2.5516,-2.5516,-2.5516,-2.5274,-2.502,-2.502,-2.4786,-2.4497,-2.4497,-2.4497,-2.4497,-2.4497,-2.4497,-2.4497,-2.4497,-2.4625,-2.4743,-2.4743,-2.4583,-2.4497,-2.4497,-2.4497,-2.4497,-2.4497,-2.4497,-2.4497,-2.4497,-2.4497,-2.4497,-2.4497,-2.4497,-2.4497,-2.4497,-2.4497,-2.4497,-2.4497,-2.4497,-2.4497,-2.4497,-2.4497,-2.4497,-2.4497,-2.5115,-2.5673,-3.2426,-3.2064,0.0,-3.2318,-3.2064,0.0,-3.2318,0.0,0.0,0.0,0.0,0.0,0.0,0.0,0.0,-3.0986,-3.0836,-3.0798,0.0,-3.0836,0.0,0.0,0.0,0.0,0.0,0.0,-3.1713,-3.1713,-3.1259,-3.0986,0.0,-3.0986,-3.0986,-3.0986,-3.0911,-3.0874,-3.0874,-3.0823,-3.0798,-3.0798,-3.0647,-3.0571,-3.0571,-3.005,-2.9819,-2.978,-2.8661,-2.8183,-2.8143,-2.7395,-2.6905,-2.6648,-2.6648,-2.6453,-2.6257,-2.6864,-2.711,-2.7069,-2.6741,-2.6648,-2.6577,-2.6299,-2.6174,-2.6091,-2.5505,-2.5348,-2.5221,-2.4658,-2.4497,-2.4497,-2.4497,-2.4497,-2.4497,-2.4497,-2.4497,-2.4497,-2.4497,-2.4497,-2.4497,-2.4497,-2.4497,-2.4549,-2.4714,-2.4745,-2.4683,-2.4528,-2.4631,-2.4745,-2.4745,-2.4879,-2.5016,-2.5016,-2.5016,-2.5016,-2.5016,-2.5016,-2.5016,-2.5016,-2.5016,-2.5016,-2.5016,-2.5016,-2.49,-2.4745,-2.49,-2.4817,-2.4497,-2.4662,-2.4662,-2.4497,-2.4497,-2.4775]},{"header":{"parameterUnit":"m.s-1","parameterCategory":1,"la1":30.6,"la2":29.2853,"lo1":-89.7004,"lo2":-87.6739,"dy":0.0162,"dx":0.0183,"nx":112,"ny":82,"refTime":"2023-09-21T00:00:00:Z","depth":0,"parameterNumber":3,"parameterNumberName":"V-component_of_WINDS"},"data":[0.0,0.0,0.0,0.0,0.0,0.0,0.0,0.0,0.0,0.0,0.0,0.0,0.0,0.0,0.0,0.0,0.0,0.0,0.0,0.0,0.0,0.0,0.0,0.0,0.0,0.0,0.0,0.0,0.0,0.0,0.0,0.0,0.0,0.0,0.0,0.0,0.0,0.0,0.0,0.0,0.0,0.0,0.0,0.0,0.0,0.0,0.0,0.0,0.0,0.0,0.0,0.0,0.0,0.0,0.0,0.0,0.0,0.0,0.0,0.0,0.0,0.0,0.0,0.0,0.0,0.0,0.0,0.0,0.0,0.0,0.0,0.0,0.0,0.0,0.0,0.0,0.0,0.0,0.0,0.0,0.0,0.0,0.0,0.0,0.0,0.0,0.0,0.0,0.0,0.0,-0.6563,-0.6563,-0.6412,-0.63,-0.63,-0.6451,-0.7284,-0.8993,0.0,0.0,0.0,0.0,0.0,0.0,0.0,0.0,0.0,0.0,0.0,0.0,0.0,0.0,0.0,0.0,0.0,0.0,0.0,0.0,0.0,0.0,0.0,0.0,0.0,0.0,0.0,0.0,0.0,0.0,0.0,0.0,0.0,0.0,0.0,0.0,0.0,0.0,0.0,0.0,0.0,0.0,0.0,0.0,0.0,0.0,0.0,0.0,0.0,0.0,0.0,0.0,0.0,0.0,0.0,0.0,0.0,0.0,0.0,0.0,0.0,0.0,0.0,0.0,0.0,0.0,0.0,0.0,0.0,0.0,0.0,0.0,0.0,0.0,0.0,0.0,0.0,0.0,0.0,0.0,0.0,0.0,0.0,0.0,0.0,0.0,0.0,0.0,0.0,0.0,0.0,0.0,0.0,0.0,0.0,0.0,0.0,0.0,0.0,0.0,0.0,0.0,0.0,0.0,-0.6335,-0.6335,-0.6338,-0.63,-0.63,-0.6338,-0.6907,-0.8199,0.0,0.0,0.0,0.0,0.0,0.0,0.0,0.0,0.0,0.0,0.0,0.0,0.0,0.0,0.0,0.0,0.0,0.0,0.0,0.0,0.0,0.0,0.0,0.0,0.0,0.0,0.0,0.0,0.0,0.0,0.0,0.0,0.0,0.0,0.0,0.0,0.0,0.0,0.0,0.0,0.0,0.0,0.0,0.0,0.0,0.0,0.0,0.0,0.0,0.0,0.0,0.0,0.0,0.0,0.0,0.0,0.0,0.0,0.0,0.0,0.0,0.0,0.0,0.0,0.0,0.0,0.0,0.0,0.0,0.0,0.0,0.0,0.0,0.0,0.0,0.0,0.0,0.0,0.0,0.0,0.0,0.0,0.0,0.0,0.0,0.0,0.0,0.0,0.0,0.0,0.0,0.0,0.0,0.0,0.0,0.0,0.0,0.0,0.0,0.0,0.0,0.0,0.0,-0.6412,-0.63,-0.63,-0.63,-0.63,-0.63,-0.63,-0.6984,-0.8651,-0.9183,0.0,0.0,0.0,0.0,0.0,0.0,0.0,0.0,0.0,0.0,0.0,0.0,0.0,0.0,0.0,0.0,0.0,0.0,0.0,0.0,0.0,0.0,0.0,0.0,0.0,0.0,0.0,0.0,0.0,0.0,0.0,0.0,0.0,0.0,0.0,0.0,0.0,0.0,0.0,0.0,0.0,0.0,0.0,0.0,0.0,0.0,0.0,0.0,0.0,0.0,0.0,0.0,0.0,0.0,0.0,0.0,0.0,0.0,0.0,0.0,0.0,0.0,0.0,0.0,0.0,0.0,0.0,0.0,0.0,0.0,0.0,0.0,0.0,0.0,0.0,0.0,0.0,0.0,0.0,0.0,0.0,0.0,0.0,0.0,0.0,0.0,0.0,0.0,0.0,0.0,0.0,0.0,0.0,0.0,0.0,0.0,0.0,0.0,0.0,0.0,0.0,0.0,-0.63,-0.63,-0.63,-0.63,-0.63,-0.63,-0.63,-0.7061,-0.8917,-0.9145,0.0,0.0,0.0,0.0,0.0,0.0,0.0,0.0,0.0,0.0,0.0,0.0,0.0,0.0,0.0,0.0,0.0,0.0,0.0,0.0,0.0,0.0,0.0,0.0,0.0,0.0,0.0,0.0,0.0,0.0,0.0,0.0,0.0,0.0,0.0,0.0,0.0,0.0,0.0,0.0,0.0,0.0,0.0,0.0,0.0,0.0,0.0,0.0,0.0,0.0,0.0,0.0,0.0,0.0,0.0,0.0,0.0,0.0,0.0,0.0,0.0,0.0,0.0,0.0,0.0,0.0,0.0,0.0,0.0,0.0,0.0,0.0,0.0,0.0,0.0,0.0,0.0,0.0,0.0,0.0,0.0,0.0,0.0,0.0,0.0,0.0,0.0,0.0,0.0,0.0,0.0,0.0,0.0,0.0,0.0,0.0,0.0,0.0,0.0,0.0,0.0,0.0,-0.63,-0.63,-0.63,-0.63,-0.63,-0.63,-0.63,-0.683,-0.8118,-0.8694,0.0,0.0,0.0,0.0,0.0,0.0,0.0,0.0,0.0,0.0,0.0,0.0,0.0,0.0,0.0,0.0,0.0,0.0,0.0,0.0,0.0,0.0,0.0,0.0,0.0,0.0,0.0,0.0,0.0,0.0,0.0,0.0,0.0,0.0,0.0,0.0,0.0,0.0,0.0,0.0,0.0,0.0,0.0,0.0,0.0,0.0,0.0,0.0,0.0,0.0,0.0,0.0,0.0,0.0,0.0,0.0,0.0,0.0,0.0,0.0,0.0,0.0,0.0,0.0,0.0,0.0,0.0,0.0,0.0,0.0,0.0,0.0,0.0,0.0,0.0,0.0,0.0,0.0,0.0,0.0,0.0,0.0,0.0,0.0,0.0,0.0,0.0,0.0,0.0,0.0,0.0,0.0,0.0,0.0,0.0,0.0,0.0,0.0,0.0,0.0,0.0,0.0,-0.6536,-0.6536,0.0,-0.6536,-0.6536,-0.6536,-0.6487,-0.6899,-0.7982,0.0,0.0,0.0,0.0,0.0,0.0,0.0,0.0,0.0,0.0,0.0,0.0,0.0,0.0,0.0,0.0,0.0,0.0,0.0,0.0,0.0,0.0,0.0,0.0,0.0,0.0,0.0,0.0,0.0,0.0,0.0,0.0,0.0,0.0,0.0,0.0,0.0,0.0,0.0,0.0,0.0,0.0,0.0,0.0,0.0,0.0,0.0,0.0,0.0,0.0,0.0,0.0,0.0,0.0,0.0,0.0,0.0,0.0,0.0,0.0,0.0,0.0,0.0,0.0,0.0,0.0,0.0,0.0,0.0,0.0,0.0,0.0,0.0,0.0,0.0,0.0,0.0,0.0,0.0,0.0,0.0,0.0,0.0,0.0,0.0,0.0,0.0,0.0,0.0,0.0,0.0,0.0,0.0,0.0,0.0,0.0,0.0,0.0,0.0,0.0,0.0,0.0,-0.6685,-0.6702,-0.6702,0.0,-0.6702,-0.6702,-0.6702,-0.6603,-0.6983,-0.8017,0.0,0.0,0.0,0.0,0.0,0.0,0.0,0.0,0.0,0.0,0.0,0.0,0.0,0.0,0.0,0.0,0.0,0.0,0.0,0.0,0.0,0.0,0.0,0.0,0.0,0.0,0.0,0.0,0.0,0.0,0.0,0.0,0.0,0.0,0.0,0.0,0.0,0.0,0.0,0.0,0.0,0.0,0.0,0.0,0.0,0.0,0.0,0.0,0.0,0.0,0.0,0.0,0.0,0.0,0.0,0.0,0.0,0.0,0.0,0.0,0.0,0.0,0.0,0.0,0.0,0.0,0.0,0.0,0.0,0.0,0.0,0.0,0.0,0.0,0.0,0.0,0.0,0.0,0.0,0.0,0.0,0.0,0.0,0.0,0.0,0.0,0.0,0.0,0.0,0.0,0.0,0.0,0.0,0.0,0.0,0.0,0.0,0.0,0.0,0.0,0.0,0.0,-0.6705,-0.6705,-0.6705,-0.6705,-0.6705,-0.6705,-0.6705,-0.6705,-0.7109,0.0,0.0,0.0,0.0,0.0,0.0,0.0,0.0,0.0,0.0,0.0,0.0,0.0,0.0,0.0,0.0,0.0,0.0,0.0,0.0,0.0,0.0,0.0,0.0,0.0,0.0,0.0,0.0,0.0,0.0,0.0,0.0,0.0,0.0,0.0,0.0,0.0,0.0,0.0,0.0,0.0,0.0,0.0,0.0,0.0,0.0,0.0,0.0,0.0,0.0,0.0,0.0,0.0,0.0,0.0,0.0,0.0,0.0,0.0,0.0,0.0,0.0,0.0,0.0,0.0,0.0,0.0,0.0,0.0,0.0,0.0,0.0,0.0,0.0,0.0,0.0,0.0,0.0,0.0,0.0,0.0,0.0,0.0,0.0,0.0,0.0,0.0,0.0,0.0,0.0,0.0,0.0,0.0,0.0,0.0,0.0,0.0,0.0,0.0,0.0,0.0,0.0,0.0,-0.6653,-0.6048,-0.5828,-0.6666,-0.6757,-0.684,-0.6967,-0.6787,-0.6812,-0.7236,0.0,0.0,0.0,0.0,0.0,0.0,0.0,0.0,0.0,0.0,0.0,0.0,0.0,0.0,0.0,0.0,0.0,0.0,0.0,0.0,0.0,0.0,0.0,0.0,0.0,0.0,0.0,0.0,0.0,0.0,0.0,0.0,0.0,0.0,0.0,0.0,0.0,0.0,0.0,0.0,0.0,0.0,0.0,0.0,0.0,0.0,0.0,0.0,0.0,0.0,0.0,0.0,0.0,0.0,0.0,0.0,0.0,0.0,0.0,0.0,0.0,0.0,0.0,0.0,0.0,0.0,0.0,0.0,0.0,0.0,0.0,0.0,0.0,0.0,0.0,0.0,0.0,0.0,0.0,0.0,0.0,0.0,0.0,0.0,0.0,0.0,0.0,0.0,0.0,0.0,0.0,0.0,0.0,0.0,0.0,0.0,0.0,0.0,0.0,0.0,0.0,0.0,-0.6154,-0.5536,-0.5265,-0.5983,-0.6435,-0.67,-0.683,-0.6621,-0.6573,-0.6707,0.0,0.0,0.0,0.0,0.0,0.0,0.0,0.0,0.0,0.0,0.0,0.0,0.0,0.0,0.0,0.0,0.0,0.0,0.0,0.0,0.0,0.0,0.0,0.0,0.0,0.0,0.0,0.0,0.0,0.0,0.0,0.0,0.0,0.0,0.0,0.0,0.0,0.0,0.0,0.0,0.0,0.0,0.0,0.0,0.0,0.0,0.0,0.0,0.0,0.0,0.0,0.0,0.0,0.0,0.0,0.0,0.0,0.0,0.0,0.0,0.0,0.0,0.0,0.0,0.0,0.0,0.0,0.0,0.0,0.0,0.0,0.0,0.0,0.0,0.0,0.0,0.0,0.0,0.0,0.0,0.0,0.0,0.0,0.0,0.0,0.0,0.0,0.0,0.0,0.0,0.0,0.0,0.0,0.0,0.0,0.0,0.0,0.0,0.0,0.0,0.0,0.0,-0.5359,-0.4954,-0.473,-0.4954,-0.5714,-0.6296,-0.6384,-0.6296,-0.6251,-0.6251,0.0,0.0,0.0,0.0,0.0,0.0,0.0,0.0,0.0,0.0,0.0,0.0,0.0,0.0,0.0,0.0,0.0,0.0,0.0,0.0,0.0,0.0,0.0,0.0,0.0,0.0,0.0,0.0,0.0,0.0,0.0,0.0,0.0,0.0,0.0,0.0,0.0,0.0,0.0,0.0,0.0,0.0,0.0,0.0,0.0,0.0,0.0,0.0,0.0,0.0,0.0,0.0,0.0,0.0,0.0,0.0,0.0,0.0,0.0,0.0,0.0713,0.0,0.0,0.0,0.0,0.0,0.0,0.0,0.0,0.0,0.0,0.0,0.0,0.0,0.0,0.0,0.0,0.0,0.0,0.0,0.0,0.0,0.0,0.0,0.0,0.0,0.0,0.0,0.0,0.0,0.0,0.0,0.0,0.0,0.0,0.0,0.0,0.0,0.0,0.0,0.0,0.0,-0.4999,-0.3396,-0.2819,-0.4559,-0.4961,-0.5406,-0.634,-0.5583,-0.5045,-0.4994,-0.4134,0.0,0.0,0.0,0.0,0.0,0.0,0.0,0.0,0.0,0.0,0.0,0.0,0.0,0.0,0.0,0.0,0.0,0.0,0.0,0.0,0.0,0.0,0.0,0.0,0.0,0.0,0.0,0.0,0.0,0.0,0.0,0.0,0.0,0.0,0.0,0.0,0.0,0.0,0.0,0.0,0.0,0.0,0.0,0.0,0.0,0.0,0.0,0.0,0.0,0.0,0.0,0.0,0.0,0.0,0.0,0.0,0.0,0.0,0.0,0.0,0.1501,0.0,0.0,0.0,0.0,0.0,0.0,0.0,0.0,0.0,0.0,0.0,0.0,0.0,0.0,0.0,0.0,0.0,0.0,0.0,0.0,0.0,0.0,0.0,0.0,0.0,0.0,0.0,0.0,0.0,0.0,0.0,0.0,0.0,0.0,0.0,0.0,0.0,0.0,0.0,0.0,-0.3528,-0.2327,-0.1837,-0.2999,-0.3535,-0.4071,-0.465,-0.416,-0.3801,-0.3798,-0.322,0.0,0.0,0.0,0.0,0.0,0.0,0.0,0.0,0.0,0.0,0.0,0.0,0.0,0.0,0.0,0.0,0.0,0.0,0.0,0.0,0.0,0.0,0.0,0.0,0.0,0.0,0.0,0.0,0.0,0.0,0.0,0.0,0.0,0.0,0.0,0.0,0.0,0.0,0.0,0.0,0.0,0.0,0.0,0.0,0.0,0.0,0.0,0.0,0.0,0.0,0.0,0.0,0.0,0.0765,0.0809,0.0812,0.0941,0.1283,0.1753,0.1882,0.2209,0.2692,0.2692,0.0,0.0,0.0,0.0,0.0,0.0,0.0,0.0,0.0,0.0,0.0,0.0,0.0,0.0,0.0,0.0,0.0,0.0,0.0,0.0,0.0,0.0,0.0,0.0,0.3999,0.3426,0.179,0.0,0.0,0.0,0.0,0.0,0.0,0.0,0.0,0.0,0.0,0.0,-0.2059,-0.1524,-0.1211,-0.1391,-0.2152,-0.2688,-0.2867,-0.2732,-0.2643,-0.2597,-0.2373,-0.2238,0.0,0.0,0.0,0.0,0.0,0.0,0.0,0.0,0.0,0.0,0.0,0.0,0.0,0.0,0.0,0.0,0.0,0.0,0.0,0.0,0.0,0.0,0.0,0.0,0.0,0.0,0.0,0.0,0.0,0.0,0.0,0.0,0.4033,0.3991,0.0,0.0,0.0,0.0,0.0,0.0,0.0,0.0,0.0,0.0,0.0,0.0,0.0,0.108,0.0648,0.0705,0.0711,0.0711,0.0711,0.0763,0.0823,0.1463,0.1783,0.192,0.2558,0.0,0.2692,0.2692,0.0,0.0,0.0,0.0,0.0,0.0,0.0,0.0,0.0,0.0,0.0,0.0,0.0,0.0,0.0,0.0,0.0,0.0,0.0,0.0,0.0,0.0,0.564,0.5463,0.4805,0.4144,0.0,0.2086,0.0267,-0.0536,-0.0714,0.0,0.0,0.0,0.0,0.0,0.0,0.0,-0.1835,-0.0852,-0.0494,-0.1301,-0.1524,-0.1973,-0.2822,-0.2107,-0.1524,-0.1342,-0.0358,-0.0134,-0.0894,-0.0848,0.0,0.0,0.0,0.0,0.0,0.0,0.0,0.0,0.0,0.0,0.0,0.0,0.0,0.0,0.0,0.0,0.0,0.0,0.0,0.0,0.0,0.0,0.0,0.0,0.0,0.0,0.0,0.0,0.0,0.4502,0.3984,0.3693,0.4198,0.4185,0.0,0.0,0.0,0.0,0.0,0.0,0.0,0.0,0.0,0.1328,0.2145,0.235,0.1922,0.2308,0.2365,0.2042,0.2042,0.2051,0.2116,0.2446,0.2587,0.2587,0.2916,0.3011,0.2932,0.2822,0.2969,0.3272,0.0,0.0,0.0,0.0,0.5575,0.5616,0.5915,0.6002,0.6131,0.6853,0.0,0.0,0.0,0.0,0.0,0.0,0.0,0.0,0.0,0.0,0.5688,0.5688,0.5374,0.4942,0.4497,0.3594,0.2357,0.0,-0.009,-0.0675,-0.1092,0.0,0.0,0.0,0.0,-0.1021,-0.1021,-0.0418,-0.0139,-0.0557,-0.0597,-0.0776,-0.1231,-0.0858,-0.0494,-0.0269,0.0224,0.0448,0.0313,-0.0134,-0.0713,0.0,0.0,0.0,0.0,0.0,0.0,0.0,0.0,0.0,0.0,0.0,0.0,0.0,0.0,0.0,0.0,0.0,0.0,0.0,0.0,0.0,0.0,0.0,0.0,0.0,0.0,0.0,0.0,0.489,0.4352,0.3972,0.4631,0.4718,0.0,0.0,0.0,0.0,0.0,0.0,0.3721,0.3314,0.2972,0.274,0.3486,0.3702,0.3285,0.3808,0.3905,0.3525,0.3525,0.3486,0.3502,0.3502,0.3502,0.3502,0.3502,0.3493,0.3469,0.3232,0.3372,0.3734,0.4324,0.4775,0.5137,0.5642,0.5913,0.6139,0.6319,0.6496,0.6805,0.7517,0.7296,0.676,0.7334,0.0,0.0,0.0,0.0,0.5822,0.5822,0.5822,0.5822,0.5822,0.5822,0.5617,0.5051,0.4739,0.3933,0.0,0.0728,0.0046,-0.0232,0.0,0.0,0.0,0.0,-0.0286,-0.0286,-0.0143,0.0,0.0,0.0,0.0,0.0,0.0046,0.0181,0.0407,0.0495,0.0718,0.1076,0.0448,0.0045,0.0,0.0,0.0,0.0,0.0,0.0,0.0,0.0,0.0,0.0,0.0,0.0,0.0,0.0,0.0,0.0,0.0,0.0,0.0,0.0,0.0,0.0,0.0,0.0,0.0,0.0,0.0,0.0,0.0,0.0,0.5581,0.563,0.0,0.0,0.0,0.0,0.3223,0.3189,0.3271,0.3222,0.4074,0.4362,0.3847,0.4797,0.5088,0.4621,0.4621,0.4668,0.4621,0.4621,0.4616,0.4643,0.4643,0.4643,0.4643,0.4643,0.4598,0.4573,0.4084,0.3843,0.3985,0.498,0.536,0.5454,0.5926,0.6585,0.7289,0.7941,0.8679,0.9418,1.0168,0.9886,0.9326,0.9372,0.8353,0.0,0.0,0.6679,0.6067,0.6067,0.6067,0.6067,0.6067,0.6067,0.607,0.6028,0.5315,0.408,0.0,0.1518,0.1187,0.0143,0.0,-0.0048,-0.0048,-0.0048,0.0,0.0,0.0,0.0,0.0,0.0,0.0,0.0,0.0234,0.037,0.0416,0.0816,0.1076,0.1121,0.1256,0.0897,0.0,-0.0045,0.0,0.0,0.0,0.0,0.0,0.0,0.0,0.0,0.0,0.0,0.0,0.0,0.0,0.0,0.0,0.0,0.0,0.0,0.0,0.0,0.0,0.0,0.0,0.0,0.0,0.0,0.0,0.0,0.502,0.5542,0.0,0.4654,0.5153,0.5361,0.5031,0.5018,0.5086,0.5086,0.5419,0.5578,0.552,0.5868,0.5892,0.5528,0.553,0.5377,0.502,0.502,0.5037,0.5015,0.5015,0.5015,0.5015,0.5015,0.4963,0.4929,0.5077,0.5018,0.4901,0.5282,0.5566,0.585,0.6039,0.6275,0.6555,0.6791,0.707,0.7443,0.8239,0.894,0.9402,0.8979,0.8469,0.7959,0.7446,0.7073,0.6744,0.6228,0.6086,0.6086,0.6086,0.6086,0.6108,0.6187,0.5962,0.5301,0.3939,0.2564,0.1481,0.1113,0.0437,0.0,0.0,0.0,0.0,0.0,0.0,0.0,0.0,0.0,0.0049,0.0243,0.0334,0.0566,0.0896,0.1018,0.119,0.1327,0.1401,0.1256,0.0897,0.1076,0.0628,0.0,0.0,0.0,0.0,0.0,0.0,0.0,0.0,0.0,0.0,0.0,0.0,0.0,0.0,0.0,0.0,0.0,0.0,0.0,0.0,0.0,0.0,0.0,0.0,0.0,0.0,0.5732,0.5125,0.566,0.5847,0.5228,0.5786,0.6149,0.6149,0.6219,0.6265,0.6265,0.6304,0.6399,0.6554,0.6559,0.6432,0.627,0.6273,0.6114,0.5744,0.5744,0.5744,0.5744,0.5744,0.5744,0.5744,0.5744,0.5705,0.5643,0.6004,0.6032,0.5878,0.5751,0.5914,0.6203,0.6203,0.654,0.7065,0.7637,0.7828,0.7924,0.8453,0.9259,0.9923,0.9211,0.883,0.8446,0.764,0.7212,0.6876,0.6347,0.6203,0.6203,0.6203,0.6203,0.6225,0.6306,0.6325,0.615,0.5472,0.3897,0.2581,0.222,0.1237,0.0547,0.0554,0.0252,0.0051,0.0101,0.0152,0.0152,0.0253,0.025,0.0347,0.0496,0.0633,0.0819,0.1156,0.1229,0.1309,0.1496,0.1476,0.142,0.142,0.1774,0.1536,0.0762,0.0,0.0,0.0,0.0,0.0,0.0,0.0,0.0,0.0,0.0,0.0,0.0,0.0,0.0,0.0,0.0,0.0,0.0,0.0,0.0,0.0,0.0,0.0,0.6086,0.6089,0.6092,0.6092,0.6094,0.6097,0.6102,0.6208,0.6331,0.6333,0.6497,0.6624,0.6624,0.6738,0.6804,0.6806,0.6806,0.6809,0.6815,0.6815,0.6815,0.6815,0.6815,0.6815,0.6815,0.6815,0.6815,0.6815,0.6815,0.6812,0.6806,0.6806,0.6804,0.6779,0.6489,0.6445,0.6442,0.6442,0.7434,0.9019,1.06,1.1145,1.1145,1.1145,1.1198,1.1047,1.0265,0.9472,0.8673,0.7879,0.7083,0.6437,0.6437,0.6437,0.6437,0.6437,0.6437,0.6437,0.6437,0.6437,0.6437,0.6437,0.5584,0.4531,0.3425,0.2368,0.1663,0.1663,0.0757,0.0,0.0404,0.0455,0.0505,0.0758,0.0808,0.0808,0.0808,0.1043,0.1179,0.1229,0.1399,0.148,0.148,0.1478,0.1525,0.1525,0.1963,0.2198,0.2199,0.0,0.0,0.0,0.0,0.0,0.0,0.0,0.0,0.0,0.0,0.0,0.0,0.0,0.0,0.0,0.0,0.0,0.0,0.0,0.0,0.0,0.0,0.6187,0.61,0.6162,0.6268,0.6268,0.629,0.6374,0.6464,0.6502,0.6559,0.6649,0.6714,0.6752,0.6752,0.6785,0.6842,0.6931,0.6934,0.6975,0.7111,0.7111,0.7111,0.7111,0.7111,0.7111,0.7111,0.7111,0.7111,0.7111,0.7111,0.701,0.6934,0.6934,0.6883,0.6796,0.6728,0.7007,0.7433,0.7433,0.8022,0.8874,0.9316,0.9862,1.0314,1.0314,1.0703,1.1145,1.0953,1.031,0.9521,0.8676,0.8031,0.7441,0.6839,0.6692,0.6742,0.6939,0.6839,0.6742,0.6939,0.6986,0.6986,0.6986,0.6736,0.6134,0.4878,0.3773,0.3119,0.3317,0.2415,0.0,0.1864,0.116,0.0707,0.0808,0.0606,0.0657,0.1061,0.0955,0.1053,0.1454,0.1526,0.1559,0.1559,0.1538,0.1658,0.2007,0.1921,0.2167,0.0,0.0,0.0,0.0,0.0,0.0,0.0,0.0,0.0,0.0,0.0,0.0,0.0,0.0,0.0,0.0,0.0,0.0,0.0,0.0,0.0,0.0,0.6339,0.6331,0.6312,0.6325,0.6358,0.641,0.6472,0.6562,0.6684,0.6695,0.6725,0.6796,0.685,0.6877,0.6877,0.6923,0.6983,0.7054,0.7111,0.7144,0.721,0.721,0.721,0.721,0.721,0.721,0.721,0.721,0.721,0.721,0.721,0.7172,0.7111,0.7111,0.7231,0.0,0.0,0.0,0.0,0.0,0.8864,0.9476,0.9829,1.0181,1.0507,1.0507,1.0806,1.1149,1.0801,1.0364,0.9772,0.8627,0.8081,0.7637,0.6839,0.6639,0.6689,0.6989,0.6892,0.6892,0.7138,0.7188,0.7188,0.7188,0.7188,0.0,0.6334,0.5227,0.447,0.4668,0.3767,0.3118,0.3218,0.2717,0.2167,0.1866,0.1665,0.1514,0.1364,0.1212,0.0,0.0,0.0,0.1789,0.1789,0.1818,0.0,0.0,0.0,0.2327,0.2739,0.0,0.0,0.0,0.2275,0.205,0.0,0.0,0.0,0.0,0.0,0.0,0.0,0.0,0.0,0.0,0.0,0.0,0.0,0.0,0.0,0.0,0.6398,0.6443,0.6603,0.6487,0.6468,0.6627,0.6641,0.6687,0.6812,0.6823,0.6828,0.6842,0.6942,0.7005,0.7005,0.0,0.0,0.0,0.0,0.721,0.721,0.721,0.721,0.721,0.721,0.721,0.721,0.721,0.721,0.721,0.721,0.7265,0.7321,0.7321,0.7873,0.8566,0.76,0.7243,0.7452,0.9003,0.9943,1.0577,1.1295,0.0,0.0,1.1231,1.1217,1.1047,1.0364,1.0068,0.9719,0.8276,0.7779,0.7481,0.6786,0.6537,0.6489,0.6792,0.6842,0.6942,0.7188,0.7288,0.7288,0.7288,0.7288,0.7391,0.7596,0.6631,0.5824,0.5874,0.497,0.4368,0.457,0.452,0.4171,0.3473,0.0,0.0,0.2019,0.1717,0.1617,0.1818,0.197,0.2021,0.2021,0.2266,0.2278,0.2011,0.2385,0.2572,0.2568,0.2793,0.2925,0.292,0.292,0.292,0.0,0.0,0.0,0.0,0.0,0.0,0.0,0.0,0.0,0.0,0.0,0.0,0.0,0.0,0.0,0.6387,0.6468,0.6592,0.6616,0.6684,0.6741,0.6763,0.6766,0.6815,0.6937,0.695,0.6989,0.7136,0.7163,0.7177,0.7177,0.7199,0.721,0.721,0.721,0.721,0.721,0.721,0.721,0.721,0.0,0.0,0.721,0.721,0.721,0.721,0.721,0.7598,0.8263,0.8263,0.8758,0.9559,0.9908,1.004,1.013,1.0984,1.1428,1.155,1.1709,1.1624,1.1453,1.1453,1.1335,1.1145,1.1002,1.0507,0.0,0.962,0.8779,0.7889,0.7739,0.7191,0.6792,0.7039,0.7138,0.7191,0.7444,0.7693,0.7839,0.7839,0.7839,0.7839,0.7892,0.754,0.7288,0.7487,0.6631,0.5932,0.6032,0.5277,0.4674,0.4524,0.3522,0.3222,0.4124,0.2421,0.1817,0.3126,0.2674,0.2321,0.2321,0.2386,0.2456,0.2537,0.2641,0.2777,0.2896,0.2941,0.2964,0.292,0.292,0.292,0.0,0.0,0.0,0.0,0.0,0.0,0.0,0.0,0.0,0.0,0.0,0.6942,0.0,0.0,0.6559,0.6518,0.6581,0.6662,0.6785,0.6855,0.6893,0.6893,0.6893,0.694,0.7114,0.7125,0.715,0.7204,0.721,0.721,0.721,0.721,0.721,0.721,0.721,0.721,0.721,0.721,0.721,0.721,0.721,0.721,0.721,0.721,0.7432,0.7875,0.7875,0.8371,0.9196,0.964,1.013,1.0683,1.1326,1.1307,1.0974,1.1309,1.164,1.1926,1.1926,1.1841,1.1652,1.1548,1.1444,1.1335,1.1227,1.09,1.0511,1.0117,0.9525,0.8829,0.7985,0.7487,0.7188,0.7039,0.7089,0.7288,0.7543,0.7793,0.7988,0.7988,0.7988,0.7988,0.7988,0.7892,0.7842,0.7992,0.7537,0.7188,0.7188,0.6734,0.6179,0.5679,0.4977,0.4676,0.4774,0.3673,0.3423,0.4329,0.4126,0.4024,0.4024,0.3743,0.3561,0.3477,0.3108,0.2968,0.3051,0.3019,0.2989,0.2961,0.2932,0.292,0.0,0.0,0.0,0.0,0.0,0.0,0.0,0.0,0.7344,0.7089,0.7036,0.6998,0.6773,0.6779,0.6721,0.6635,0.6673,0.676,0.6956,0.7005,0.7018,0.7018,0.7018,0.7054,0.7202,0.721,0.721,0.721,0.721,0.721,0.721,0.721,0.721,0.721,0.721,0.721,0.721,0.7235,0.7245,0.7245,0.727,0.7323,0.7469,0.7469,0.7955,0.8758,0.8923,0.9434,1.0177,1.1067,1.1569,1.1772,1.2303,1.2064,1.1397,1.1358,1.1688,1.2142,1.2142,1.2006,1.1855,1.1694,1.1586,1.1487,1.1312,1.1281,1.1243,1.056,1.0359,1.001,0.8715,0.8269,0.7971,0.7335,0.7385,0.7587,0.7593,0.7793,0.7988,0.7988,0.7988,0.7988,0.7988,0.7988,0.7988,0.7988,0.7988,0.7988,0.7988,0.7988,0.769,0.6786,0.6537,0.5982,0.4974,0.5127,0.5277,0.5329,0.5625,0.5772,0.5772,0.5329,0.4995,0.472,0.4085,0.3757,0.3733,0.3673,0.3544,0.3297,0.3235,0.3108,0.7892,0.7743,0.0,0.7288,0.7238,0.7191,0.0,0.0,0.6792,0.6537,0.6487,0.652,0.6629,0.66,0.6641,0.676,0.6872,0.6953,0.698,0.7128,0.7191,0.7191,0.7191,0.7196,0.721,0.721,0.721,0.721,0.721,0.721,0.721,0.721,0.721,0.721,0.721,0.721,0.721,0.726,0.7315,0.7315,0.7426,0.7824,0.8508,0.8508,0.894,0.9688,1.0464,1.0994,1.1307,1.2218,1.2735,1.2899,1.281,1.2674,1.2594,1.2348,1.2313,1.2354,1.2354,1.2217,1.2048,1.2024,1.1766,1.1515,1.1487,1.1697,1.1883,1.1785,1.1575,1.137,1.1219,1.0623,0.9829,0.8806,0.8764,0.8722,0.7793,0.7793,0.7988,0.7988,0.7988,0.7988,0.7988,0.7988,0.7988,0.7988,0.7988,0.7988,0.7988,0.7988,0.7939,0.7839,0.6986,0.6084,0.5229,0.6232,0.6634,0.5929,0.6176,0.6323,0.6323,0.6274,0.6218,0.6153,0.6053,0.6002,0.5945,0.593,0.5394,0.4403,0.4408,0.3875,0.759,0.0,0.0,0.0,0.6992,0.6942,0.6842,0.6795,0.6742,0.6437,0.6441,0.661,0.6819,0.6782,0.6871,0.0,0.7217,0.7116,0.7515,0.7346,0.7265,0.7438,0.7268,0.721,0.721,0.721,0.721,0.721,0.721,0.721,0.721,0.721,0.7243,0.7258,0.726,0.7293,0.7366,0.7415,0.7442,0.7442,0.8069,0.853,0.8874,0.9301,0.9906,1.0629,1.1455,1.2289,1.2909,1.3192,1.3738,1.4374,1.4153,1.3984,1.3779,1.3178,1.293,1.2985,1.3305,1.3141,1.2837,1.308,1.2803,1.239,1.2496,1.2597,1.2685,1.251,1.2365,1.2209,1.1712,1.1361,1.0867,0.9932,0.9452,0.9069,0.8627,0.8237,0.7988,0.7988,0.7988,0.7988,0.7988,0.7988,0.7988,0.7988,0.7988,0.7988,0.7988,0.7988,0.8038,0.8237,0.7832,0.7481,0.7325,0.7829,0.7978,0.7627,0.7875,0.8028,0.8028,0.7574,0.7322,0.7322,0.6722,0.6399,0.6352,0.6336,0.6034,0.56,0.5536,0.5276,0.7441,0.0,0.0,0.6942,0.6792,0.6692,0.6795,0.6795,0.6742,0.6539,0.6659,0.6847,0.7182,0.7113,0.7225,0.7816,0.7574,0.7445,0.7919,0.7654,0.749,0.766,0.7546,0.7432,0.7432,0.7265,0.721,0.721,0.721,0.7224,0.7203,0.7203,0.726,0.7325,0.7328,0.7429,0.7516,0.7551,0.757,0.757,0.8301,0.8942,0.9422,1.0538,1.1432,1.2073,1.2678,1.3392,1.4236,1.4081,1.4566,1.5369,1.5131,1.495,1.4645,1.4085,1.3746,1.3635,1.4062,1.3905,1.3609,1.3869,1.3662,1.3268,1.3284,1.3313,1.3364,1.3073,1.3098,1.3093,1.2495,1.2344,1.2145,1.1253,1.0574,1.0096,0.9805,0.9069,0.8432,0.8432,0.8187,0.7988,0.7988,0.7988,0.7988,0.7988,0.7988,0.7988,0.7988,0.8088,0.8237,0.8482,0.8528,0.863,0.8878,0.8928,0.8928,0.9023,0.9179,0.9331,0.9331,0.8726,0.8421,0.8421,0.7673,0.7273,0.7273,0.7229,0.7037,0.6787,0.6706,0.6504,0.0,0.0,0.7188,0.7188,0.6786,0.6487,0.6742,0.6795,0.6795,0.6795,0.6995,0.7276,0.754,0.7595,0.768,0.7941,0.7983,0.7983,0.7989,0.7989,0.7989,0.7989,0.7989,0.7989,0.0,0.7487,0.721,0.721,0.721,0.7206,0.7269,0.7274,0.7328,0.7508,0.7513,0.7513,0.7519,0.7635,0.7695,0.7698,0.7867,0.882,1.0517,1.2583,1.385,1.4492,1.4266,1.4439,1.488,1.4875,1.5155,1.5564,1.5374,1.5137,1.4955,1.5216,1.486,1.4169,1.4169,1.4169,1.4164,1.4213,1.4061,1.3834,1.3591,1.3657,1.381,1.3559,1.3871,1.425,1.4202,1.4202,1.3956,1.2877,1.263,1.2339,1.1365,1.0293,0.9558,0.9558,0.8726,0.7988,0.7988,0.7988,0.7988,0.7988,0.7988,0.7988,0.7988,0.8233,0.8482,0.8775,0.8775,0.8878,0.9183,0.9187,0.9282,0.9579,0.9579,0.9579,0.9579,0.9575,0.9529,0.9529,0.9529,0.9525,0.9525,0.9521,0.8966,0.7961,0.7862,0.7308,0.0,0.0,0.7626,0.7426,0.734,0.7282,0.7244,0.7277,0.725,0.7106,0.7211,0.7454,0.775,0.7762,0.7914,0.8387,0.8207,0.8156,0.8546,0.8269,0.81,0.8318,0.8156,0.0,0.0,0.0,0.0,0.7709,0.785,0.7918,0.7965,0.8042,0.8148,0.8281,0.8287,0.8328,0.8417,0.8461,0.8484,0.8484,1.0027,1.1758,1.3698,1.4427,1.4794,1.4874,1.4793,1.5103,1.5743,1.5743,1.6229,1.6826,1.6798,1.6605,1.6354,1.6266,1.5995,1.5579,1.5409,1.5089,1.4821,1.519,1.5032,1.4652,1.4769,1.4777,1.4619,1.4359,1.4297,1.4298,1.4298,1.4298,1.4196,1.3854,1.3221,1.263,1.229,1.1365,1.0681,1.0681,0.9801,0.9266,0.9998,0.9509,0.9312,0.9998,0.892,0.7988,0.7988,0.8233,0.8478,0.8775,0.8977,0.9179,0.943,0.948,0.9529,0.9579,0.9579,0.9579,0.9579,0.9579,0.9579,0.9579,0.9579,0.9579,0.9579,0.9579,0.9426,0.9072,0.9019,0.8841,0.7858,0.7886,0.7914,0.7865,0.7755,0.7605,0.7618,0.761,0.75,0.7359,0.7513,0.769,0.7996,0.8001,0.8159,0.8639,0.8464,0.8378,0.8819,0.8549,0.838,0.8602,0.8436,0.8325,0.0,0.0,0.0,0.8115,0.8201,0.8352,0.8448,0.8531,0.8639,0.878,0.8783,0.9004,0.9576,0.9576,0.9815,1.0293,1.2032,1.3699,1.5232,1.55,1.5673,1.575,1.5665,1.5989,1.65,1.65,1.689,1.7485,1.7485,1.7322,1.7062,1.6797,1.6525,1.6241,1.5982,1.5678,1.541,1.5785,1.5624,1.5364,1.5473,1.5318,1.5052,1.4793,1.4515,1.4298,1.4298,1.4298,1.4298,1.4298,1.3757,1.327,1.327,1.2441,1.1755,1.1755,1.0877,1.0391,1.1072,1.0632,1.044,1.1219,1.0145,0.9167,0.8775,0.8924,0.9076,0.8977,0.9183,0.943,0.9579,0.9579,0.9579,0.9579,0.9579,0.9579,0.9579,0.9579,0.9579,0.9579,0.9579,0.9579,0.9579,0.9579,0.9579,0.9579,0.9579,0.9579,0.8231,0.8122,0.8059,0.8406,0.8027,0.7615,0.7862,0.7756,0.7656,0.7646,0.7842,0.8032,0.0,0.0,0.8364,0.8642,0.8699,0.876,0.8851,0.8878,0.8937,0.0,0.0,0.0,0.0,0.0,0.0,0.8366,0.0,0.849,0.8753,0.8835,0.8897,0.9031,0.9095,0.9754,1.0952,1.0952,1.1607,1.2855,1.376,1.454,1.5262,1.5873,1.6535,1.7098,1.6845,1.6881,1.7111,1.7111,1.7255,1.7485,1.7485,1.7328,1.708,1.6821,1.6543,1.6266,1.6,1.5897,1.5891,1.5891,1.5891,1.5843,1.5596,1.5324,1.5059,1.4805,1.4521,1.4298,1.4298,1.4298,1.4298,1.4298,1.4298,1.4298,1.4298,1.3511,1.278,1.278,1.2047,1.1365,1.1317,1.1365,1.1517,1.1755,1.1755,1.1365,1.0243,1.035,1.0212,0.943,0.9575,0.9772,0.9772,0.9727,0.9673,0.9673,0.9628,0.9579,0.9579,0.9579,0.9579,0.9579,0.9579,0.9579,0.9579,0.9579,0.9579,0.9579,0.9579,0.9579,0.831,0.8376,0.8498,0.8642,0.8518,0.8408,0.8347,0.8213,0.8079,0.7915,0.7939,0.8002,0.0,0.0,0.0,0.837,0.8567,0.0,0.8764,0.8811,0.0,0.0,0.0,0.9265,1.0131,0.9586,0.0,0.0,0.9093,0.9175,0.9361,1.0363,1.0921,1.0967,1.1985,1.2642,1.2942,1.2942,1.3596,1.4847,1.509,1.5806,1.6879,1.7061,1.7265,1.7376,1.7316,1.7322,1.7382,1.7382,1.7418,1.7485,1.7485,1.7443,1.7352,1.7086,1.6821,1.6555,1.6278,1.6054,1.5891,1.5891,1.5891,1.5879,1.5813,1.5469,1.5095,1.5028,1.4666,1.4298,1.4298,1.4298,1.4298,1.4298,1.4298,1.4298,1.4298,1.41,1.3956,1.4148,1.4148,1.3859,1.3076,1.3565,1.4154,1.4202,1.4202,1.3516,1.1658,1.1658,1.176,1.1517,1.176,1.1907,1.1907,1.1224,1.0788,1.0788,1.0064,0.9579,0.9579,0.9579,0.9579,0.9579,0.9579,0.9579,0.9579,0.9579,0.9579,0.9579,0.9579,0.9579,0.8347,0.8533,0.871,0.871,0.8659,0.857,0.8425,0.8275,0.8143,0.8008,0.8092,0.0,0.0,0.0,0.0,0.0,0.0,0.0,0.8693,0.9215,0.9676,0.0,0.9809,0.0,1.0617,1.0285,1.0288,0.0,1.0597,1.0362,1.0528,1.1815,1.259,1.259,1.3306,1.3963,1.456,1.5095,1.5752,1.6408,1.6408,1.6826,1.7485,1.7485,1.7485,1.7485,0.0,1.7485,1.7485,1.7485,1.7485,1.7485,1.7485,1.7485,1.7449,1.7189,1.6923,1.6664,1.6374,1.6109,1.5891,1.5891,1.5891,1.5891,1.5891,1.5602,1.5252,1.5143,1.4805,1.4455,1.4328,1.4394,1.4496,1.4496,1.4592,1.464,1.464,1.464,1.4688,1.4838,1.4987,1.4885,1.4298,1.4688,1.5131,1.5267,1.5267,1.4873,1.374,1.3258,1.2829,1.2339,1.2533,1.2678,1.2678,1.2193,1.1853,1.1853,1.1272,1.0939,1.0939,1.0939,1.0939,1.0939,1.0939,1.0743,1.0306,1.0306,1.0064,0.9579,0.9579,0.9677,0.8448,0.8608,0.8733,0.8716,0.8594,0.8445,0.8354,0.815,0.7995,0.8015,0.0,0.8327,0.8347,0.0,0.8385,0.8435,0.0,0.8387,0.8645,0.9712,1.0166,0.9247,1.0076,1.0781,1.0891,1.1009,1.1586,1.2908,1.236,1.1972,1.1981,1.3246,1.4023,1.4202,1.4202,1.4738,1.5811,1.6944,1.7485,1.7485,1.7485,1.7485,1.7485,1.7485,1.7485,1.7485,1.7485,1.7485,1.7485,1.7485,1.7485,1.7485,1.7485,1.7485,1.7455,1.7231,1.6954,1.6664,1.6416,1.6139,1.5891,1.5891,1.5891,1.5891,1.5891,1.5757,1.5497,1.523,1.497,1.4746,1.4467,1.4592,1.4742,1.4742,1.4933,1.5083,1.5083,1.5131,1.5124,1.5124,1.5178,1.5178,1.5178,1.5178,1.5267,1.5493,1.554,1.5588,1.5784,1.4819,1.38,1.2872,1.2969,1.3113,1.3113,1.2974,1.2926,1.2926,1.278,1.2678,1.2678,1.2678,1.2678,1.2678,1.2678,1.229,1.1414,1.1414,1.0935,1.0015,1.0015,1.0162,0.8476,0.8686,0.8814,0.8743,0.8594,0.8445,0.8354,0.815,0.0,0.0,0.0,0.8357,0.8425,0.8445,0.0,0.8374,0.0,0.0,0.0,0.0,1.0481,0.0,0.0,0.0,0.0,0.0,0.0,0.0,0.0,1.4211,1.3416,1.456,1.5752,1.6826,1.6826,1.6944,1.7185,1.7361,1.7485,1.7485,1.7485,1.7485,1.7485,1.7485,1.7485,1.7485,1.7485,0.0,1.7485,1.7485,1.7485,1.7485,1.7485,1.7485,1.7473,1.743,1.7111,1.6694,1.6646,1.6308,1.5891,1.5891,1.5891,1.5891,1.5891,1.5868,1.5762,1.5529,1.5407,1.5286,1.5009,1.4987,1.5035,1.5035,1.5083,1.5083,1.5083,1.5267,1.5445,1.5445,1.5547,1.5689,1.5689,1.5689,1.5689,1.573,1.5737,1.5778,1.5784,1.5588,1.5391,1.5201,1.5242,1.5248,1.5248,1.4484,1.4004,1.4004,1.3173,1.2678,1.2678,1.2678,1.2678,1.2678,1.2678,1.263,1.2436,1.2436,1.2339,1.215,1.215,1.2198,0.8374,0.8533,0.8665,0.852,0.8425,0.8333,0.8184,0.0,0.0,0.0,0.8841,0.9354,0.9519,0.0,0.0,0.0,0.0,0.0,0.0,0.0,0.0,0.0,0.0,0.0,0.0,0.0,0.0,0.0,0.0,1.574,1.4728,1.593,1.6885,1.7485,1.7485,1.7485,1.7485,1.7485,1.7485,1.7485,1.7485,1.7485,1.7485,1.7485,1.7485,1.7485,1.7485,1.7485,1.7485,1.7485,1.7485,1.7485,1.7485,1.7602,1.7784,1.7784,1.7504,1.7148,1.7148,1.6782,1.6311,1.6311,1.6205,1.6105,1.6258,1.633,1.6241,1.5821,1.5708,1.5611,1.5191,1.522,1.5315,1.5315,1.541,1.5452,1.5452,1.5594,1.5642,1.5642,1.573,1.5784,1.5784,1.5784,1.5784,1.5784,1.5784,1.5784,1.5784,1.5784,1.5784,1.5784,1.5784,1.5784,1.5784,1.535,1.5064,1.5064,1.4621,1.4328,1.4328,1.4328,1.4328,1.4328,1.4328,1.404,1.3511,1.3511,1.3264,1.2678,1.2678,1.2775,0.8323,0.8374,0.8448,0.8357,0.8323,0.8231,0.8025,0.7988,0.0,0.0,0.9486,1.0366,1.0807,0.0,0.0,0.0,0.0,0.0,0.0,0.0,0.0,0.0,0.0,0.0,0.0,0.0,0.0,0.0,0.0,0.0,1.6037,1.6944,1.7485,1.7485,1.7485,1.7485,1.7485,1.7485,1.7485,1.7485,1.7485,1.7485,1.7485,1.7485,1.7485,1.7485,1.7485,1.7485,1.7485,1.7485,1.7485,1.7485,1.7485,1.7726,1.7966,1.7898,1.7798,1.7588,1.7525,1.7162,1.673,1.6783,1.6636,1.6424,1.663,1.673,1.6674,1.6113,1.601,1.5926,1.5367,1.541,1.554,1.554,1.5683,1.5784,1.5784,1.5784,1.5784,1.5784,1.5784,1.5784,1.5784,1.5784,1.5784,1.5784,1.5784,1.5784,1.5784,1.5784,1.5784,1.5784,1.5784,1.5784,1.5784,1.5784,1.5784,1.5784,1.5784,1.5784,1.5784,1.5784,1.5784,1.5784,1.5784,1.5397,1.4634,1.4682,1.4286,1.3457,1.3499,1.3644,0.8323,0.8374,0.8448,0.8357,0.8323,0.8231,0.8025,0.0,0.0,0.9741,1.0132,1.0613,1.1995,1.2226,1.2166,0.0,0.0,0.0,0.0,0.0,0.0,0.0,0.0,0.0,0.0,0.0,0.0,0.0,0.0,0.0,1.7349,1.7426,1.7485,1.7485,1.7485,1.7485,1.7485,1.7485,1.7485,1.7485,1.7485,1.7485,1.7485,1.7485,1.7485,1.7485,1.7485,1.7485,0.0,1.7485,1.7485,1.7485,1.7485,1.7726,1.7935,1.7669,1.756,1.7563,1.7247,1.6949,1.673,1.7067,1.6955,1.6683,1.6677,1.6902,1.7055,1.6431,1.6463,1.6474,1.589,1.5737,1.5784,1.5784,1.5778,1.5784,1.5784,1.5784,1.5784,1.5784,1.5784,1.5784,1.5784,1.5784,1.5784,1.5784,1.5784,1.5784,1.5784,1.5784,1.5784,1.5784,1.5784,1.5784,1.5784,1.5784,1.5784,1.5784,1.5784,1.5784,1.5784,1.5784,1.5784,1.5784,1.5784,1.5737,1.5642,1.5933,1.5981,1.5879,1.6109,1.6244,0.8133,0.8174,0.8201,0.8147,0.8133,0.8263,0.884,0.0,0.0,1.0641,1.1606,1.2403,1.3128,1.336,1.348,1.3388,0.0,0.0,0.0,0.0,0.0,0.0,0.0,0.0,0.0,0.0,0.0,0.0,0.0,0.0,1.6996,1.731,1.7485,1.7485,1.7485,1.7485,1.7485,1.7485,1.7485,1.7485,1.7726,1.7784,1.779,1.7954,1.8071,1.8071,1.8071,1.8071,0.0,1.8071,1.8071,1.8071,1.8071,1.8246,1.8506,1.8154,1.8106,1.8112,1.7768,1.7468,1.7364,1.8146,1.8297,1.8087,1.7417,1.7786,1.8126,1.6874,1.6607,1.6573,1.5985,1.6251,1.6716,1.6716,1.7178,1.7264,1.6062,1.6298,1.6534,1.592,1.5784,1.5784,1.5784,1.5784,1.5784,1.5784,1.5784,1.5784,1.5784,1.5784,1.5784,1.5784,1.5784,1.5784,1.5784,1.5784,1.5784,1.5784,1.5784,1.5784,1.5784,1.5784,1.5784,1.5784,1.5784,1.5879,1.6028,1.617,1.6265,1.6447,1.6541,1.6588,0.8038,0.7988,0.7988,0.7988,0.8287,0.8775,0.0,0.0,1.0591,1.1789,1.2869,1.3722,1.4119,1.4472,1.4696,1.459,1.3715,1.3263,0.0,0.0,0.0,0.0,0.0,0.0,0.0,0.0,0.0,0.0,0.0,0.0,1.6685,1.7116,1.7365,1.7249,1.7328,1.7422,1.7539,1.7624,1.7661,1.7778,1.8018,1.8142,1.8142,1.8305,1.8421,1.8421,1.8421,1.8421,0.0,1.8421,1.859,1.8919,1.8777,1.9199,1.9718,1.9263,1.9216,1.9273,1.8963,1.8703,1.8715,1.9435,1.9901,2.0004,1.8923,1.9079,1.9368,1.7771,1.7207,1.6945,1.6755,1.7225,1.7738,1.7738,1.8288,1.8419,1.6983,1.7225,1.7552,1.6803,1.6709,1.6709,1.6709,1.6709,1.6709,1.6709,1.6709,1.6709,1.6709,1.6709,1.6709,1.6709,1.6709,1.6433,1.5825,1.5879,1.5927,1.5927,1.6244,1.6292,1.5927,1.6204,1.6204,1.5927,1.5927,1.6076,1.6312,1.6414,1.6548,1.673,1.677,1.6817,0.8088,0.7988,0.7988,0.7988,0.9019,0.9998,0.0,0.0,1.2157,1.3281,1.3684,1.4117,1.4957,1.5512,1.5809,1.555,1.5702,0.0,0.0,0.0,0.0,0.0,0.0,0.0,0.0,0.0,0.0,0.0,0.0,0.0,1.6678,1.6938,1.6974,1.6706,1.696,1.7265,1.7602,1.7888,1.8142,1.8421,1.8421,1.8421,1.8421,1.8421,1.8421,1.8421,1.8421,1.8421,0.0,1.8421,1.91,2.0143,1.9729,2.0502,2.1798,2.107,2.0981,2.1249,2.0961,2.0885,2.0885,2.0885,2.1599,2.2274,2.1191,2.0885,2.0609,1.9196,1.8299,1.7927,1.8613,1.8788,1.8788,1.8788,1.8788,1.8788,1.8788,1.8788,1.8788,1.8788,1.8788,1.8788,1.8788,1.8788,1.8788,1.8788,1.8788,1.8788,1.8788,1.8788,1.8788,1.8788,1.8788,1.7956,1.5967,1.6028,1.6224,1.6224,1.7311,1.7444,1.6272,1.7138,1.7232,1.6224,1.6224,1.6312,1.6588,1.6878,1.6979,1.6979,1.7192,1.7279,1.0485,1.0681,1.0681,1.0681,1.0974,1.1512,1.2242,0.0,1.3292,1.4352,1.4814,1.5066,1.5314,1.5682,1.5859,1.5802,1.5694,0.0,0.0,0.0,0.0,0.0,0.0,0.0,0.0,0.0,0.0,0.0,0.0,0.0,1.6703,1.6785,1.6963,1.7241,1.7335,1.7435,1.7547,1.7641,1.7686,1.7792,1.8019,1.8513,1.9222,1.9445,1.9556,1.9612,2.0383,2.0272,1.9612,2.0383,2.0935,2.1306,2.1144,2.1379,2.1759,2.1304,2.1183,2.1241,2.1004,2.0885,2.1038,2.1759,2.2215,2.2577,2.3029,2.2619,2.1627,1.9956,1.9219,1.9036,1.9658,1.984,1.984,1.984,2.0303,2.0402,1.9109,1.9338,1.9613,1.8926,1.8788,1.8834,1.8964,1.8872,1.8834,1.8964,1.8872,1.8834,1.901,1.9001,1.9093,1.9276,1.9093,1.8726,1.8126,1.8133,1.8272,1.8449,1.8172,1.8126,1.8449,1.8087,1.8087,1.8449,1.8449,1.8596,1.888,1.8934,1.8703,1.8203,1.7606,1.7279,0.0,1.1896,1.1896,1.1896,1.2285,0.0,0.0,0.0,1.4532,1.5118,1.5451,1.558,1.5386,1.5624,1.5838,1.5733,1.569,0.0,0.0,0.0,0.0,0.0,0.0,0.0,0.0,0.0,0.0,0.0,0.0,0.0,1.6895,1.6895,1.7116,1.7524,1.7427,1.7429,1.754,1.7642,1.7749,1.7867,1.8512,1.916,1.9804,2.0458,2.073,2.0784,2.1495,2.1387,0.0,2.1495,2.2087,2.2445,2.2315,2.2531,2.2911,2.2533,2.2391,2.2366,2.219,2.2156,2.2266,2.2929,2.3138,2.3288,2.3994,2.3388,2.2314,2.1246,2.0533,2.0243,2.0713,2.0808,2.0853,2.0943,2.141,2.1499,2.0311,2.0619,2.0889,2.0167,2.0113,2.0204,2.0331,2.024,2.0204,2.0331,2.024,2.0204,2.0322,2.0367,2.0413,2.0593,2.0458,2.0367,2.0503,1.9733,1.9376,1.9642,1.9497,1.9451,1.9642,1.9405,1.9351,1.9642,1.9642,1.9786,2.0014,2.0014,1.9786,1.933,1.8696,1.8195,0.0,1.2188,0.0,0.0,0.0,0.0,0.0,0.0,0.0,1.554,1.5683,1.5689,1.522,1.5506,1.573,1.554,1.5683,0.0,0.0,0.0,0.0,0.0,0.0,0.0,0.0,0.0,0.0,0.0,0.0,0.0,1.7226,1.7279,1.7483,1.7687,1.7481,1.7462,1.7726,1.7934,1.83,1.8699,1.9699,2.0229,2.033,2.1363,2.1854,0.0,2.1961,2.19,2.1854,2.1961,2.2654,2.3581,2.3246,2.3785,2.4684,2.4349,2.4202,2.4202,2.4202,2.4202,2.4202,2.4202,2.4202,2.4202,2.4251,2.3488,2.2672,2.2847,2.2167,2.1453,2.1663,2.1687,2.1776,2.2052,2.2097,2.2097,2.2097,2.2274,2.2309,2.2141,2.2264,2.2397,2.2441,2.2388,2.2397,2.2441,2.2388,2.2397,2.2441,2.2441,2.2432,2.2441,2.2441,2.253,2.2803,2.0934,1.9849,2.0113,2.1105,2.1248,2.0158,2.0908,2.0944,2.0158,2.0121,2.0204,2.0413,2.0322,2.0322,2.0277,2.0232,1.9733,1.5003,0.0,1.4854,1.4854,1.5099,0.0,0.0,0.0,0.0,0.0,0.0,0.0,0.0,1.5737,1.5784,1.573,1.5784,0.0,0.0,0.0,0.0,0.0,0.0,0.0,0.0,0.0,0.0,0.0,0.0,1.7424,1.7483,1.8304,1.8767,1.8819,1.9613,1.9606,1.8821,1.8893,1.9409,2.0359,2.0612,2.1123,2.1956,2.2221,2.2324,2.2375,2.3249,2.3148,2.2375,2.33,2.3815,2.4067,2.3976,2.409,2.4339,2.4238,2.4202,2.4202,2.4202,2.4202,2.4251,2.439,2.444,2.4489,2.4686,2.4291,2.3682,2.3085,2.2715,2.2384,2.1852,2.1874,2.2008,2.2097,2.2097,2.2141,2.2309,2.2264,2.2185,2.2309,2.2353,2.2485,2.2662,2.253,2.2485,2.2662,2.253,2.2485,2.2662,2.2715,2.275,2.2916,2.2794,2.2794,2.3013,2.2432,2.2113,2.2325,2.1917,2.1872,2.2325,2.1872,2.1819,2.2325,2.2325,2.2369,2.2413,2.1695,2.1329,2.1329,2.0548,2.0096,1.5784,1.5784,1.5784,1.5784,1.5784,1.5784,0.0,0.0,0.0,0.0,0.0,0.0,0.0,0.0,0.0,0.0,0.0,0.0,0.0,0.0,0.0,0.0,0.0,0.0,0.0,0.0,0.0,0.0,0.0,1.7786,1.8304,1.8864,1.9435,1.9952,2.057,2.0621,2.0004,2.0004,2.0313,2.0885,2.1395,2.1962,2.2526,2.3038,2.3288,2.3288,2.3954,2.3845,2.3338,2.3954,2.4202,2.4202,2.4202,2.4202,2.4202,2.4202,2.4251,2.4341,2.4341,2.4449,2.4538,2.4637,2.4686,2.4735,2.4883,2.4735,2.437,2.3494,2.327,2.3075,2.2257,2.2132,2.2264,2.2407,2.2407,2.2451,2.2574,2.2574,2.2574,2.2574,2.2662,2.2784,2.2925,2.2838,2.2784,2.2925,2.2794,2.2784,2.2925,2.2925,2.2969,2.3101,2.3013,2.2969,2.3101,2.3013,2.2969,2.3091,2.2599,2.2555,2.3091,2.2599,2.2599,2.3091,2.3091,2.3091,2.3091,2.2599,2.2325,2.2325,2.1774,2.132,1.5832,1.5784,1.5784,1.5784,1.5784,1.5784,1.5784,0.0,0.0,0.0,0.0,0.0,0.0,0.0,0.0,0.0,0.0,0.0,0.0,0.0,0.0,0.0,0.0,0.0,0.0,0.0,0.0,0.0,0.0,1.8513,1.9435,1.9591,2.0158,2.1089,2.1293,2.1395,2.1395,2.1242,2.1242,2.1395,2.2316,2.2778,2.2778,2.3746,2.4202,2.4202,0.0,0.0,2.4202,2.4251,2.4251,2.4251,2.4301,2.4301,2.4301,2.4301,2.439,2.4578,2.4578,2.4686,2.4883,2.4941,2.4981,2.499,2.499,2.4982,2.4773,2.4041,2.3775,2.3483,2.2605,2.2432,2.253,2.2759,2.2803,2.2794,2.2838,2.2969,2.3013,2.2882,2.2969,2.3091,2.3091,2.3091,2.3091,2.3091,2.3091,2.3091,2.3091,2.3091,2.3091,2.3091,2.3091,2.3091,2.3091,2.3091,2.3091,2.3091,2.3091,2.3091,2.3091,2.3091,2.3091,2.3091,2.3091,2.3091,2.3091,2.3091,2.3091,2.3091,2.3091,2.2687,1.5879,1.5784,1.5784,1.5784,1.5784,1.5784,1.5784,0.0,0.0,0.0,0.0,0.0,0.0,0.0,0.0,0.0,0.0,0.0,0.0,0.0,0.0,0.0,0.0,0.0,0.0,0.0,0.0,0.0,0.0,2.0467,2.0621,2.1497,2.2064,2.2274,2.3188,2.3687,2.3687,2.2728,2.2728,2.3696,2.3845,2.3945,2.3945,2.4102,2.4202,2.4202,0.0,2.4202,2.4202,2.439,2.443,2.4489,2.4686,2.4784,2.4784,2.4784,2.4784,2.4833,2.4833,2.4883,2.4932,2.5137,2.5235,2.5284,2.5489,2.5324,2.4964,2.4421,2.3998,2.3483,2.2605,2.2574,2.2759,2.2794,2.2803,2.2847,2.3013,2.2925,2.2882,2.3013,2.3091,2.3091,2.3091,2.3091,2.3091,2.3091,2.3091,2.3091,2.3091,2.3091,2.3091,2.3091,2.3091,2.3091,2.3091,2.3091,2.3091,2.3091,2.3091,2.3091,2.3091,2.3091,2.3091,2.3091,2.3091,2.3091,2.3091,2.3091,2.3091,2.3091,2.3091,2.3003,1.6028,1.5927,1.5784,1.5784,1.5784,1.5784,1.5784,0.0,0.0,0.0,0.0,0.0,0.0,0.0,0.0,0.0,0.0,0.0,0.0,0.0,0.0,0.0,0.0,0.0,0.0,0.0,0.0,0.0,0.0,0.0,2.1709,2.2224,2.2778,2.3388,2.3954,2.4202,2.4202,2.3696,2.3696,2.4202,2.4202,2.4202,2.4202,2.4202,2.4251,2.4341,0.0,2.444,2.4597,2.4686,2.4735,2.4735,2.4833,2.4883,2.4932,2.5088,2.5137,2.5137,2.5284,2.5333,2.5333,2.5489,2.5538,2.5538,2.5635,2.543,2.498,2.4541,2.4065,2.3618,2.2948,2.2882,2.2969,2.2969,2.2969,2.2969,2.3091,2.3013,2.3013,2.3091,2.3091,2.3091,2.3091,2.3091,2.3091,2.3091,2.3517,2.3864,2.3864,2.4274,2.4563,2.4563,2.4563,2.4563,2.4563,2.4563,2.4145,2.3178,2.3091,2.3091,2.3091,2.3091,2.3091,2.3091,2.3091,2.3091,2.3091,2.3091,2.3091,2.3091,2.3091,2.3091,1.6224,1.6028,1.5879,1.5879,0.0,1.5784,1.5784,0.0,0.0,0.0,0.0,0.0,0.0,0.0,0.0,0.0,0.0,0.0,0.0,0.0,0.0,0.0,0.0,0.0,0.0,0.0,0.0,0.0,0.0,0.0,2.2828,2.2878,2.3288,2.4152,2.4202,2.4202,2.4251,2.4251,2.4251,2.4202,2.4202,2.4202,2.4251,2.4251,2.439,2.4578,2.4578,2.4735,2.4883,2.499,2.4981,2.4981,2.5088,2.5088,2.5137,2.5333,2.5382,2.544,2.5635,2.5693,2.5693,2.5693,2.5693,2.5693,2.5693,2.5352,2.4844,2.4512,2.4169,2.3821,2.3266,2.3091,2.3091,2.3091,2.3091,2.3091,2.3091,2.3091,2.3178,2.3396,2.344,2.3474,2.3681,2.3724,2.3724,2.3724,2.4317,2.4787,2.4787,2.5368,2.5777,2.5777,2.5777,2.5777,2.5777,2.5777,2.5189,2.381,2.3724,2.3724,2.3724,2.356,2.344,2.344,2.344,2.343,2.3507,2.3517,2.3517,2.3551,2.3353,2.3276,1.6272,1.6177,1.6177,1.6177,1.5974,0.0,1.5784,1.6534,0.0,1.5967,0.0,0.0,0.0,0.0,0.0,0.0,0.0,0.0,0.0,0.0,0.0,0.0,0.0,0.0,0.0,0.0,0.0,0.0,0.0,0.0,2.4053,2.4102,2.4102,2.4202,2.4202,2.4301,2.4489,2.448,2.439,2.4202,2.4202,2.4291,2.448,2.448,2.4637,2.4883,2.4883,2.4883,2.4932,2.5186,2.5284,2.5284,2.5538,2.5635,2.5635,2.5635,2.5684,2.5684,2.5684,2.5693,2.5693,2.5693,2.5693,2.5693,2.5693,2.5089,2.4453,2.4424,2.4436,2.4239,2.3319,2.3091,2.3091,2.3091,2.3091,2.3091,2.3091,2.3091,2.3353,2.4241,2.4413,2.4659,2.5453,2.561,2.561,2.561,2.5652,2.5694,2.5694,2.5746,2.5777,2.5777,2.5777,2.5777,2.5777,2.5777,2.5735,2.561,2.561,2.561,2.561,2.4829,2.4413,2.4413,2.4413,2.4478,2.467,2.4691,2.4776,2.4957,2.4112,2.3754,1.7606,1.7372,1.7185,1.7311,1.7498,0.0,0.0,1.7138,1.7372,1.7638,0.0,0.0,0.0,0.0,0.0,0.0,0.0,0.0,0.0,0.0,0.0,0.0,0.0,0.0,0.0,0.0,0.0,0.0,0.0,0.0,2.4202,2.4202,2.4251,2.439,2.439,2.444,2.448,2.4686,2.4637,2.439,2.4538,2.4686,2.4735,2.4735,2.4883,2.5137,2.5137,2.5235,2.5391,2.5489,2.5538,2.5538,2.5635,2.5693,2.5693,2.5693,2.5693,2.5693,2.5693,2.5693,2.5693,2.5693,2.5693,2.5635,2.541,2.5305,2.5204,2.4931,2.5051,2.4946,2.3474,2.3517,2.381,2.3222,2.3091,2.3266,2.3854,2.3983,2.4241,2.5115,2.5326,2.5411,2.5735,2.5777,2.5777,2.5777,2.6287,2.667,2.667,2.7121,2.7458,2.7458,2.7458,2.7458,2.7458,2.7458,2.7458,2.7458,2.6412,2.5777,2.5777,2.5495,2.5326,2.5326,2.5326,2.54,2.5619,2.563,2.5714,2.5975,2.5652,2.5158,1.8888,1.8657,1.8419,0.0,0.0,0.0,1.8872,1.8603,1.8465,1.8826,0.0,0.0,0.0,0.0,0.0,0.0,0.0,0.0,0.0,0.0,0.0,0.0,0.0,0.0,0.0,0.0,0.0,0.0,0.0,0.0,0.0,2.3895,2.4058,2.4196,2.4365,2.4529,2.4637,2.4883,2.4981,2.4883,2.5088,2.5088,2.5039,2.5039,2.5186,2.544,2.544,2.5538,2.5732,2.6052,2.638,2.6658,2.6658,2.6658,2.661,2.6284,2.6187,2.6187,2.6187,2.6187,2.6235,2.6514,2.6658,2.6567,2.6111,2.6115,2.6188,2.5681,2.5904,2.5872,2.436,2.4445,2.4744,2.4102,2.393,2.4145,2.4787,2.4914,2.5158,2.608,2.6246,2.6329,2.6618,2.6659,2.6659,2.6659,2.7214,2.7603,2.7603,2.8139,2.851,2.851,2.851,2.851,2.851,2.8538,2.8578,2.8578,2.7487,2.6812,2.673,2.6524,2.6442,2.6442,2.6442,2.6513,2.6726,2.6737,2.6871,2.7139,2.6812,2.6348,1.994,1.994,0.0,0.0,0.0,0.0,2.1114,2.0917,2.0322,0.0,0.0,0.0,0.0,0.0,0.0,0.0,0.0,0.0,0.0,0.0,0.0,0.0,0.0,0.0,0.0,0.0,0.0,0.0,0.0,0.0,0.0,2.3279,2.3489,2.3489,2.4168,2.4618,2.4883,2.5177,2.543,2.5693,2.5693,2.5538,2.5284,2.5284,2.543,2.5684,2.5684,2.5742,2.583,2.6781,2.7793,2.868,2.868,2.868,2.8588,2.7558,2.7237,2.7237,2.7237,2.7237,2.7369,2.8402,2.868,2.8582,2.8056,2.7632,2.7206,2.6682,2.6844,2.701,2.608,2.5819,2.583,2.5777,2.5777,2.5777,2.5819,2.5819,2.608,2.701,2.7226,2.747,2.8339,2.851,2.851,2.851,2.851,2.851,2.851,2.851,2.851,2.851,2.851,2.851,2.851,2.8685,2.8791,2.8791,2.9,2.9013,2.8791,2.8171,2.7799,2.7799,2.7799,2.7907,2.8124,2.8119,2.8263,2.8502,2.7557,2.711,2.1159,0.0,0.0,0.0,0.0,0.0,0.0,2.0917,0.0,0.0,0.0,0.0,0.0,0.0,0.0,0.0,0.0,0.0,0.0,0.0,0.0,0.0,0.0,0.0,0.0,0.0,0.0,0.0,0.0,0.0,0.0,2.3598,2.3692,2.3852,2.4022,2.4326,2.4756,2.5034,2.5228,2.544,2.5586,2.5635,2.5586,2.5586,2.5994,2.6733,2.6733,2.7152,2.7851,2.8121,2.8448,2.868,2.868,2.868,2.8669,2.8355,2.8262,2.8262,2.8262,2.8262,2.8297,2.8577,2.8451,2.8034,2.761,2.7578,2.7558,2.7126,2.7545,2.8059,2.7753,2.7713,2.7377,2.6121,2.5777,2.5986,2.6629,2.6794,2.7051,2.7926,2.8247,2.8395,2.8685,2.8816,2.8855,2.8724,2.8816,2.8934,2.8934,2.8934,2.8934,2.8934,2.8934,2.8934,2.8934,2.8973,2.9013,2.9013,2.9197,2.9236,2.9,2.8843,2.8712,2.8712,2.8712,2.8831,2.9003,2.9015,2.9157,2.9417,2.9131,2.8673,2.228,0.0,0.0,0.0,0.0,0.0,0.0,0.0,0.0,0.0,0.0,0.0,0.0,0.0,0.0,0.0,0.0,0.0,0.0,0.0,0.0,0.0,0.0,0.0,0.0,0.0,0.0,0.0,0.0,0.0,0.0,2.336,2.3491,2.3601,2.3855,2.4122,2.4401,2.4674,2.5036,2.5518,2.5896,2.6252,2.6584,2.6386,2.6648,2.7237,2.7605,2.8355,2.928,2.928,2.9521,2.9886,2.9886,2.9886,2.9841,2.9418,2.928,2.928,2.928,2.928,2.9339,2.9512,2.9341,2.8966,2.8284,2.8245,2.8285,2.7824,2.8099,2.851,2.851,2.851,2.8219,2.7121,2.6946,2.7151,2.7701,2.7914,2.8127,2.8657,2.8776,2.8843,2.8922,2.8961,2.8961,2.8922,2.9,2.9091,2.9091,2.9091,2.9091,2.9091,2.9091,2.9091,2.9091,2.917,2.9236,2.9236,2.9443,2.9482,2.9378,2.9378,2.9378,2.9378,2.9378,2.9456,2.956,2.956,2.965,2.9792,2.9792,2.9534,2.3091,0.0,0.0,0.0,0.0,0.0,0.0,0.0,0.0,0.0,0.0,0.0,0.0,0.0,0.0,0.0,0.0,0.0,0.0,0.0,0.0,0.0,0.0,0.0,0.0,0.0,0.0,0.0,0.0,0.0,2.2476,2.2792,2.2991,2.2991,2.3671,2.4067,2.4115,2.4438,2.5042,2.5944,2.6406,2.7042,2.7826,2.7467,2.7379,2.751,2.8541,2.9464,3.0351,3.0351,3.0869,3.1705,3.1705,3.1705,3.1572,3.0678,3.0351,3.0351,3.0351,3.0328,3.0347,3.0751,3.0807,3.0597,2.9634,2.9297,2.9164,2.8683,2.855,2.855,2.855,2.855,2.855,2.855,2.8685,2.8803,2.8831,2.8961,2.9091,2.9091,2.8961,2.8922,2.9091,2.9,2.8961,2.9131,2.9131,2.9131,2.917,2.917,2.917,2.917,2.917,2.917,2.917,2.9314,2.9419,2.9419,2.9663,2.9792,2.9792,2.9792,2.9792,2.9792,2.9792,2.9792,2.9792,2.9792,2.9792,2.9792,2.9792,2.9792,0.0,2.3091,0.0,0.0,0.0,0.0,0.0,0.0,0.0,0.0,0.0,0.0,0.0,0.0,0.0,0.0,0.0,0.0,0.0,0.0,0.0,0.0,0.0,0.0,0.0,0.0,0.0,0.0,0.0,0.0,2.2969,2.3047,2.3095,2.3095,2.3911,2.4561,2.4862,2.5658,2.6321,2.6818,2.6959,2.7092,2.7302,2.8058,2.8819,2.9601,3.0633,3.1193,3.1383,3.1383,3.1516,3.1705,3.1705,3.1705,3.1661,3.1472,3.1383,3.1383,3.1383,3.1109,3.0751,3.086,3.0314,2.9634,2.9557,2.9234,2.887,2.8761,2.8855,2.8934,2.8764,2.8855,2.8973,2.8973,2.8882,2.8843,2.9013,2.9052,2.9091,2.9091,2.9197,2.9263,2.9341,2.9482,2.9585,2.9624,2.9482,2.9392,2.9624,2.9663,2.9663,2.9663,2.9663,2.9663,2.9663,2.9702,2.9702,2.9702,2.9753,2.9792,2.9792,2.9792,2.9792,2.9792,2.9792,2.9792,2.9792,2.9792,2.9792,2.9792,2.9792,2.9792,0.0,0.0,0.0,0.0,0.0,0.0,0.0,0.0,0.0,0.0,0.0,0.0,0.0,0.0,0.0,0.0,0.0,0.0,0.0,0.0,0.0,0.0,0.0,0.0,0.0,0.0,0.0,0.0,0.0,2.3091,2.3091,2.3527,2.3777,2.3777,2.4659,2.5232,2.5423,2.5904,2.6502,2.714,2.7417,2.7867,2.856,2.8869,2.9578,3.0561,3.1364,3.1705,3.1705,3.1705,3.1705,3.1705,3.1705,3.1705,3.1705,3.1705,3.1592,3.1475,3.1475,3.1155,3.0743,3.0488,3.0027,2.9569,2.9422,2.9181,2.8922,2.8922,2.9,2.9091,2.8961,2.9,2.9131,2.9236,2.9145,2.9106,2.9236,2.9326,2.9429,2.9429,2.9404,2.9419,2.956,2.9702,2.9792,2.9792,2.9702,2.965,2.9792,2.9792,2.9792,2.9792,2.9792,2.9792,2.9792,2.9792,2.9792,2.9792,2.9792,2.9792,2.9792,2.9792,2.9792,2.9792,2.9792,2.9792,2.9792,2.9792,2.9792,2.9792,2.9792,2.9792,0.0,0.0,0.0,0.0,0.0,0.0,0.0,0.0,0.0,0.0,0.0,0.0,0.0,0.0,0.0,0.0,0.0,0.0,0.0,0.0,0.0,0.0,0.0,0.0,0.0,0.0,0.0,0.0,0.0,2.3343,2.3343,2.4241,2.4701,2.4701,2.5579,2.6027,2.6027,2.6205,2.667,2.7441,2.7858,2.8704,2.9791,2.9546,2.9926,3.0814,3.1387,3.1616,3.1616,3.1757,3.1793,3.1793,3.1793,3.1793,3.1793,3.1685,3.147,3.1266,3.1126,3.0863,3.0491,3.0036,2.984,2.9681,2.9266,2.917,2.917,2.917,2.917,2.9209,2.917,2.917,2.9248,2.9431,2.947,2.947,2.947,2.965,2.9792,2.9792,2.9611,2.956,2.9753,2.9792,2.9792,2.9792,2.9895,2.9998,2.9998,3.0113,3.019,3.019,3.019,3.019,3.019,3.019,3.019,3.019,3.019,3.019,3.019,3.019,3.019,3.019,2.9934,2.9792,2.9792,2.9792,2.9792,2.9792,2.9792,2.9792,0.0,0.0,0.0,0.0,0.0,0.0,0.0,0.0,0.0,0.0,0.0,0.0,0.0,0.0,0.0,0.0,0.0,0.0,0.0,0.0,0.0,0.0,0.0,0.0,0.0,0.0,0.0,0.0,2.3864,2.4327,2.4327,2.5158,2.5621,2.5621,2.6547,2.701,2.701,2.7753,2.8219,2.8351,2.8411,2.8522,2.8739,2.9325,2.982,3.026,3.0949,3.1253,3.1332,3.2017,3.23,3.23,3.23,3.23,3.2239,3.1706,3.1486,3.1406,3.094,3.0413,3.0,2.9914,2.9582,2.9217,2.9326,2.9341,2.9341,2.9341,2.9534,2.9663,2.9431,2.9521,2.9702,2.974,2.9753,2.9753,2.9753,2.9792,2.9792,2.9792,2.9792,2.9753,2.9792,2.9792,2.9792,2.9792,3.0343,3.0758,3.0758,3.1341,3.1796,3.1796,3.1796,3.1796,3.1796,3.1796,3.1796,3.1796,3.1796,3.1796,3.1796,3.1796,3.1796,3.1796,3.047,2.9792,2.9792,2.9792,2.9792,2.9792,2.9792,2.9792,0.0,0.0,0.0,0.0,0.0,0.0,0.0,0.0,0.0,0.0,0.0,0.0,0.0,0.0,0.0,0.0,0.0,0.0,0.0,0.0,0.0,0.0,0.0,0.0,0.0,0.0,0.0,0.0,2.4701,2.5242,2.5242,2.608,2.6588,2.6588,2.747,2.7926,2.7926,2.8299,2.851,2.851,2.8618,2.8657,2.8657,2.9126,2.9488,2.9859,3.0601,3.0917,3.0942,3.1325,3.1466,3.1466,3.1466,3.1466,3.1441,3.1153,3.0942,3.0717,3.0523,3.0183,2.9816,2.9816,2.9694,2.9495,2.9611,2.9611,2.9611,2.9611,2.9702,2.9792,2.965,2.9702,2.9792,2.9792,2.9792,2.9792,2.9792,2.9792,2.9792,2.9792,2.9792,2.9792,2.9792,3.0139,3.0419,3.0419,3.1095,3.1563,3.1563,3.1892,3.211,3.211,3.211,3.211,3.211,3.211,3.211,3.211,3.211,3.211,3.211,3.211,3.211,3.211,3.1442,3.1084,3.1084,3.0633,3.0419,3.0419,2.9998,2.9792,0.0,0.0,0.0,0.0,0.0,0.0,0.0,0.0,0.0,0.0,0.0,0.0,0.0,0.0,0.0,0.0,0.0,0.0,0.0,0.0,0.0,0.0,0.0,0.0,0.0,0.0,0.0,0.0,2.5663,2.6163,2.6163,2.7051,2.751,2.751,2.8179,2.851,2.851,2.851,2.855,2.8578,2.8724,2.8843,2.8882,2.9079,2.93,2.9585,3.0298,3.0585,3.0598,3.0803,3.0865,3.0865,3.0865,3.0865,3.0852,3.0717,3.053,3.0266,3.0169,2.9949,2.9792,2.9792,2.9792,2.9792,2.9792,2.9792,2.9792,2.9792,2.9792,2.9792,2.9792,2.9934,3.0075,3.0075,3.0254,3.0292,2.9869,2.9792,2.9869,3.0024,3.0075,3.0139,3.0368,3.0846,3.118,3.118,3.1892,3.2362,3.2362,3.2555,3.2698,3.2698,3.2698,3.2698,3.2698,3.2698,3.2698,3.2698,3.2698,3.2698,3.2698,3.2698,3.2698,3.2698,3.2698,3.2484,3.211,3.1489,3.118,3.1193,3.0419,3.0075,0.0,0.0,0.0,0.0,0.0,0.0,0.0,0.0,0.0,0.0,0.0,0.0,0.0,0.0,0.0,0.0,0.0,0.0,0.0,0.0,0.0,0.0,0.0,0.0,0.0,0.0,0.0,0.0,2.6588,2.7144,2.7144,2.7966,2.8431,2.8431,2.8471,2.851,2.851,2.851,2.8618,2.8803,2.8791,2.8882,2.9091,2.9275,2.9392,2.9454,3.0065,3.0313,3.039,3.1063,3.1345,3.1345,3.1345,3.1345,3.1283,3.0794,3.0593,3.0505,3.0018,2.9817,2.9792,2.9792,2.9792,2.9792,2.9792,2.9792,2.9792,2.9792,2.9792,2.9792,2.9792,3.0305,3.0857,3.0857,3.1415,3.1576,3.0113,2.9792,2.9998,3.072,3.0857,3.1082,3.1856,3.2001,3.2051,3.2051,3.2684,3.3143,3.3143,3.3825,3.4264,3.4264,3.4264,3.4264,3.4264,3.4264,3.4264,3.4264,3.4264,3.4264,3.4264,3.4264,3.4264,3.4264,3.4264,3.3569,3.211,3.2037,3.2051,3.2015,3.123,3.0857,0.0,0.0,0.0,0.0,0.0,0.0,0.0,0.0,0.0,0.0,0.0,0.0,0.0,0.0,0.0,0.0,0.0,0.0,0.0,0.0,0.0,0.0,0.0,0.0,0.0,0.0,0.0,0.0,0.0,2.8007,2.8007,2.8351,2.851,2.851,2.851,2.851,2.851,2.8618,2.8724,2.8791,2.9067,2.9223,2.9314,2.956,2.965,2.9663,2.9875,2.9963,3.0015,3.0242,3.0369,3.0369,3.0369,3.0369,3.0344,3.0156,3.0093,3.0055,2.9867,2.9792,2.9895,3.0343,3.052,3.0582,3.1108,3.1294,3.1294,3.1294,3.1294,3.1294,3.1294,3.1466,3.1673,3.1673,3.1892,3.1942,3.1405,3.1294,3.1368,3.1599,3.1673,3.1746,3.2051,3.2506,3.2791,3.2791,3.3451,3.3962,3.3962,3.423,3.4414,3.4414,3.4414,3.4414,3.4414,3.4414,3.4414,3.4414,3.4414,3.4414,3.4414,3.4414,3.4414,3.4414,3.4414,3.4128,3.3583,3.3052,3.2791,3.2791,3.2119,3.1815,0.0,0.0,0.0,0.0,0.0,0.0,0.0,0.0,0.0,0.0,0.0,0.0,0.0,0.0,0.0,0.0,0.0,0.0,0.0,0.0,0.0,0.0,0.0,0.0,0.0,0.0,0.0,0.0,0.0,0.0,2.851,2.851,2.851,2.851,2.8578,2.8618,2.8618,2.8803,2.8922,2.8988,2.9263,2.947,2.956,2.9702,2.9934,3.0177,3.0177,3.0037,2.983,3.0075,3.0177,3.0216,3.047,3.0583,3.0583,3.0583,3.0583,3.0583,3.0583,3.0583,3.0646,3.1119,3.1291,3.1415,3.1928,3.211,3.211,3.211,3.211,3.211,3.211,3.229,3.2541,3.2804,3.2875,3.2875,3.2875,3.2484,3.2182,3.2434,3.247,3.2541,3.284,3.3276,3.3589,3.3589,3.4079,3.4414,3.4414,3.4414,3.4414,3.4414,3.4414,3.4414,3.4414,3.4414,3.4414,3.4414,3.4414,3.4414,3.4414,3.4448,3.4481,3.4481,3.4534,3.4582,3.4582,3.3997,3.3693,3.3693,3.3094,3.2642,0.0,0.0,0.0,0.0,0.0,0.0,0.0,0.0,0.0,0.0,0.0,0.0,0.0,0.0,0.0,0.0,0.0,0.0,0.0,0.0,0.0,0.0,0.0,0.0,0.0,0.0,0.0,0.0,2.851,2.851,2.851,2.851,2.851,2.851,2.8685,2.8791,2.8791,2.9013,2.9197,2.9419,2.9419,2.9586,2.983,2.9869,3.0241,3.0932,3.0932,3.052,2.9934,3.0658,3.0932,3.1007,3.1783,3.211,3.211,3.211,3.211,3.211,3.211,3.211,3.211,3.211,3.211,3.2146,3.2146,3.216,3.216,3.216,3.216,3.216,3.216,3.2684,3.3437,3.423,3.4414,3.4414,3.4414,3.3206,3.2362,3.3087,3.3227,3.3485,3.4264,3.4414,3.4414,3.4414,3.4414,3.4414,3.4414,3.4414,3.4414,3.4414,3.4414,3.4414,3.4414,3.4414,3.4414,3.4414,3.4414,3.4414,3.4414,3.4597,3.4698,3.4698,3.4835,3.4902,3.4902,3.475,3.4698,3.4698,3.4133,3.3422,2.9624,0.0,0.0,0.0,0.0,0.0,0.0,0.0,0.0,0.0,0.0,0.0,0.0,0.0,0.0,0.0,0.0,0.0,0.0,0.0,0.0,0.0,0.0,0.0,0.0,0.0,0.0,0.0,2.8578,2.8538,2.8724,2.8724,2.8724,2.8724,2.8922,2.9013,2.9013,2.9236,2.9341,2.9419,3.0152,3.0532,3.062,3.122,3.1576,3.1783,3.1783,3.1636,3.1479,3.1673,3.1783,3.1783,3.2001,3.211,3.211,3.211,3.211,3.211,3.211,3.211,3.2182,3.272,3.2897,3.3003,3.3604,3.3756,3.3756,3.3756,3.3756,3.3756,3.3756,3.3908,3.4113,3.4346,3.4414,3.4414,3.4414,3.4045,3.3825,3.4045,3.4079,3.4147,3.4346,3.4414,3.4414,3.4414,3.4414,3.4414,3.4414,3.4414,3.4414,3.4414,3.4414,3.4414,3.4414,3.4414,3.4414,3.4414,3.4414,3.4414,3.4414,3.4597,3.4698,3.4698,3.4835,3.4902,3.4902,3.4868,3.4835,3.4835,3.4835,3.4787,0.0,0.0,0.0,0.0,0.0,0.0,2.917,2.9091,0.0,0.0,0.0,0.0,0.0,0.0,0.0,0.0,0.0,0.0,0.0,0.0,0.0,0.0,0.0,0.0,0.0,2.8697,2.8816,2.8922,2.8816,2.8816,2.8922,2.8922,2.8922,2.8922,2.9118,2.9236,2.9236,2.9443,2.9741,3.0037,3.0632,3.1082,3.1415,3.1892,3.2254,3.2541,3.2541,3.2769,3.3066,3.3066,3.2875,3.2577,3.2911,3.3066,3.3066,3.3066,3.3066,3.3066,3.3066,3.3066,3.3136,3.3555,3.3707,3.3776,3.4264,3.4414,3.4414,3.4414,3.4414,3.4414,3.4414,3.4414,3.4414,3.4414,3.4414,3.4414,3.4414,3.4414,3.4414,3.4414,3.4414,3.4414,3.4414,3.4414,3.4414,3.4414,3.4414,3.4414,3.4414,3.4414,3.4414,3.4414,3.4414,3.4414,3.4414,3.4481,3.4481,3.4414,3.4534,3.4582,3.4515,3.475,3.4898,3.4898,3.5082,3.5148,3.5148,3.5082,3.5082,3.5148,3.5261,3.5392,0.0,0.0,0.0,0.0,0.0,0.0,2.9209,2.917,2.917,0.0,0.0,0.0,0.0,0.0,0.0,0.0,0.0,0.0,0.0,0.0,0.0,0.0,0.0,0.0,2.8843,2.9013,2.9091,2.9131,2.9131,2.9131,2.9091,2.9131,2.9131,2.9131,2.9353,2.9419,2.9419,2.9767,3.0241,3.0895,3.1068,3.1513,3.2232,3.229,3.272,3.3332,3.3332,3.3742,3.4414,3.4414,3.3977,3.3402,3.4113,3.4414,3.4414,3.4414,3.4414,3.4414,3.4414,3.4414,3.4414,3.4414,3.4414,3.4414,3.4414,3.4414,3.4414,3.4414,3.4414,3.4414,3.4414,3.4414,3.4414,3.4414,3.4414,3.4414,3.4414,3.4414,3.4414,3.4414,3.4414,3.4414,3.4414,3.4414,3.4414,3.4414,3.4414,3.4414,3.4414,3.4414,3.4448,3.4448,3.4448,3.4448,3.4448,3.4616,3.4664,3.4481,3.4735,3.4835,3.4731,3.5016,3.518,3.518,3.5392,3.5504,3.5504,3.5326,3.5326,3.5504,3.5504,3.5504,0.0,0.0,0.0,0.0,0.0,0.0,2.9663,2.9663,2.9585,0.0,0.0,0.0,0.0,0.0,0.0,0.0,0.0,0.0,0.0,0.0,0.0,0.0,0.0,0.0,2.9052,2.9091,2.917,2.9341,2.9341,2.9275,2.9091,2.9236,2.9341,2.9341,2.9573,2.9702,2.9702,3.0368,3.0758,3.0932,3.2169,3.2812,3.3003,3.3638,3.4045,3.4147,3.4147,3.4264,3.4414,3.4414,3.4298,3.4182,3.4346,3.4414,3.4414,3.4414,3.4414,3.4414,3.4414,3.4414,3.4414,3.4414,3.4414,3.4414,3.4414,3.4414,3.4414,3.4414,3.4414,3.4414,3.4414,3.4414,3.4414,3.4414,3.4414,3.4414,3.4414,3.4414,3.4414,3.4414,3.4414,3.4414,3.4414,3.4414,3.4414,3.4414,3.4414,3.4448,3.4631,3.4631,3.4683,3.4802,3.4802,3.4802,3.4802,3.4835,3.4835,3.4802,3.4868,3.4902,3.4868,3.5082,3.518,3.518,3.5392,3.5504,3.5504,3.5472,3.5472,3.5504,3.5504,3.5504,0.0,0.0,0.0,2.9792,0.0,0.0,0.0,2.9792,2.9753,2.9611,0.0,0.0,0.0,0.0,0.0,0.0,0.0,0.0,0.0,0.0,0.0,0.0,0.0,0.0,2.9236,2.9365,2.9495,2.9611,2.9599,2.9573,2.9456,2.9871,2.9986,2.9599,3.0495,3.0746,3.0343,3.1095,3.1659,3.206,3.2812,3.3402,3.3811,3.423,3.4414,3.4414,3.4414,3.4414,3.4414,3.4414,3.4414,3.4414,3.4414,3.4414,3.4414,3.4414,3.4414,3.4414,3.4414,3.4414,3.4414,3.4414,3.4414,3.4414,3.4414,3.4414,3.4414,3.4414,3.4414,3.4414,3.4414,3.4414,3.4414,3.4414,3.4414,3.4414,3.4414,3.4414,3.4481,3.4769,3.4787,3.4687,3.4448,3.4414,3.4414,3.4414,3.4635,3.482,3.4935,3.5299,3.5561,3.5657,3.577,3.585,3.585,3.5929,3.5961,3.585,3.6055,3.5976,3.5559,3.5703,3.5653,3.5359,3.5439,3.5504,3.5504,3.5504,3.5504,3.5504,3.5504,3.5504,0.0,0.0,0.0,0.0,0.0,2.9792,0.0,0.0,0.0,2.9792,0.0,0.0,0.0,0.0,0.0,0.0,0.0,0.0,0.0,0.0,0.0,0.0,0.0,0.0,2.947,2.965,2.9792,2.9792,2.9934,2.9998,2.9998,3.0733,3.0846,3.0254,3.1442,3.1783,3.1156,3.1928,3.2613,3.3178,3.3367,3.3776,3.4414,3.4414,3.4414,3.4414,3.4414,3.4414,3.4414,3.4414,3.4414,3.4414,3.4414,3.4414,3.4414,3.4414,3.4414,3.4414,3.4414,3.4414,3.4414,3.4414,3.4414,3.4448,3.4414,3.4448,3.4481,3.4481,3.4448,3.4448,3.4448,3.4534,3.462,3.462,3.4739,3.4872,3.4872,3.4872,3.499,3.5432,3.5497,3.5335,3.4787,3.4754,3.4787,3.4787,3.5187,3.5529,3.5561,3.6134,3.6538,3.66,3.6798,3.6904,3.6904,3.704,3.7086,3.6934,3.7235,3.7101,3.6461,3.6554,3.6368,3.5893,3.5861,3.5861,3.5861,3.5861,3.5733,3.5504,3.5504,3.5504,0.0,0.0,0.0,0.0,2.9792,0.0,0.0,0.0,2.9792,2.9792,0.0,0.0,0.0,0.0,0.0,0.0,0.0,0.0,0.0,0.0,0.0,0.0,0.0,0.0,0.0,2.9792,2.9792,2.9792,3.0419,3.0796,3.0796,3.1526,3.1942,3.1833,3.2015,3.2037,3.1965,3.272,3.3108,3.3213,3.3928,3.4298,3.4414,3.4414,3.4414,3.4414,3.4414,3.4414,3.4414,3.4414,3.4414,3.4414,3.4414,3.4414,3.4414,3.4414,3.4414,3.4414,3.4414,3.4414,3.4414,3.4414,3.4515,3.4631,3.4448,3.4601,3.4802,3.4683,3.4664,3.4664,3.4664,3.507,3.5467,3.5467,3.6025,3.6538,3.6538,3.6538,3.6569,3.663,3.663,3.643,3.5849,3.5992,3.6166,3.6166,3.643,3.6661,3.6844,3.6965,3.7086,3.7265,3.7294,3.7324,3.7324,3.7354,3.737,3.7324,3.7354,3.737,3.728,3.728,3.7251,3.7191,3.7191,3.7191,3.7191,3.7191,3.6616,3.5504,3.5504,3.5504,0.0,0.0,0.0,0.0,0.0,0.0,2.9895,0.0,3.0317,0.0,0.0,0.0,0.0,0.0,0.0,0.0,3.1121,0.0,0.0,0.0,0.0,0.0,0.0,0.0,0.0,0.0,0.0,3.0444,3.1169,3.1599,3.1599,3.2326,3.2541,3.211,3.296,3.3206,3.2755,3.352,3.3894,3.3894,3.423,3.4414,3.4414,3.4414,3.4414,3.4414,3.4515,3.4563,3.4597,3.465,3.4702,3.4702,3.4702,3.465,3.4582,3.4668,3.4702,3.4702,3.4702,3.4702,3.4702,3.4702,3.4735,3.4868,3.5169,3.535,3.5544,3.5834,3.5914,3.5914,3.5914,3.6119,3.6291,3.6291,3.6553,3.6797,3.6797,3.6797,3.6888,3.7203,3.7279,3.7279,3.7326,3.6935,3.663,3.663,3.6994,3.7279,3.7383,3.7809,3.8112,3.8197,3.8383,3.8495,3.8495,3.8495,3.8495,3.8495,3.8124,3.7908,3.7908,3.7605,3.7399,3.7399,3.7399,3.7399,3.7399,3.7399,3.7131,3.6585,3.6196,3.6022,3.0444,0.0,0.0,0.0,0.0,0.0,0.0,0.0,0.0,0.0,0.0,0.0,0.0,0.0,0.0,0.0,0.0,3.211,0.0,0.0,0.0,0.0,0.0,0.0,0.0,0.0,0.0,3.123,3.1965,3.2398,3.2398,3.3122,3.3262,3.2733,3.3825,3.4113,3.352,3.4113,3.4414,3.4414,3.4414,3.4414,3.4414,3.4448,3.4481,3.4481,3.4698,3.475,3.475,3.4868,3.5019,3.5184,3.5234,3.5314,3.5299,3.5019,3.4902,3.4902,3.4902,3.5019,3.5201,3.5382,3.5479,3.5561,3.6024,3.6197,3.6399,3.6768,3.6873,3.6873,3.6873,3.7024,3.7174,3.7174,3.7322,3.7469,3.7469,3.7469,3.7602,3.801,3.8067,3.8197,3.8572,3.7924,3.7352,3.7352,3.7764,3.8067,3.8067,3.8579,3.8958,3.8958,3.9148,3.9299,3.9299,3.9299,3.9299,3.9299,3.8827,3.8562,3.8562,3.8153,3.7924,3.7924,3.7924,3.7924,3.7924,3.7924,3.7924,3.7895,3.7041,3.6662,0.0,0.0,0.0,3.2051,0.0,0.0,0.0,0.0,3.2037,0.0,0.0,0.0,0.0,0.0,0.0,3.211,0.0,0.0,0.0,0.0,0.0,0.0,0.0,0.0,0.0,0.0,3.2037,3.2037,3.2755,3.3143,3.3143,3.3928,3.4346,3.4346,3.4366,3.438,3.4346,3.438,3.4414,3.4414,3.4414,3.4414,3.4414,3.4597,3.4698,3.4698,3.4835,3.4902,3.4902,3.4902,3.5267,3.5881,3.607,3.6508,3.6844,3.5415,3.4902,3.4902,3.4902,3.5332,3.5961,3.6538,3.6889,3.6995,3.6813,3.704,3.731,3.7145,3.7086,3.7086,3.7086,3.756,3.8051,3.8051,3.8662,3.9218,3.9218,3.9218,3.9202,3.9245,3.9245,3.9245,3.9272,3.8969,3.8733,3.8733,3.904,3.9245,3.9245,3.9272,3.9272,3.9272,3.9299,3.9299,3.9299,3.9299,3.9299,3.9299,3.9272,3.9272,3.9272,3.9245,3.9245,3.9245,3.9245,3.9245,3.9245,3.9245,3.9245,3.9202,3.7953,3.737,0.0,0.0,3.272,3.2218,0.0,0.0,0.0,0.0,0.0,0.0,0.0,0.0,0.0,0.0,3.3017,3.3534,3.3604,0.0,0.0,0.0,0.0,0.0,0.0,0.0,0.0,0.0,0.0,3.2826,3.3555,3.3997,3.3997,3.4264,3.4414,3.4414,3.4414,3.4414,3.4414,3.4414,3.4414,3.4414,3.4515,3.4597,3.4582,3.475,3.4835,3.4883,3.5509,3.5752,3.5816,3.6337,3.6692,3.692,3.6981,3.7131,3.7235,3.6722,3.6538,3.6538,3.6538,3.6692,3.6951,3.7145,3.7235,3.7354,3.769,3.7908,3.8051,3.8451,3.8551,3.8551,3.8551,3.8733,3.8898,3.8898,3.9094,3.9299,3.9299,3.9299,3.9299,3.9299,3.9299,3.9299,3.9299,3.9218,3.9121,3.9121,3.9245,3.9299,3.9299,3.9299,3.9299,3.9299,3.9299,3.9299,3.9299,3.9299,3.9299,3.9299,3.9299,3.9299,3.9299,3.9299,3.9299,3.9299,3.9299,3.9299,3.9299,3.9299,3.9299,3.9299,3.886,3.8423,3.2925,3.3276,0.0,3.303,3.3276,0.0,3.303,0.0,0.0,0.0,0.0,0.0,0.0,0.0,0.0,3.4414,3.4549,3.4582,0.0,3.4549,0.0,0.0,0.0,0.0,0.0,0.0,3.3638,3.3638,3.4113,3.4414,0.0,3.4414,3.4414,3.4414,3.4481,3.4515,3.4515,3.4534,3.4582,3.4582,3.4716,3.4783,3.4783,3.5184,3.5379,3.5412,3.6274,3.6646,3.6677,3.7191,3.7546,3.7706,3.7706,3.7867,3.8026,3.7576,3.7399,3.7429,3.7663,3.7706,3.778,3.7998,3.8084,3.8141,3.8535,3.8662,3.8745,3.9175,3.9299,3.9299,3.9299,3.9299,3.9299,3.9299,3.9299,3.9299,3.9299,3.9299,3.9299,3.9299,3.9299,3.9381,3.9647,3.9696,3.9597,3.9348,3.9514,3.9696,3.9696,3.9912,4.0034,4.0034,4.0034,4.0034,4.0034,4.0034,4.0034,4.0034,4.0034,4.0034,4.0034,4.0034,3.9945,3.9696,3.9945,3.9812,3.9299,3.9564,3.9564,3.9299,3.9299,3.9077]}]]